[[{"header":{"parameterUnit":"m.s-1","parameterCategory":1,"la1":30.6,"la2":29.2853,"lo1":-89.7004,"lo2":-87.6739,"dy":0.0162,"dx":0.0183,"nx":112,"ny":82,"refTime":"2026-04-27T12:00:00:Z","depth":0,"parameterNumber":2,"parameterNumberName":"U-component_of_WINDS"},"data":[0.0,0.0,0.0,0.0,0.0,0.0,0.0,0.0,0.0,0.0,0.0,0.0,0.0,0.0,0.0,0.0,0.0,0.0,0.0,0.0,0.0,0.0,0.0,0.0,0.0,0.0,0.0,0.0,0.0,0.0,0.0,0.0,0.0,0.0,0.0,0.0,0.0,0.0,0.0,0.0,0.0,0.0,0.0,0.0,0.0,0.0,0.0,0.0,0.0,0.0,0.0,0.0,0.0,0.0,0.0,0.0,0.0,0.0,0.0,0.0,0.0,0.0,0.0,0.0,0.0,0.0,0.0,0.0,0.0,0.0,0.0,0.0,0.0,0.0,0.0,0.0,0.0,0.0,0.0,0.0,0.0,0.0,0.0,0.0,0.0,0.0,0.0,0.0,0.0,0.0,-5.1958,-5.6357,-6.3048,-6.6608,-6.5239,-6.2613,-5.9057,-5.439,0.0,0.0,0.0,0.0,0.0,0.0,0.0,0.0,0.0,0.0,0.0,0.0,0.0,0.0,0.0,0.0,0.0,0.0,0.0,0.0,0.0,0.0,0.0,0.0,0.0,0.0,0.0,0.0,0.0,0.0,0.0,0.0,0.0,0.0,0.0,0.0,0.0,0.0,0.0,0.0,0.0,0.0,0.0,0.0,0.0,0.0,0.0,0.0,0.0,0.0,0.0,0.0,0.0,0.0,0.0,0.0,0.0,0.0,0.0,0.0,0.0,0.0,0.0,0.0,0.0,0.0,0.0,0.0,0.0,0.0,0.0,0.0,0.0,0.0,0.0,0.0,0.0,0.0,0.0,0.0,0.0,0.0,0.0,0.0,0.0,0.0,0.0,0.0,0.0,0.0,0.0,0.0,0.0,0.0,0.0,0.0,0.0,0.0,0.0,0.0,0.0,0.0,0.0,0.0,-5.3873,-6.1565,-6.5704,-6.7325,-6.588,-6.357,-5.9737,-5.3894,0.0,0.0,0.0,0.0,0.0,0.0,0.0,0.0,0.0,0.0,0.0,0.0,0.0,0.0,0.0,0.0,0.0,0.0,0.0,0.0,0.0,0.0,0.0,0.0,0.0,0.0,0.0,0.0,0.0,0.0,0.0,0.0,0.0,0.0,0.0,0.0,0.0,0.0,0.0,0.0,0.0,0.0,0.0,0.0,0.0,0.0,0.0,0.0,0.0,0.0,0.0,0.0,0.0,0.0,0.0,0.0,0.0,0.0,0.0,0.0,0.0,0.0,0.0,0.0,0.0,0.0,0.0,0.0,0.0,0.0,0.0,0.0,0.0,0.0,0.0,0.0,0.0,0.0,0.0,0.0,0.0,0.0,0.0,0.0,0.0,0.0,0.0,0.0,0.0,0.0,0.0,0.0,0.0,0.0,0.0,0.0,0.0,0.0,0.0,0.0,0.0,0.0,0.0,-5.2149,-5.7357,-6.2461,-6.5324,-6.6117,-6.422,-6.1565,-5.7771,-5.2494,-4.6005,0.0,0.0,0.0,0.0,0.0,0.0,0.0,0.0,0.0,0.0,0.0,0.0,0.0,0.0,0.0,0.0,0.0,0.0,0.0,0.0,0.0,0.0,0.0,0.0,0.0,0.0,0.0,0.0,0.0,0.0,0.0,0.0,0.0,0.0,0.0,0.0,0.0,0.0,0.0,0.0,0.0,0.0,0.0,0.0,0.0,0.0,0.0,0.0,0.0,0.0,0.0,0.0,0.0,0.0,0.0,0.0,0.0,0.0,0.0,0.0,0.0,0.0,0.0,0.0,0.0,0.0,0.0,0.0,0.0,0.0,0.0,0.0,0.0,0.0,0.0,0.0,0.0,0.0,0.0,0.0,0.0,0.0,0.0,0.0,0.0,0.0,0.0,0.0,0.0,0.0,0.0,0.0,0.0,0.0,0.0,0.0,0.0,0.0,0.0,0.0,0.0,0.0,-5.6357,-6.0185,-6.2496,-6.4634,-6.4876,-6.2427,-5.9392,-5.5632,-5.0843,-4.4285,0.0,0.0,0.0,0.0,0.0,0.0,0.0,0.0,0.0,0.0,0.0,0.0,0.0,0.0,0.0,0.0,0.0,0.0,0.0,0.0,0.0,0.0,0.0,0.0,0.0,0.0,0.0,0.0,0.0,0.0,0.0,0.0,0.0,0.0,0.0,0.0,0.0,0.0,0.0,0.0,0.0,0.0,0.0,0.0,0.0,0.0,0.0,0.0,0.0,0.0,0.0,0.0,0.0,0.0,0.0,0.0,0.0,0.0,0.0,0.0,0.0,0.0,0.0,0.0,0.0,0.0,0.0,0.0,0.0,0.0,0.0,0.0,0.0,0.0,0.0,0.0,0.0,0.0,0.0,0.0,0.0,0.0,0.0,0.0,0.0,0.0,0.0,0.0,0.0,0.0,0.0,0.0,0.0,0.0,0.0,0.0,0.0,0.0,0.0,0.0,0.0,0.0,-5.684,-6.0978,-6.3289,-6.4945,-6.4669,-6.1634,-5.8599,-5.4632,-4.9292,-4.3182,0.0,0.0,0.0,0.0,0.0,0.0,0.0,0.0,0.0,0.0,0.0,0.0,0.0,0.0,0.0,0.0,0.0,0.0,0.0,0.0,0.0,0.0,0.0,0.0,0.0,0.0,0.0,0.0,0.0,0.0,0.0,0.0,0.0,0.0,0.0,0.0,0.0,0.0,0.0,0.0,0.0,0.0,0.0,0.0,0.0,0.0,0.0,0.0,0.0,0.0,0.0,0.0,0.0,0.0,0.0,0.0,0.0,0.0,0.0,0.0,0.0,0.0,0.0,0.0,0.0,0.0,0.0,0.0,0.0,0.0,0.0,0.0,0.0,0.0,0.0,0.0,0.0,0.0,0.0,0.0,0.0,0.0,0.0,0.0,0.0,0.0,0.0,0.0,0.0,0.0,0.0,0.0,0.0,0.0,0.0,0.0,0.0,0.0,0.0,0.0,0.0,0.0,-5.6086,-6.008,0.0,-6.3531,-6.3013,-5.9495,-5.684,-5.2873,-4.7052,0.0,0.0,0.0,0.0,0.0,0.0,0.0,0.0,0.0,0.0,0.0,0.0,0.0,0.0,0.0,0.0,0.0,0.0,0.0,0.0,0.0,0.0,0.0,0.0,0.0,0.0,0.0,0.0,0.0,0.0,0.0,0.0,0.0,0.0,0.0,0.0,0.0,0.0,0.0,0.0,0.0,0.0,0.0,0.0,0.0,0.0,0.0,0.0,0.0,0.0,0.0,0.0,0.0,0.0,0.0,0.0,0.0,0.0,0.0,0.0,0.0,0.0,0.0,0.0,0.0,0.0,0.0,0.0,0.0,0.0,0.0,0.0,0.0,0.0,0.0,0.0,0.0,0.0,0.0,0.0,0.0,0.0,0.0,0.0,0.0,0.0,0.0,0.0,0.0,0.0,0.0,0.0,0.0,0.0,0.0,0.0,0.0,0.0,0.0,0.0,0.0,0.0,-4.9781,-5.5034,-5.8907,0.0,-6.201,-6.1427,-5.784,-5.5253,-5.1287,-4.5423,0.0,0.0,0.0,0.0,0.0,0.0,0.0,0.0,0.0,0.0,0.0,0.0,0.0,0.0,0.0,0.0,0.0,0.0,0.0,0.0,0.0,0.0,0.0,0.0,0.0,0.0,0.0,0.0,0.0,0.0,0.0,0.0,0.0,0.0,0.0,0.0,0.0,0.0,0.0,0.0,0.0,0.0,0.0,0.0,0.0,0.0,0.0,0.0,0.0,0.0,0.0,0.0,0.0,0.0,0.0,0.0,0.0,0.0,0.0,0.0,0.0,0.0,0.0,0.0,0.0,0.0,0.0,0.0,0.0,0.0,0.0,0.0,0.0,0.0,0.0,0.0,0.0,0.0,0.0,0.0,0.0,0.0,0.0,0.0,0.0,0.0,0.0,0.0,0.0,0.0,0.0,0.0,0.0,0.0,0.0,0.0,0.0,0.0,0.0,0.0,0.0,0.0,-4.8519,-5.3785,-5.7733,-5.9413,-6.0627,-6.0082,-5.7047,-5.398,-4.9976,0.0,0.0,0.0,0.0,0.0,0.0,0.0,0.0,0.0,0.0,0.0,0.0,0.0,0.0,0.0,0.0,0.0,0.0,0.0,0.0,0.0,0.0,0.0,0.0,0.0,0.0,0.0,0.0,0.0,0.0,0.0,0.0,0.0,0.0,0.0,0.0,0.0,0.0,0.0,0.0,0.0,0.0,0.0,0.0,0.0,0.0,0.0,0.0,0.0,0.0,0.0,0.0,0.0,0.0,0.0,0.0,0.0,0.0,0.0,0.0,0.0,0.0,0.0,0.0,0.0,0.0,0.0,0.0,0.0,0.0,0.0,0.0,0.0,0.0,0.0,0.0,0.0,0.0,0.0,0.0,0.0,0.0,0.0,0.0,0.0,0.0,0.0,0.0,0.0,0.0,0.0,0.0,0.0,0.0,0.0,0.0,0.0,0.0,0.0,0.0,0.0,0.0,0.0,-4.824,-5.3078,-5.6801,-5.8945,-6.023,-5.9694,-5.661,-5.4622,-5.078,-4.4482,0.0,0.0,0.0,0.0,0.0,0.0,0.0,0.0,0.0,0.0,0.0,0.0,0.0,0.0,0.0,0.0,0.0,0.0,0.0,0.0,0.0,0.0,0.0,0.0,0.0,0.0,0.0,0.0,0.0,0.0,0.0,0.0,0.0,0.0,0.0,0.0,0.0,0.0,0.0,0.0,0.0,0.0,0.0,0.0,0.0,0.0,0.0,0.0,0.0,0.0,0.0,0.0,0.0,0.0,0.0,0.0,0.0,0.0,0.0,0.0,0.0,0.0,0.0,0.0,0.0,0.0,0.0,0.0,0.0,0.0,0.0,0.0,0.0,0.0,0.0,0.0,0.0,0.0,0.0,0.0,0.0,0.0,0.0,0.0,0.0,0.0,0.0,0.0,0.0,0.0,0.0,0.0,0.0,0.0,0.0,0.0,0.0,0.0,0.0,0.0,0.0,0.0,-4.7404,-5.2167,-5.578,-5.7876,-5.8856,-5.8366,-5.5923,-5.4364,-5.0835,-4.4497,0.0,0.0,0.0,0.0,0.0,0.0,0.0,0.0,0.0,0.0,0.0,0.0,0.0,0.0,0.0,0.0,0.0,0.0,0.0,0.0,0.0,0.0,0.0,0.0,0.0,0.0,0.0,0.0,0.0,0.0,0.0,0.0,0.0,0.0,0.0,0.0,0.0,0.0,0.0,0.0,0.0,0.0,0.0,0.0,0.0,0.0,0.0,0.0,0.0,0.0,0.0,0.0,0.0,0.0,0.0,0.0,0.0,0.0,0.0,0.0,0.0,0.0,0.0,0.0,0.0,0.0,0.0,0.0,0.0,0.0,0.0,0.0,0.0,0.0,0.0,0.0,0.0,0.0,0.0,0.0,0.0,0.0,0.0,0.0,0.0,0.0,0.0,0.0,0.0,0.0,0.0,0.0,0.0,0.0,0.0,0.0,0.0,0.0,0.0,0.0,0.0,0.0,-4.6207,-5.1107,-5.4731,-5.6338,-5.692,-5.6545,-5.5074,-5.3603,-5.0359,-4.4687,0.0,0.0,0.0,0.0,0.0,0.0,0.0,0.0,0.0,0.0,0.0,0.0,0.0,0.0,0.0,0.0,0.0,0.0,0.0,0.0,0.0,0.0,0.0,0.0,0.0,0.0,0.0,0.0,0.0,0.0,0.0,0.0,0.0,0.0,0.0,0.0,0.0,0.0,0.0,0.0,0.0,0.0,0.0,0.0,0.0,0.0,0.0,0.0,0.0,0.0,0.0,0.0,0.0,0.0,0.0,0.0,0.0,0.0,0.0,0.0,-5.8345,0.0,0.0,0.0,0.0,0.0,0.0,0.0,0.0,0.0,0.0,0.0,0.0,0.0,0.0,0.0,0.0,0.0,0.0,0.0,0.0,0.0,0.0,0.0,0.0,0.0,0.0,0.0,0.0,0.0,0.0,0.0,0.0,0.0,0.0,0.0,0.0,0.0,0.0,0.0,0.0,0.0,-4.5258,-5.0171,-5.3743,-5.5226,-5.6233,-5.6198,-5.4738,-5.3244,-5.0423,-4.5799,-4.0923,0.0,0.0,0.0,0.0,0.0,0.0,0.0,0.0,0.0,0.0,0.0,0.0,0.0,0.0,0.0,0.0,0.0,0.0,0.0,0.0,0.0,0.0,0.0,0.0,0.0,0.0,0.0,0.0,0.0,0.0,0.0,0.0,0.0,0.0,0.0,0.0,0.0,0.0,0.0,0.0,0.0,0.0,0.0,0.0,0.0,0.0,0.0,0.0,0.0,0.0,0.0,0.0,0.0,0.0,0.0,0.0,0.0,0.0,0.0,0.0,-6.0665,0.0,0.0,0.0,0.0,0.0,0.0,0.0,0.0,0.0,0.0,0.0,0.0,0.0,0.0,0.0,0.0,0.0,0.0,0.0,0.0,0.0,0.0,0.0,0.0,0.0,0.0,0.0,0.0,0.0,0.0,0.0,0.0,0.0,0.0,0.0,0.0,0.0,0.0,0.0,0.0,-4.4471,-4.9171,-5.2644,-5.4007,-5.4692,-5.4618,-5.3503,-5.2093,-4.9604,-4.573,-4.1196,0.0,0.0,0.0,0.0,0.0,0.0,0.0,0.0,0.0,0.0,0.0,0.0,0.0,0.0,0.0,0.0,0.0,0.0,0.0,0.0,0.0,0.0,0.0,0.0,0.0,0.0,0.0,0.0,0.0,0.0,0.0,0.0,0.0,0.0,0.0,0.0,0.0,0.0,0.0,0.0,0.0,0.0,0.0,0.0,0.0,0.0,0.0,0.0,0.0,0.0,0.0,0.0,0.0,-6.9658,-6.9729,-6.9765,-7.0443,-7.0728,-7.0657,-6.8837,-6.6339,-6.3484,-6.3341,0.0,0.0,0.0,0.0,0.0,0.0,0.0,0.0,0.0,0.0,0.0,0.0,0.0,0.0,0.0,0.0,0.0,0.0,0.0,0.0,0.0,0.0,0.0,0.0,-4.8655,-4.614,0.0,0.0,0.0,0.0,0.0,0.0,0.0,0.0,0.0,0.0,0.0,0.0,-4.3918,-4.8407,-5.1685,-5.2981,-5.32,-5.3013,-5.2268,-5.0908,-4.8742,-4.5537,-4.1556,-3.8122,0.0,0.0,0.0,0.0,0.0,0.0,0.0,0.0,0.0,0.0,0.0,0.0,0.0,0.0,0.0,0.0,0.0,0.0,0.0,0.0,0.0,0.0,0.0,0.0,0.0,0.0,0.0,0.0,0.0,0.0,0.0,0.0,-5.6539,-5.7346,0.0,0.0,0.0,0.0,0.0,0.0,0.0,0.0,0.0,0.0,0.0,0.0,0.0,-7.0015,-7.3048,-7.4547,-7.5296,-7.5296,-7.5938,-7.6259,-7.6259,-7.6367,-7.6438,-7.6438,-7.683,0.0,-6.8337,-6.7624,0.0,0.0,0.0,0.0,0.0,0.0,0.0,0.0,0.0,0.0,0.0,0.0,0.0,0.0,0.0,0.0,0.0,0.0,0.0,0.0,0.0,0.0,-5.4092,-5.3991,-5.2876,-5.1663,0.0,-4.7604,-4.4004,-4.1394,-3.9445,0.0,0.0,0.0,0.0,0.0,0.0,0.0,-4.3802,-4.8302,-5.1491,-5.2268,-5.2916,-5.3013,-5.2268,-5.0908,-4.9094,-4.6797,-4.3546,-4.0442,-3.7512,-3.4858,0.0,0.0,0.0,0.0,0.0,0.0,0.0,0.0,0.0,0.0,0.0,0.0,0.0,0.0,0.0,0.0,0.0,0.0,0.0,0.0,0.0,0.0,0.0,0.0,0.0,0.0,0.0,0.0,0.0,-5.6475,-5.9555,-5.9843,-6.1016,-6.1004,0.0,0.0,0.0,0.0,0.0,0.0,0.0,0.0,0.0,-7.1942,-7.3262,-7.5439,-7.8579,-8.0221,-8.1006,-8.1006,-8.1362,-8.1505,-8.1505,-8.1505,-8.1255,-8.0863,-8.1684,-7.9685,-7.5653,-7.2191,-6.8627,-6.5002,0.0,0.0,0.0,0.0,-5.7513,-5.8101,-5.8511,-5.8832,0.0,-5.846,0.0,0.0,0.0,0.0,0.0,0.0,0.0,0.0,0.0,0.0,-5.5819,-5.5712,-5.4785,-5.3787,-5.3313,-5.1143,-4.8476,0.0,-4.26,-3.9785,-3.7451,0.0,0.0,0.0,0.0,-4.1727,-4.4884,-4.8039,-5.039,-5.1523,-5.1912,-5.1815,-5.107,-5.0066,-4.8774,-4.7162,-4.4784,-4.2565,-4.054,-3.7944,-3.5023,0.0,0.0,0.0,0.0,0.0,0.0,0.0,0.0,0.0,0.0,0.0,0.0,0.0,0.0,0.0,0.0,0.0,0.0,0.0,0.0,0.0,0.0,0.0,0.0,0.0,0.0,0.0,0.0,-5.9803,-6.2828,-6.2814,-6.4262,-6.4305,0.0,0.0,0.0,0.0,0.0,0.0,-6.7802,-6.9551,-7.2405,-7.6581,-7.8222,-8.0328,-8.3075,-8.4503,-8.5216,-8.5181,-8.5002,-8.4931,-8.4895,-8.4717,-8.4289,-8.3718,-8.436,-8.3397,-8.1006,-7.6259,-7.2371,-6.8995,-6.5196,-6.3377,-6.2767,-6.173,-6.1879,-6.2649,-6.2923,-6.3127,-6.323,-6.3084,0.0,-5.8012,-5.5563,0.0,0.0,0.0,0.0,-5.365,-5.6167,-5.6978,-5.7156,-5.7174,-5.6433,-5.5521,-5.4662,-5.3584,-5.1912,0.0,-4.55,-4.2454,-4.0926,0.0,0.0,0.0,0.0,-4.2792,-4.5701,-4.7645,-4.9321,-5.0746,-5.0908,-5.0681,-5.0163,-4.9451,-4.8353,-4.6936,-4.5307,-4.3685,-4.21,-3.986,-3.7019,-3.3484,0.0,0.0,0.0,0.0,0.0,0.0,0.0,0.0,0.0,0.0,0.0,0.0,0.0,0.0,0.0,0.0,0.0,0.0,0.0,0.0,0.0,0.0,0.0,0.0,0.0,0.0,0.0,0.0,0.0,-6.6472,-6.8629,0.0,0.0,0.0,0.0,-6.7517,-6.9836,-7.1906,-7.3512,-7.576,-7.8186,-8.072,-8.229,-8.3896,-8.5609,-8.6394,-8.6787,-8.6787,-8.6073,-8.5752,-8.5716,-8.4967,-8.4574,-8.4538,-8.4574,-8.3682,-8.1933,-7.9435,-7.6433,-7.3045,-6.9672,-6.7694,-6.6601,-6.5402,-6.5808,-6.6938,-6.6781,-6.7191,-6.7773,-6.7738,-6.4289,-5.953,-5.6495,-5.3873,0.0,0.0,-5.429,-5.5076,-5.7205,-5.7917,-5.8279,-5.8858,-5.8634,-5.7877,-5.6329,-5.5082,-5.3434,0.0,-4.8155,-4.5953,-4.3848,0.0,-4.1556,-4.1446,-4.2867,-4.4365,-4.563,-4.7119,-4.8609,-5.0001,-5.0163,-5.0131,-5.0098,-4.9451,-4.8123,-4.5986,-4.4949,-4.3305,-4.0909,-3.9908,-3.7908,-3.4586,-3.2608,0.0,0.0,0.0,0.0,0.0,0.0,0.0,0.0,0.0,0.0,0.0,0.0,0.0,0.0,0.0,0.0,0.0,0.0,0.0,0.0,0.0,0.0,0.0,0.0,0.0,0.0,0.0,0.0,-7.1302,-7.3547,0.0,-7.2441,-7.1549,-7.1727,-7.3298,-7.5653,-7.7865,-7.9935,-8.1826,-8.3682,-8.5538,-8.6144,-8.6929,-8.8036,-8.8321,-8.8464,-8.8428,-8.7143,-8.6501,-8.6465,-8.5181,-8.461,-8.461,-8.461,-8.3967,-8.2861,-8.1505,-7.8601,-7.474,-7.1934,-7.0085,-6.8975,-6.8315,-6.8366,-6.8843,-6.9095,-6.9049,-6.8601,-6.7152,-6.5048,-6.2634,-6.0047,-5.8392,-5.7427,-5.7775,-5.7632,-5.7679,-5.8811,-5.8819,-5.8582,-5.8525,-5.8388,-5.7921,-5.6645,-5.5694,-5.4632,-5.3142,-5.039,-4.8026,-4.7249,-4.5988,-4.5276,-4.5663,-4.6215,-4.7093,-4.8382,-4.8609,-4.903,-5.0001,-4.9677,-4.9224,-4.8803,-4.8058,-4.7154,-4.6057,-4.498,-4.3822,-4.2482,-4.17,-3.9875,-3.6865,-3.5621,-3.2984,0.0,0.0,0.0,0.0,0.0,0.0,0.0,0.0,0.0,0.0,0.0,0.0,0.0,0.0,0.0,0.0,0.0,0.0,0.0,0.0,0.0,0.0,0.0,0.0,0.0,-6.8908,-7.3369,-7.4654,-7.7116,-7.8294,-7.7294,-7.6474,-7.6759,-7.8615,-8.047,-8.229,-8.411,-8.5716,-8.7036,-8.8071,-8.8357,-8.8749,-8.932,-8.932,-8.9178,-8.8892,-8.7536,-8.6787,-8.6501,-8.5181,-8.461,-8.4574,-8.4324,-8.3713,-8.2852,-8.2027,-7.9617,-7.6282,-7.4252,-7.2707,-7.1578,-7.0897,-7.0666,-7.0626,-7.0711,-7.0429,-6.967,-6.7359,-6.6255,-6.5462,-6.3462,-6.2496,-6.2012,-6.1481,-6.0789,-6.0179,-6.0208,-5.9676,-5.9052,-5.8769,-5.8684,-5.8339,-5.7145,-5.6478,-5.5863,-5.4924,-5.2236,-5.0034,-4.9775,-4.8771,-4.8058,-4.8317,-4.835,-4.8609,-4.9321,-4.8965,-4.8868,-4.9354,-4.8965,-4.8476,-4.8058,-4.7313,-4.6442,-4.5341,-4.4457,-4.3497,-4.2455,-4.1822,-4.0466,-3.8274,-3.6497,-3.3583,-2.9389,0.0,0.0,0.0,0.0,0.0,0.0,0.0,0.0,0.0,0.0,0.0,0.0,0.0,0.0,0.0,0.0,0.0,0.0,0.0,0.0,0.0,0.0,0.0,-6.5732,-7.1371,-7.5617,-7.6474,-7.9328,-8.1255,-8.1291,-8.0577,-8.1077,-8.3361,-8.4289,-8.5074,-8.5859,-8.7322,-8.8143,-8.8143,-8.8892,-8.932,-8.932,-8.932,-8.8892,-8.8071,-8.7286,-8.6501,-8.5787,-8.4967,-8.461,-8.4574,-8.3753,-8.2811,-8.1825,-8.1043,-7.9555,-7.7702,-7.6695,-7.5557,-7.4337,-7.3115,-7.2713,-7.2609,-7.1774,-7.1498,-7.1118,-6.8877,-6.8152,-6.7876,-6.6393,-6.5945,-6.5662,-6.4453,-6.3509,-6.2539,-6.131,-6.0345,-5.9716,-5.9716,-5.9684,-5.9295,-5.7871,-5.7589,-5.7126,-5.5701,-5.3693,-5.2009,-5.1361,-5.0617,-4.9904,-4.9192,-4.9026,0.0,-4.8155,-4.8026,-4.8026,-4.8026,-4.7961,-4.7929,-4.7929,-4.7216,-4.5888,-4.3816,-4.3224,-4.2209,-4.051,-4.0054,-3.9453,-3.86,-3.4987,-3.1908,-2.9348,0.0,0.0,0.0,0.0,0.0,0.0,0.0,0.0,0.0,0.0,0.0,0.0,0.0,0.0,0.0,0.0,0.0,0.0,0.0,0.0,0.0,-6.3734,-6.7374,-6.898,-7.4118,-7.8436,-8.0363,-8.2933,-8.4717,-8.5252,-8.5109,-8.5466,-8.6715,-8.7001,-8.75,-8.8285,-8.8749,-8.8963,-8.8963,-8.9178,-8.932,-8.932,-8.932,-8.8892,-8.8071,-8.7286,-8.6501,-8.5787,-8.4967,-8.461,-8.4574,-8.3753,-8.2811,-8.1825,-8.0881,-7.9634,-7.8236,-7.6661,-7.5434,-7.4337,-7.3115,-7.2713,-7.2609,-7.1774,-7.1498,-7.1291,-7.0153,-6.9394,-6.8773,-6.7807,-6.7118,-6.6355,-6.4778,-6.3707,-6.2743,-6.1558,-6.06,-5.9935,-5.976,-5.9284,-5.868,-5.7773,-5.7158,-5.651,-5.5604,-5.4114,-5.2948,-5.2754,-5.1718,-5.0811,-5.0617,-5.0131,0.0,-4.9548,-4.8641,-4.8026,-4.8026,-4.7054,-4.6407,-4.6407,-4.4787,-4.3525,-4.2942,-4.1381,-4.0047,-3.9023,-3.8849,-3.8701,-3.8539,-3.5572,-3.363,0.0,0.0,0.0,0.0,0.0,0.0,0.0,0.0,0.0,0.0,0.0,0.0,0.0,0.0,0.0,0.0,0.0,0.0,0.0,0.0,0.0,0.0,-6.7088,-7.1228,-7.3155,-7.6759,-7.9828,-8.1541,-8.4146,-8.6073,-8.6822,-8.7215,-8.775,-8.8535,-8.8607,-8.8821,-8.9285,-8.932,-8.932,-8.932,-8.8963,-8.8821,-8.8821,-8.8464,-8.7893,-8.7108,-8.6644,-8.6037,-8.5288,-8.4824,-8.4431,0.0,-8.3254,-8.2272,-8.1165,-7.9828,-7.8794,0.0,0.0,0.0,0.0,0.0,-7.2713,-7.2602,-7.2153,-7.1981,-7.1877,-7.1084,-7.036,-6.9601,-6.8842,-6.8049,-6.7113,-6.5405,-6.4381,-6.3512,-6.1991,-6.0978,-6.0292,-6.0066,-5.9296,-5.8453,-5.7741,-5.6996,-5.6284,-5.5539,-5.4276,0.0,-5.3298,-5.2139,-5.1199,-5.1199,-5.0552,-5.0001,-4.9677,-4.8706,-4.7896,-4.7572,-4.6763,-4.6245,-4.6245,-4.4593,0.0,0.0,0.0,-3.9444,-3.844,-3.8488,0.0,0.0,0.0,0.0,0.0,0.0,0.0,0.0,-2.942,-3.0386,0.0,0.0,0.0,0.0,0.0,0.0,0.0,0.0,0.0,0.0,0.0,0.0,0.0,0.0,0.0,0.0,-7.0264,-7.501,-7.7437,-7.915,-8.0506,-8.1398,-8.4039,-8.6144,-8.6965,-8.7679,-8.8428,-8.9249,-8.9249,-8.9178,-8.9178,0.0,0.0,0.0,0.0,-8.7964,-8.7964,-8.7251,-8.6537,-8.5787,-8.5787,-8.5324,-8.4467,-8.4467,-8.4039,-8.3218,-8.2326,-8.1302,-8.0151,-7.8352,-7.7316,-7.6817,-7.6613,-7.5879,-7.4833,-7.3273,-7.2644,-7.2575,-7.2575,0.0,0.0,-7.1601,-7.0877,-7.0153,-6.9497,-6.867,-6.763,-6.6058,-6.5192,-6.4313,-6.2487,-6.135,-6.0633,-6.0378,-5.9404,-5.8324,-5.7709,-5.6931,-5.6187,-5.5539,-5.4276,-5.3298,-5.3298,-5.2139,-5.1199,-5.1199,-5.0487,-4.9742,-4.9058,-4.835,-4.7637,-4.6957,0.0,0.0,-4.6763,-4.5403,-4.401,-4.2683,-4.1225,-3.9833,-3.857,-3.8688,-3.877,-3.8722,-3.8293,-3.7591,-3.6663,-3.6008,-3.5697,-3.5628,-3.3352,-3.349,0.0,0.0,0.0,0.0,0.0,0.0,0.0,0.0,0.0,0.0,0.0,0.0,0.0,0.0,0.0,-6.848,-7.2513,-7.601,-7.9007,-8.0791,-8.229,-8.3753,-8.5038,-8.6323,-8.7714,-8.8,-8.8428,-8.9249,-8.8714,-8.8321,-8.8321,-8.7714,-8.7358,-8.7358,-8.7215,-8.7143,-8.7143,-8.6965,-8.6537,-8.5787,0.0,0.0,-8.3611,-8.3611,-8.3182,-8.2362,-8.097,-8.0021,-7.9373,-7.7344,-7.6056,-7.5301,-7.4841,-7.4106,-7.3169,-7.2816,-7.2257,-7.1705,-7.1705,-7.1325,-7.0808,-7.0636,-7.0084,-6.9463,-6.9365,-6.829,0.0,-6.6114,-6.4967,-6.3662,-6.2152,-6.1227,-6.0548,-5.9979,-5.8799,-5.7741,-5.7654,-5.6543,-5.5571,-5.5442,-5.4276,-5.3298,-5.3298,-5.2139,-5.1199,-5.1199,-5.0066,-4.9155,-4.8994,-4.7896,-4.7054,-4.6927,-4.6374,-4.6018,-4.6018,-4.4204,-4.2877,-4.2619,-4.0772,-3.957,-3.9311,-3.8949,-3.9259,-4.0254,-3.9868,-3.9443,-3.9043,-3.8905,-3.8836,-3.8767,-3.649,-3.6318,0.0,0.0,0.0,0.0,0.0,0.0,0.0,0.0,0.0,0.0,0.0,-5.6169,-5.9309,0.0,-6.7088,-7.1014,-7.4297,-7.7187,-7.9578,-8.0899,-8.2219,-8.3825,-8.5074,-8.6109,-8.6858,-8.7286,-8.7679,-8.8071,-8.7714,-8.75,-8.75,-8.7108,-8.6894,-8.6894,-8.6537,-8.6358,-8.6358,-8.5966,-8.5573,-8.5181,-8.4788,-8.4141,-8.3275,-8.2806,-8.216,-8.1221,-8.0084,-7.9214,-7.8357,-7.6246,-7.4754,-7.3774,-7.3522,-7.3384,-7.3188,-7.2851,-7.2188,-7.1498,-7.1498,-7.1015,-7.0394,-7.0394,-6.9877,-6.9187,-6.8808,-6.7876,-6.6738,-6.552,-6.4517,-6.3493,-6.2199,-6.1268,-6.0492,-5.9663,-5.8528,-5.7482,-5.7126,-5.6187,-5.5312,-5.4988,-5.4049,-5.3207,-5.2819,-5.1879,-5.1199,-5.1199,-5.026,-4.9451,-4.9026,-4.8091,-4.7313,-4.6925,-4.6568,-4.6342,-4.6342,-4.4399,-4.2845,-4.2132,-4.0772,-3.9994,-3.9994,-3.9956,-4.0315,-4.1224,-4.1208,-4.1282,-4.1447,-4.1447,-4.1447,-4.1447,-4.0273,-3.9963,0.0,0.0,0.0,0.0,0.0,0.0,0.0,-5.2671,-5.3135,-5.599,-5.8452,-6.0992,-6.3984,-6.741,-7.0585,-7.3083,-7.576,-7.8115,-7.9899,-8.0684,-8.1612,-8.3004,-8.4431,-8.5466,-8.5787,-8.6323,-8.6751,-8.6894,-8.6787,-8.668,-8.668,-8.6537,-8.6465,-8.6465,-8.5894,-8.5573,-8.5573,-8.4788,-8.436,-8.436,-8.3539,-8.2994,-8.2607,-8.1749,-8.0846,-7.9822,-7.8862,-7.7853,-7.676,-7.4967,-7.3601,-7.2713,-7.254,-7.2809,-7.3257,-7.2671,-7.1946,-7.1256,-7.1118,-7.0567,-6.9946,-6.9946,-6.9428,-6.8704,-6.8083,-6.7256,-6.6251,-6.4859,-6.4029,-6.3328,-6.2285,-6.1391,-6.0553,-5.946,-5.8404,-5.7469,-5.664,-5.5928,-5.5215,-5.4535,-5.3823,-5.3078,-5.2333,-5.162,-5.1199,-5.1199,-5.0552,-4.9839,-4.9091,-4.8414,-4.7734,-4.6957,-4.6892,-4.6763,-4.6538,-4.4787,-4.3168,-4.1904,-4.1225,-4.0901,-4.0901,-4.12,-4.1667,-4.2222,-4.2557,-4.2951,-4.3414,-4.3414,-4.3345,-4.3207,-4.3345,-4.3,-4.8817,-5.0388,-5.3645,-5.6062,-5.6668,-5.6882,0.0,-5.8388,-5.9345,-6.1129,-6.3377,-6.5768,-6.8195,-7.0157,-7.2405,-7.551,-7.683,-7.8294,-8.0649,-8.1041,-8.1398,-8.2255,-8.3111,-8.4217,-8.5645,-8.5859,-8.618,-8.6858,-8.6287,-8.593,-8.593,-8.5252,-8.486,-8.486,-8.4788,-8.4753,-8.4753,-8.3932,-8.3539,-8.3504,-8.2718,-8.1849,-8.0937,-8.003,-7.9049,-7.7959,-7.6116,-7.4706,-7.3764,-7.3344,-7.2991,-7.2644,-7.1912,-7.167,-7.1739,-7.1636,-7.1153,-7.0429,-6.9739,-6.9015,-6.8359,-6.8359,-6.7842,-6.7221,-6.7152,-6.6117,-6.491,-6.47,-6.3768,-6.2717,-6.215,-6.1547,-6.0712,-5.9366,-5.8437,-5.7604,-5.6682,-5.5928,-5.5215,-5.4535,-5.3823,-5.3078,-5.2333,-5.162,-5.1199,-5.1199,-5.0552,-4.9839,-4.9091,-4.8414,-4.7734,-4.6957,-4.6892,-4.6374,-4.5144,-4.4204,-4.3362,-4.2522,-4.2392,-4.236,-4.236,-4.27,-4.3152,-4.3734,-4.408,-4.4245,-4.4173,-4.4173,-4.3828,-4.3207,-4.3862,-4.3793,-5.358,-5.5169,-5.7917,-5.9844,-6.1343,-6.2592,-6.3341,-6.3805,-6.459,-6.666,-6.8551,-7.0336,-7.1799,-7.2976,-7.4475,-7.6688,-7.7294,-7.8186,-8.0149,-8.0399,-8.0684,-8.147,-8.1434,-8.2148,-8.4217,-8.4396,-8.4717,-8.5502,-8.5288,-8.5109,-8.5109,-8.4324,-8.3896,-8.3896,-8.3468,-8.3218,-8.3218,-8.2861,-8.2683,-8.2683,-8.1933,-8.099,-7.9888,-7.8988,-7.7646,-7.6006,-7.5137,-7.3909,-7.247,-7.2388,-7.1981,-7.1325,-7.0981,-7.0843,-7.0843,-7.0843,-7.0394,-6.9704,-6.9394,-6.8773,-6.8014,-6.7601,-6.7256,-6.6807,-6.5911,-6.5221,-6.4562,-6.4036,-6.2973,-6.1936,-6.1593,-6.0818,-5.9838,-5.8672,-5.8034,-5.7364,-5.6474,-5.5799,-5.5086,-5.3984,-5.3531,-5.2948,-5.1815,-5.1361,-5.1199,-5.1199,-5.094,-5.0325,-4.9123,-4.8735,-4.8155,-4.7022,-4.6504,-4.5856,-4.4885,-4.414,-4.3395,-4.2651,-4.2586,-4.2586,-4.2586,-4.2929,-4.3383,-4.4001,-4.4316,-4.4627,-4.4941,-4.4941,-4.4768,-4.4492,-4.4803,-4.4768,-5.708,-5.8774,-6.1058,-6.3092,-6.5197,-6.691,-6.7517,-6.7802,-6.8444,-7.0157,-7.1549,-7.2727,-7.3547,-7.4332,-7.5332,-7.6652,-7.7223,-7.7972,-7.9364,-7.9757,-8.0113,-8.0684,-8.0078,-8.0399,-8.254,-8.2754,-8.3075,-8.3896,-8.4146,-8.4182,-8.3967,-8.3611,-8.3289,-8.3075,-8.2504,-8.2183,-8.2183,-8.2005,-8.1898,-8.1898,-8.0899,-7.9918,-7.9032,-7.7806,-7.6207,-7.438,-7.4089,-7.3189,-7.178,-7.1572,-7.1075,-7.036,-7.0153,-7.0084,-7.0049,-6.9842,-6.9566,-6.9296,-6.9015,-6.8428,-6.7704,-6.7152,-6.6704,-6.6152,-6.5048,-6.4565,-6.4252,-6.3552,-6.2494,-6.1541,-6.1422,-6.0502,-5.9342,-5.8336,-5.7819,-5.7225,-5.6297,-5.5766,-5.4988,-5.3556,-5.3298,-5.2851,-5.1426,-5.1199,-5.1199,-5.1199,-5.1005,-5.0422,-4.9155,-4.8673,-4.8026,-4.6989,-4.605,-4.5338,-4.482,-4.3945,-4.3169,-4.2619,-4.2586,-4.2586,-4.2586,-4.2929,-4.3383,-4.4001,-4.4316,-4.4797,-4.5397,-4.5397,-4.5397,-4.5397,-4.5397,-4.5397,-5.7996,-6.038,-6.2949,-6.6053,-6.8052,-6.9229,-6.9229,-6.9836,-7.0407,-7.0478,-7.1156,-7.1942,-7.2691,-7.3512,-7.4332,-7.5153,-7.6509,-7.7794,-7.8615,-7.94,-7.9935,-7.9935,-7.9221,-7.9364,-8.1006,-8.1184,-8.147,-8.2219,-8.3004,-8.3075,-8.2326,-8.2968,-8.304,-8.2255,-8.2219,-8.2183,-8.2183,-8.1505,-8.1113,-8.1113,-7.9507,-7.8642,-7.8338,-7.6191,-7.4547,-7.3258,-7.24,-7.1814,-7.1429,-7.0746,-7.0394,-7.0325,-6.9601,-6.9325,-6.9222,-6.8463,-6.8635,-6.9193,-6.8394,-6.7635,-6.7014,-6.7014,-6.5979,-6.4772,-6.4703,-6.4186,-6.3634,-6.36,-6.2719,-6.1767,-6.1767,-6.0955,-5.9793,-5.8672,-5.8086,-5.7489,-5.6369,-5.5766,-5.4988,-5.3556,-5.3298,-5.2851,-5.1426,-5.1199,-5.1199,-5.1199,-5.0584,-4.9872,-4.9091,-4.7799,-4.6959,-4.6892,-4.5662,-4.482,-4.4787,-4.3492,-4.2619,-4.2586,-4.2586,-4.2586,-4.2586,-4.2929,-4.3383,-4.4001,-4.4316,-4.4797,-4.5397,-4.5397,-4.5397,-4.5397,-4.5397,-4.5397,-6.0772,-6.3199,-6.5375,-6.8551,-7.0871,-7.2298,-7.1763,-7.2263,-7.2548,-7.1513,-7.1085,-7.0978,-7.1228,-7.1513,-7.2298,-7.4118,-7.576,-7.7223,-7.8508,-7.94,-7.9899,-7.9899,-7.8294,0.0,-7.8615,-7.9685,0.0,-8.2112,-8.2433,-8.2504,-8.2219,-8.2005,-8.1755,-8.147,-8.097,-8.0684,-8.0684,-7.9899,-7.9507,-7.9471,-7.7787,-7.6961,-7.6849,-7.525,-7.3905,-7.2734,-7.229,-7.1307,-7.0015,-6.9739,-6.936,-6.8842,-6.8601,-6.8497,-6.8463,-6.8187,-6.7945,-6.7738,-6.7463,-6.7187,-6.6807,-6.5807,-6.5117,-6.46,-6.4117,-6.3807,-6.36,-6.36,-6.2559,-6.1452,-6.1452,-6.0417,-5.9211,-5.8613,-5.7924,-5.7253,-5.663,-5.5934,-5.515,-5.4211,-5.3661,-5.3013,-5.2009,-5.1491,-5.1005,-5.0519,-4.9839,-4.9127,-4.8447,-4.7508,-4.6892,-4.6892,-4.6018,-4.5273,-4.482,-4.3913,-4.3104,-4.2619,-4.2586,-4.2586,-4.2586,-4.2837,-4.3235,-4.386,-4.4207,-4.4659,-4.5291,-4.5371,-4.5397,-4.5397,-4.5397,-4.5397,-6.2872,-6.5411,-6.7695,-7.0264,-7.2263,-7.344,-7.2905,-7.2762,-7.2334,-7.0728,-6.9551,-6.8837,-6.8837,-6.9051,-7.0015,-7.237,-7.4582,-7.6509,-7.8044,-7.8972,-7.9578,-7.9864,-7.783,-7.6902,-7.8222,-7.8757,0.0,-8.0435,-8.1327,-8.1684,-8.1398,-8.1184,-8.097,-8.0684,-8.0185,-7.9757,-7.9471,-7.8936,-7.8401,-7.7865,-7.6754,-7.6073,-7.5715,-7.4522,-7.3466,-7.2551,-7.1713,-7.059,-6.9256,-6.898,-6.8566,-6.8083,-6.8083,-6.8083,-6.8049,-6.7807,-6.7394,-6.698,-6.698,-6.6635,-6.6014,-6.5014,-6.4531,-6.422,-6.3738,-6.36,-6.36,-6.36,-6.2496,-6.1289,-6.1289,-6.0151,-5.8944,-5.8666,-5.7991,-5.7256,-5.6872,-5.6132,-5.5231,-5.4211,-5.3589,-5.3013,-5.2009,-5.1491,-5.0843,-4.9872,-4.9321,-4.8735,-4.8091,-4.7346,-4.6892,-4.6892,-4.6245,-4.5532,-4.4852,-4.414,-4.3395,-4.2651,-4.2586,-4.2586,-4.2586,-4.2806,-4.3146,-4.3591,-4.3948,-4.4435,-4.5042,-4.5177,-4.5318,-4.5397,-4.5397,-4.5397,-6.4582,-6.7267,-6.9979,-7.1549,-7.2441,-7.2869,-7.2762,-7.1549,-6.9979,-6.8266,-6.6624,-6.5518,-6.5554,-6.6161,-6.7481,-6.9943,-7.3012,-7.5617,-7.7152,-7.8115,-7.8936,-7.9757,-7.7794,-7.7294,-7.9578,-7.8401,0.0,-7.7508,0.0,-8.072,-7.9935,-8.0613,-8.0684,-7.9935,-7.9864,-7.9471,-7.8686,-7.8615,-7.783,-7.6331,-7.6331,-7.5938,-7.5152,-7.393,-7.3129,-7.2602,-7.0744,-6.9654,-6.9153,-6.8394,-6.8083,-6.8083,-6.8083,-6.8083,-6.7945,-6.7256,-6.6945,-6.6876,-6.6876,-6.5911,-6.4703,-6.4669,-6.4152,-6.36,-6.36,-6.36,-6.36,-6.36,-6.2496,-6.1289,-6.1289,-6.0151,-5.8944,-5.8806,-5.8171,-5.7514,-5.7139,-5.6369,-5.527,-5.3707,-5.3304,-5.2819,-5.1426,-5.1167,-5.0649,-4.9188,-4.8961,-4.8738,-4.8026,-4.7313,-4.6892,-4.6892,-4.6277,-4.5597,-4.4917,-4.4172,-4.3428,-4.2716,-4.2619,-4.2586,-4.2586,-4.2775,-4.299,-4.3259,-4.3591,-4.4059,-4.468,-4.4879,-4.513,-4.5371,-4.5397,-4.5397,-6.9372,-7.1935,-7.394,-7.4939,-7.4903,-7.4118,-7.237,-7.0764,-6.8837,-6.6053,-6.3306,-6.1593,-6.2199,-6.2485,-6.377,-6.7302,-7.0978,0.0,-7.5546,-7.6937,-7.8079,-7.89,-7.7437,-7.683,-7.8008,-7.7723,-7.7508,0.0,-7.9186,-8.0113,-7.9935,-8.0113,-8.0113,-7.9935,-7.9328,-7.89,-7.8686,-7.7544,-7.6474,-7.551,-7.5363,-7.5182,-7.4933,-7.3741,-7.2654,-7.1672,-7.0423,-6.9341,-6.8394,-6.8187,-6.8083,-6.8083,-6.8083,-6.7773,-6.7256,-6.7049,-6.6255,-6.529,-6.529,-6.5014,-6.46,-6.4048,-6.3738,-6.36,-6.36,-6.36,-6.36,-6.36,-6.2496,-6.1289,-6.1289,-6.0151,-5.8944,-5.8806,-5.8385,-5.7884,-5.7514,-5.6402,-5.5286,-5.4692,-5.3441,-5.2203,-5.1329,-5.0746,-5.0066,-4.9123,-4.8541,-4.7993,-4.7249,-4.6989,-4.6892,-4.6892,-4.673,-4.6309,-4.5597,-4.4917,-4.4204,-4.3492,-4.2877,-4.2586,-4.2586,-4.2649,-4.2805,-4.3141,-4.3323,-4.3739,-4.4406,-4.4547,-4.4797,-4.5103,-4.5177,-4.523,-7.1639,-7.3797,-7.5225,-7.5332,-7.501,-7.3976,-7.1264,-6.8873,-6.6307,-6.3199,-5.9773,-5.756,-5.8381,-5.8524,-6.0023,-6.4662,-6.8409,-7.1656,-7.4297,-7.5724,-7.6902,-7.8044,-7.7116,-7.683,-7.7901,-7.8008,-7.8151,0.0,-7.94,-7.9899,-7.9899,-7.9899,-7.9757,-7.9364,-7.8936,-7.8365,-7.7687,-7.6474,-7.5653,-7.5225,-7.5005,-7.4857,-7.4709,-7.3199,-7.2005,-7.1163,0.0,-6.8812,-6.8083,-6.8083,-6.8083,-6.8049,-6.7738,-6.7359,-6.6911,-6.6221,-6.5428,-6.4634,-6.4324,-6.422,-6.4152,-6.3738,-6.36,-6.36,-6.36,-6.36,-6.36,-6.36,-6.2496,-6.1289,-6.1289,-6.0151,-5.8978,-5.8909,-5.8562,-5.8173,-5.7884,-5.665,-5.5236,-5.4115,-5.2758,-5.162,-5.1264,-5.0843,-5.0228,-4.9155,-4.867,-4.8091,-4.7022,-4.6892,-4.6892,-4.6892,-4.6892,-4.6601,-4.5856,-4.5467,-4.4787,-4.3783,-4.3298,-4.2942,-4.2619,-4.2586,-4.2842,-4.3323,-4.351,-4.3847,-4.4356,-4.4503,-4.4567,-4.4575,-4.4742,-4.4879,-7.2758,-7.4476,-7.5581,-7.4475,-7.4083,-7.3119,-6.9765,-6.641,-6.3092,-5.9951,-5.6062,-5.3502,-5.442,-5.467,-5.649,-6.1914,-6.5697,-6.9229,-7.2834,-7.444,-7.5688,-7.7045,-7.6723,-7.7009,-7.8543,-7.8686,-7.9007,-7.9864,-7.9899,-7.9899,-7.9899,-7.9792,-7.9328,-7.8401,-7.8365,-7.7687,-7.6259,-7.5546,-7.5225,-7.5225,-7.4968,-7.4744,-7.452,-7.2548,-7.1427,-7.0858,0.0,0.0,-6.8083,-6.8083,-6.8083,-6.8049,-6.7394,-6.7083,-6.6807,-6.5393,-6.4807,-6.46,-6.3841,-6.36,-6.36,-6.36,-6.36,-6.36,-6.36,-6.36,-6.36,-6.36,-6.2496,-6.1289,-6.1289,-6.0151,-5.9012,-5.9012,-5.8771,-5.8491,-5.8244,-5.6954,-5.514,-5.2866,-5.1815,-5.1275,-5.1237,-5.1102,-5.0617,-4.9317,-4.8961,-4.8447,-4.7184,-4.6957,-4.6892,-4.6892,-4.6892,-4.6633,-4.5986,-4.5856,-4.5273,-4.4075,-4.3816,-4.3395,-4.278,-4.2748,-4.3071,-4.3751,-4.3976,-4.4263,-4.4542,-4.47,-4.4517,-4.411,-4.4284,-4.4479,-7.5117,-7.7088,-7.8436,-7.5688,-7.4511,-7.2869,-6.8409,-6.3948,-5.9844,-5.6668,-5.2386,-4.9638,-5.1066,-5.1851,-5.3885,-5.8709,-6.3841,-6.7873,-6.9836,-7.3048,-7.5296,-7.5581,-7.6081,-7.7009,-7.8543,-7.8686,0.0,0.0,-7.9899,-7.9899,-7.9899,-7.9257,-7.8258,-7.683,-7.6795,-7.6331,-7.5439,-7.526,-7.5225,-7.5225,-7.4819,-7.4555,-7.429,-7.2356,-7.1229,-7.0654,-6.9094,0.0,-6.8083,-6.8083,-6.8083,-6.8083,-6.7945,-6.7532,-6.6876,-6.6014,-6.5255,-6.46,-6.3841,-6.36,-6.36,-6.36,-6.36,-6.36,-6.36,-6.36,-6.36,-6.36,-6.2496,-6.1289,-6.1289,-6.0151,-5.9012,-5.9012,-5.8944,-5.8875,-5.8736,-5.7011,-5.4809,-5.2554,-5.1864,-5.1577,-5.1275,-5.0681,-5.0196,-4.9969,-4.8933,-4.8091,-4.7831,-4.7281,-4.6892,-4.6892,-4.6892,-4.6828,-4.6698,-4.6147,-4.5694,-4.5467,-4.4366,-4.3654,-4.3524,-4.3524,-4.3653,-4.3943,-4.4399,-4.4886,-4.5332,-4.5206,-4.5003,-4.4583,-4.4734,-4.4633,-7.5801,-7.7411,-7.8121,-7.526,-7.3976,-7.1942,-6.6375,-6.145,-5.7061,-5.3492,-4.9317,-4.6676,-4.7854,-4.871,-5.0637,-5.4991,-5.963,-6.3663,-6.6482,-7.0621,-7.369,-7.4475,-7.6367,-7.7865,-7.8615,-7.9079,-7.9293,-7.9293,-7.9293,-7.9293,-7.9293,-7.8151,-7.7152,-7.6402,-7.5974,-7.5581,-7.5225,-7.5225,-7.5225,-7.5225,-7.4782,-7.4441,-7.4022,-7.2123,-7.0992,-7.0453,-6.8898,0.0,-6.8083,-6.8083,-6.8083,-6.8049,-6.7669,-6.729,-6.6911,-6.6152,-6.5635,-6.5186,-6.4427,-6.4152,-6.4117,-6.3703,-6.36,-6.36,-6.36,-6.36,-6.36,-6.36,-6.2496,-6.1289,-6.1289,-6.0151,-5.9012,-5.9012,-5.9012,-5.8841,-5.8187,-5.6778,-5.4994,-5.3105,-5.2211,-5.1651,-5.1275,-5.0908,-5.0519,-5.0163,-4.9548,-4.8835,-4.8091,-4.7702,-4.7313,-4.6925,-4.6892,-4.6892,-4.6892,-4.6568,-4.6212,-4.5824,-4.5176,-4.4658,-4.4302,-4.4367,-4.4724,-4.5341,-4.5603,-4.5832,-4.609,-4.5929,-4.5504,-4.4752,-4.4877,-4.4731,-7.5908,-7.709,-7.7235,-7.4333,-7.2833,-7.0443,-6.4305,-5.8988,-5.4384,-5.0744,-4.6855,-4.4357,-4.5178,-4.5963,-4.7711,-5.1494,-5.5419,-5.9244,-6.3056,-6.7838,-7.1513,-7.3083,-7.6045,-7.8008,-7.8186,-7.8936,0.0,-7.8472,0.0,0.0,-7.8186,-7.7045,-7.6331,-7.6152,-7.5546,-7.5225,-7.5225,-7.5188,-7.5116,-7.5116,-7.4707,-7.4287,-7.3751,-7.1966,-7.0833,-7.0291,-6.8773,0.0,0.0,-6.8083,-6.8083,-6.8049,-6.7463,-6.7221,-6.7152,-6.6393,-6.6014,-6.5773,-6.4979,-6.46,-6.4358,-6.3772,-6.36,-6.36,-6.36,-6.36,-6.36,-6.36,-6.2496,-6.1289,-6.1289,-6.0151,-5.9012,-5.9012,-5.9012,-5.8737,-5.7707,-5.661,-5.5377,-5.3859,-5.2623,-5.1762,-5.128,-5.1199,-5.0973,-5.0422,-5.0196,-4.971,-4.8609,-4.8188,-4.7799,-4.7184,-4.6989,-4.6892,-4.6892,-4.6892,-4.6633,-4.6083,-4.5888,-4.5565,-4.5046,-4.5146,-4.5669,-4.6584,-4.6618,-4.6717,-4.6848,-4.6618,-4.5994,-4.5014,-4.5114,-4.4983,-7.6007,-7.7124,-7.7305,-7.3353,-7.0967,-6.8159,-6.2592,0.0,-5.1422,-4.8948,-4.5271,-4.2751,-4.3572,-4.43,-4.5869,-4.9115,-5.2931,-5.6668,-5.988,-6.5019,-6.9015,-7.0621,-7.3619,0.0,-7.6545,-7.7294,-7.7687,-7.7615,0.0,0.0,-7.6616,-7.6474,-7.6081,-7.5332,-7.526,-7.5225,-7.5225,-7.5005,-7.4931,-7.4931,-7.4517,-7.4057,-7.3592,-7.1887,-7.0833,-7.0291,-6.8773,0.0,0.0,-6.8083,-6.8083,-6.8083,-6.8014,-6.798,-6.7911,-6.7152,-6.6462,-6.5773,-6.4979,-6.4255,-6.3669,-6.36,-6.36,-6.36,-6.36,-6.36,-6.36,-6.36,-6.2496,-6.1289,-6.1289,-6.0151,-5.9012,-5.9012,-5.9012,-5.8806,-5.8048,-5.702,-5.5792,-5.4215,-5.3019,-5.202,-5.1317,-5.1199,-5.1167,-5.1102,-5.0519,-5.0066,-4.9936,-4.8803,-4.7993,-4.7929,-4.7281,-4.6892,-4.6892,-4.6892,-4.686,-4.6795,-4.618,-4.5759,-4.5726,-4.5726,-4.5994,-4.6617,-4.6778,-4.7137,-4.7605,-4.7103,-4.6441,-4.5726,-4.5694,-4.5537,-7.4474,-7.664,-7.7617,-7.3405,-7.088,-6.7754,-6.1159,-5.5169,-5.0174,-4.7319,-4.4378,-4.2415,-4.2715,-4.3429,-4.4656,-4.6855,-4.971,-5.2896,-5.6561,-6.1414,-6.5375,-6.7445,-7.0871,-7.3405,0.0,0.0,-7.6331,0.0,0.0,0.0,-7.5688,-7.5688,-7.5546,-7.5225,-7.5225,-7.5225,-7.5225,-7.5005,-7.4857,-7.4707,-7.4287,-7.3856,-7.3386,-7.1653,-7.0678,-7.0291,-6.8773,0.0,0.0,-6.8083,-6.8083,-6.8083,-6.8083,-6.8083,-6.8014,-6.7256,-6.6807,-6.6359,-6.5117,-6.4496,-6.4186,-6.3738,-6.36,-6.36,-6.36,-6.36,-6.36,-6.36,-6.2496,-6.1289,-6.1289,-6.0151,-5.9012,-5.9012,-5.9012,-5.8944,-5.8633,-5.7741,-5.6507,-5.4957,-5.3723,-5.2587,-5.1382,-5.1199,-5.1199,-5.1199,-5.094,-5.0584,-5.0163,-4.9613,-4.8965,-4.8091,-4.7346,-4.6892,-4.6892,-4.6892,-4.6892,-4.6892,-4.6601,-4.6439,-4.6439,-4.6574,-4.6844,-4.7276,-4.734,-4.7504,-4.7704,-4.7337,-4.6936,-4.6439,-4.6439,-4.615,-7.2979,-7.5725,-7.7097,-7.274,-6.9796,-6.6253,-5.9659,-5.3794,-4.9067,-4.6355,-4.3929,-4.2308,-4.2308,-4.2751,-4.3572,-4.4892,-4.689,-4.9471,-5.2993,-5.7346,-6.1058,-6.3413,0.0,-6.9979,0.0,-7.3155,-7.4903,0.0,0.0,0.0,-7.5225,-7.5225,-7.5225,-7.5225,-7.5225,-7.5225,-7.5225,-7.4931,-7.4707,-7.4517,-7.4092,-7.3552,-7.2829,-7.1388,-7.0459,-6.998,0.0,0.0,0.0,-6.8083,-6.8083,-6.8083,-6.8083,-6.8083,-6.8014,-6.7256,-6.6842,-6.6462,-6.5152,-6.4565,-6.4289,-6.3772,-6.36,-6.36,-6.36,-6.3427,-6.3255,-6.3255,-6.2151,-6.0909,-6.0703,-5.9806,-5.9012,-5.9012,-5.9012,-5.9012,-5.9012,-5.8187,-5.7017,-5.5662,-5.4322,-5.2983,-5.1707,-5.1329,-5.1199,-5.1199,-5.1199,-5.1005,-5.0487,-5.0228,-4.9742,-4.8738,-4.7961,-4.7346,-4.6925,-4.6892,-4.6892,-4.6892,-4.6892,-4.6892,-4.6892,-4.703,-4.7268,-4.7605,-4.7504,-4.7504,-4.7605,-4.7371,-4.7134,-4.6996,-4.6996,-4.6738,-7.186,-7.4294,-7.5279,-7.0922,-6.704,-6.2968,-5.7971,-5.2362,-4.777,-4.6141,-4.3929,-4.2308,-4.2308,-4.2308,-4.2573,-4.3393,-4.4821,-4.6676,-4.9008,-5.2753,-5.6169,0.0,0.0,-6.5304,-6.6874,-7.055,0.0,0.0,0.0,0.0,-7.5225,-7.5225,-7.5225,-7.5225,-7.5225,-7.5225,-7.5225,-7.4782,-7.4479,-7.4287,-7.3931,-7.3072,-7.1862,-7.1065,-7.0182,0.0,0.0,0.0,0.0,-6.8083,-6.8083,-6.8083,-6.8083,-6.8083,-6.8014,-6.7256,-6.6531,-6.5773,-6.4979,-6.422,-6.36,-6.36,-6.36,-6.36,-6.36,-6.3082,-6.2496,-6.2496,-6.1392,-6.0013,-5.9254,-5.9012,-5.9012,-5.9012,-5.9012,-5.9012,-5.9012,-5.8187,-5.7153,-5.6368,-5.4655,-5.3148,-5.2324,-5.162,-5.1199,-5.1199,-5.1199,-5.1199,-5.1167,-5.0552,-5.0098,-5.0098,-4.9418,-4.8414,-4.6989,-4.6892,-4.6892,-4.6892,-4.6892,-4.6892,-4.6892,-4.6892,-4.7032,-4.7404,-4.7098,-4.7098,-4.7404,-4.7098,-4.6996,-4.7201,-4.7201,-4.7301,-6.7753,-7.0494,-7.1982,-6.8061,-6.5226,-6.1901,-5.6196,-5.1426,-4.7592,-4.5427,-4.3536,-4.2308,-4.2308,-4.2308,-4.2537,-4.3393,-4.4335,-4.5976,-4.8901,-5.2218,0.0,-5.7667,-6.2378,-6.6482,0.0,0.0,0.0,0.0,0.0,0.0,0.0,-7.5225,-7.5225,-7.5225,-7.5225,-7.5225,-7.5225,-7.4782,-7.4402,-7.4018,-7.3133,-7.2308,-7.1587,-7.0309,0.0,0.0,0.0,0.0,0.0,-6.8083,-6.8083,-6.8083,-6.8083,-6.8083,-6.7945,-6.6704,-6.6083,-6.5704,-6.4393,-6.3807,-6.36,-6.36,-6.36,-6.36,-6.36,-6.3427,-6.3013,-6.1979,-6.1323,-6.0634,-5.9357,-5.9012,-5.9012,-5.9012,-5.9012,-5.9012,-5.9012,-5.8634,-5.7978,-5.6687,-5.5819,-5.4911,-5.3591,-5.2671,-5.2172,-5.2172,-5.1637,-5.1199,-5.1199,-5.0973,-5.0649,-5.0163,-4.9904,-4.9192,-4.7767,-4.767,-4.7443,-4.6925,-4.6892,-4.6892,-4.6892,-4.6892,-4.6961,-4.7064,-4.6961,-4.6961,-4.7064,-4.7098,-4.7302,-4.7671,-4.7934,-4.8032,-6.3163,-6.6196,-6.7598,-6.4011,-6.1715,-5.8933,-5.3605,-4.977,-4.6676,-4.4607,-4.3179,-4.2308,-4.2308,-4.2308,-4.2465,-4.2965,-4.3929,-4.5477,-4.8068,-5.1422,0.0,-5.8881,0.0,0.0,0.0,0.0,0.0,0.0,0.0,0.0,0.0,-7.4475,-7.4297,-7.4297,-7.4795,-7.4936,-7.4651,-7.4244,-7.3649,-7.291,-7.2136,-7.1353,-7.0636,-6.9704,0.0,0.0,0.0,0.0,0.0,-6.8083,-6.8083,-6.8083,-6.8083,-6.8083,-6.7911,-6.6428,-6.5876,-6.5669,-6.4117,-6.36,-6.36,-6.36,-6.36,-6.36,-6.36,-6.3393,-6.2841,-6.1323,-6.0875,-6.0599,-5.9323,-5.9012,-5.9012,-5.9012,-5.9012,-5.9012,-5.9012,-5.8909,-5.8459,-5.7311,-5.6754,-5.6054,-5.4957,-5.403,-5.3283,-5.2838,-5.2258,-5.168,-5.1269,-5.1199,-5.1005,-5.0552,-5.0519,-5.0066,-4.89,-4.8544,-4.8093,-4.7418,-4.7316,-4.7218,-4.6996,-4.6927,-4.6892,-4.6892,-4.6892,-4.6892,-4.6892,-4.7235,-4.7571,-4.7902,-4.8321,-4.8543,0.0,-6.1284,-6.2479,-5.9211,-5.6987,-5.4592,-5.0577,-4.7631,0.0,-4.3822,-4.2858,-4.2308,-4.2308,-4.2343,-4.2415,-4.2415,-4.375,-4.5356,-4.6926,-5.0744,-5.5696,0.0,-6.4662,0.0,-7.0371,0.0,0.0,0.0,0.0,0.0,0.0,-7.3226,-7.2798,-7.2798,-7.408,-7.4361,-7.3578,-7.3206,-7.2401,-7.128,-7.1011,-7.0347,-6.9291,-6.9222,0.0,0.0,0.0,0.0,0.0,-6.8083,-6.8083,-6.8083,-6.8083,-6.8083,-6.7911,-6.6428,-6.5876,-6.5669,-6.4117,-6.36,-6.36,-6.36,-6.36,-6.36,-6.36,-6.3117,-6.2255,-6.0771,-6.0323,-6.0082,-5.9288,-5.9047,-5.9012,-5.9012,-5.9012,-5.9012,-5.9012,-5.8909,-5.8701,-5.8244,-5.7452,-5.6797,-5.6362,-5.5506,-5.4516,-5.3453,-5.3062,-5.2501,-5.1437,-5.1269,-5.1199,-5.1199,-5.1199,-5.0908,-5.0228,-4.9515,-4.8878,-4.8341,-4.8199,-4.7874,-4.7365,-4.7129,-4.6959,-4.6892,-4.6892,-4.6927,-4.6927,-4.7437,-4.7803,-4.7934,-4.8482,-4.8827,-5.1863,0.0,-5.7545,-5.5894,-5.4217,-5.221,0.0,-4.665,-4.4621,-4.3693,-4.2858,-4.2308,-4.2308,-4.2787,-4.3215,-4.3215,-4.5035,-4.6998,-4.8568,-5.4242,-6.0165,-6.5268,-6.741,-6.9479,-7.2013,0.0,0.0,0.0,0.0,-7.3083,0.0,-7.2905,-7.2798,-7.2798,-7.2867,-7.2791,-7.265,-7.2242,-7.1718,-7.1085,-7.0292,-6.9708,-6.9256,-6.8635,0.0,0.0,0.0,0.0,-6.8083,-6.8083,-6.8083,-6.8083,-6.8083,-6.8083,-6.7911,-6.6428,-6.5876,-6.5669,-6.4117,-6.36,-6.36,-6.36,-6.36,-6.36,-6.36,-6.3462,-6.3151,-6.222,-6.153,-6.0875,-6.0116,-5.9461,-5.9012,-5.9012,-5.9012,-5.9012,-5.9012,-5.8978,-5.884,-5.8456,-5.8249,-5.7899,-5.7355,-5.6459,-5.5666,-5.5127,-5.3827,-5.2735,-5.2308,-5.1637,-5.1199,-5.1199,-5.1199,-5.1102,-5.094,-5.0408,-4.9913,-4.9544,-4.9477,-4.9148,-4.8426,-4.829,-4.7789,-4.6927,-4.6892,-4.6996,-4.7132,-4.7504,-4.7869,-4.8162,-4.8762,-4.9165,-4.9575,-5.1509,-5.2786,-5.1825,-5.094,-4.9638,-4.7114,-4.5285,-4.3872,-4.3108,-4.2608,-4.2394,-4.2787,-4.35,-4.4121,-4.45,-4.6534,-4.9353,0.0,0.0,-6.3698,-6.8088,-6.9658,-7.1192,0.0,0.0,0.0,0.0,0.0,0.0,0.0,-7.1942,-7.1727,-7.1727,-7.141,-7.1335,-7.158,-7.1206,-7.0577,-6.9806,-6.9307,-6.8937,-6.8704,-6.829,-6.8083,0.0,0.0,0.0,-6.8083,-6.8083,-6.8083,-6.8083,-6.8083,-6.8083,-6.7945,-6.6807,-6.6186,-6.5704,-6.4496,-6.3876,-6.36,-6.36,-6.36,-6.36,-6.36,-6.36,-6.3427,-6.2703,-6.191,-6.1116,-6.0392,-5.9599,-5.9012,-5.9012,-5.9012,-5.9012,-5.9012,-5.9012,-5.8944,-5.8736,-5.8666,-5.849,-5.792,-5.7361,-5.6701,-5.5996,-5.4962,-5.3935,-5.2946,-5.2328,-5.1782,-5.1269,-5.1199,-5.1199,-5.1199,-5.1108,-5.088,-5.0545,-5.0479,-5.0218,-4.9591,-4.932,-4.8648,-4.741,-4.7054,-4.6961,-4.7064,-4.7404,-4.7704,-4.7967,-4.8671,-4.9104,-4.9249,-4.9523,-4.9103,-4.8686,-4.8495,-4.7816,-4.5543,-4.4364,-4.3543,-4.2828,-4.2578,-4.2736,-4.3536,-4.4371,-4.5249,-4.6034,-4.8461,0.0,-5.821,-6.2241,-6.6018,-6.9872,-7.1121,0.0,0.0,0.0,0.0,0.0,0.0,0.0,0.0,-7.0837,-7.0444,-7.0444,-7.0062,-7.006,-7.0511,-7.0173,-6.9443,-6.8358,-6.8358,-6.8241,-6.8083,-6.8083,-6.8083,0.0,0.0,0.0,-6.8083,-6.8083,-6.8083,-6.8083,-6.8083,-6.8083,-6.8014,-6.7256,-6.66,-6.5911,-6.5014,-6.422,-6.36,-6.36,-6.36,-6.36,-6.36,-6.36,-6.3462,-6.2841,-6.2082,-6.1323,-6.0565,-5.9771,-5.915,-5.9047,-5.9012,-5.9012,-5.9012,-5.9012,-5.9012,-5.9012,-5.8909,-5.8701,-5.8209,-5.8065,-5.7679,-5.66,-5.6178,-5.5384,-5.3684,-5.3226,-5.2632,-5.1539,-5.1367,-5.1372,-5.1312,-5.1688,-5.1825,-5.1518,-5.1519,-5.1256,-5.066,-5.0055,-4.921,-4.8132,-4.7316,-4.6892,-4.6892,-4.7168,-4.7404,-4.7638,-4.8258,-4.8733,-4.852,-4.8981,-4.905,-5.0056,-4.99,-4.9036,-4.7348,-4.5839,-4.4683,-4.4492,-4.3862,-4.3626,-4.4285,-4.5641,-4.689,-4.7699,-5.1458,-5.5812,0.0,0.0,-6.5839,-6.9087,0.0,0.0,0.0,0.0,0.0,0.0,0.0,0.0,0.0,-7.0412,-7.0237,-7.0237,-6.9884,-6.9559,-6.9295,-6.9031,-6.8656,-6.8123,-6.8123,-6.8123,-6.8083,-6.8083,-6.8083,0.0,0.0,-6.8083,-6.8083,-6.8083,-6.8083,-6.8083,-6.8083,-6.8083,-6.8014,-6.7256,-6.6911,-6.6635,-6.5186,-6.422,-6.36,-6.36,-6.36,-6.36,-6.36,-6.36,-6.3565,-6.3462,-6.2875,-6.2117,-6.1323,-6.0565,-5.984,-5.9185,-5.9012,-5.9012,-5.9012,-5.9012,-5.9012,-5.9012,-5.8978,-5.8806,-5.8278,-5.8455,-5.8385,-5.7493,-5.6844,-5.6121,-5.5331,-5.4387,-5.3389,-5.2406,-5.227,-5.2118,-5.1754,-5.2164,-5.2559,-5.2772,-5.284,-5.2572,-5.1866,-4.9991,-4.8822,-4.8484,-4.7456,-4.6892,-4.6892,-4.6961,-4.7098,-4.7268,-4.7671,-4.8032,-4.8749,-4.9112,-4.9307,-5.0859,-5.1352,-5.1121,-4.9981,-4.8493,-4.7291,-4.715,-4.605,-4.5435,-4.6528,-4.7911,-4.9995,-5.335,-5.6062,-5.8988,-6.2521,-6.4662,-6.691,0.0,0.0,0.0,0.0,0.0,0.0,0.0,0.0,0.0,0.0,0.0,-7.0167,-7.0062,-6.9634,-6.9268,-6.8857,-6.8628,-6.8397,-6.8083,-6.8083,-6.8083,-6.8083,-6.8083,-6.8083,-6.8083,0.0,-6.7876,-6.7532,-6.7945,-6.7876,-6.7532,-6.7945,-6.8083,-6.8014,-6.7256,-6.698,-6.6773,-6.5221,-6.4462,-6.4117,-6.3738,-6.36,-6.36,-6.36,-6.36,-6.36,-6.36,-6.3048,-6.2393,-6.2048,-6.1082,-6.0116,-5.9737,-5.9323,-5.9012,-5.9012,-5.9012,-5.9012,-5.9012,-5.8909,-5.8702,-5.8209,-5.8314,-5.8314,-5.792,-5.7541,-5.6915,-5.6033,-5.5364,-5.4435,-5.2978,-5.2922,-5.2811,-5.2373,-5.2696,-5.3111,-5.355,-5.3617,-5.3381,-5.2808,-5.0693,-4.942,-4.9143,-4.7651,-4.6892,-4.6892,-4.6892,-4.6961,-4.7064,-4.7404,-4.7671,-4.8857,-4.8976,-4.9111,-5.1025,-5.2212,-5.2791,-5.2175,-5.1057,-5.0138,-4.9997,-4.8841,-4.8135,-4.9149,-5.0581,-5.3242,-5.8174,-5.9666,-6.1236,-6.4198,-6.5982,0.0,0.0,0.0,0.0,0.0,0.0,0.0,0.0,0.0,0.0,0.0,0.0,-7.0062,-6.9849,-6.9452,-6.9045,-6.8628,-6.8474,-6.828,-6.8083,-6.8083,-6.8083,-6.8083,-6.8083,-6.8014,-6.7842,-6.7842,-6.7428,-6.6773,-6.7325,-6.7325,-6.7049,-6.7601,-6.7945,-6.8014,-6.7463,-6.7152,-6.6807,-6.5635,-6.5014,-6.46,-6.4048,-6.3738,-6.36,-6.36,-6.36,-6.36,-6.36,-6.3186,-6.2703,-6.253,-6.1599,-6.0703,-6.0496,-5.9875,-5.9288,-5.9288,-5.915,-5.9012,-5.9012,-5.8944,-5.8736,-5.828,-5.8314,-5.835,-5.8209,-5.8135,-5.7642,-5.656,-5.627,-5.5543,-5.3841,-5.3857,-5.3787,-5.3379,-5.3483,-5.372,-5.4078,-5.411,-5.3948,-5.3583,-5.1464,-5.0121,-4.9739,-4.7849,-4.6892,-4.6892,-4.6892,-4.6892,-4.6927,-4.7134,-4.7371,-4.8255,-4.796,-4.8016,-5.0353,-5.1956,-5.3002,-5.3093,-5.2904,-5.2709,-5.2638,-5.2308,-5.2022,-5.1874,-5.3519,-5.5955,-5.9273,-6.0487,-6.1843,-6.4269,0.0,0.0,0.0,0.0,0.0,0.0,0.0,0.0,0.0,0.0,0.0,0.0,0.0,0.0,-6.9634,-6.9266,-6.8892,-6.8435,-6.8397,-6.828,-6.8083,-6.8083,-6.8083,-6.8083,-6.8083,-6.7738,-6.7083,-6.7083,-6.6635,-6.5979,-6.6014,-6.6428,-6.7014,-6.7049,-6.7497,-6.8083,-6.8049,-6.7566,-6.698,-6.6876,-6.5876,-6.4703,-6.4634,-6.4152,-6.36,-6.36,-6.36,-6.36,-6.36,-6.3565,-6.3358,-6.2668,-6.2393,-6.2151,-6.1392,-6.0634,-6.0116,-6.0116,-5.953,-5.9012,-5.9012,-5.8978,-5.8875,-5.8525,-5.8736,-5.884,-5.8525,-5.8455,-5.8137,-5.723,-5.7001,-5.6545,-5.5521,-5.5609,-5.552,-5.4974,-5.4972,-5.4797,-5.45,-5.4463,-5.4303,-5.398,-5.183,-5.0527,-5.0154,-4.7987,-4.6892,-4.6892,-4.6892,-4.6892,-4.6892,-4.6927,-4.703,-4.8863,-4.8438,-4.8605,-5.0713,-5.222,-5.3487,-5.458,-5.5153,-5.5735,-5.6644,-5.6218,-5.5499,-5.4886,-5.6187,-5.8274,-6.095,-6.2449,-6.3948,0.0,0.0,0.0,0.0,0.0,0.0,0.0,0.0,0.0,0.0,0.0,0.0,0.0,0.0,0.0,-6.9416,-6.9045,-6.8663,-6.8201,-6.8201,-6.8162,-6.8083,-6.8083,-6.8083,-6.8083,-6.8083,-6.7704,-6.698,-6.698,-6.629,-6.5186,-6.5669,-6.5773,-6.5669,-6.6635,-6.7428,-6.8049,-6.7566,-6.7221,-6.6842,-6.5911,-6.5186,-6.4634,-6.4152,-6.3807,-6.36,-6.36,-6.36,-6.36,-6.36,-6.36,-6.3531,-6.3255,-6.2841,-6.2393,-6.2117,-6.1461,-6.0771,-6.0289,-5.9944,-5.9599,-5.9116,-5.9012,-5.8944,-5.884,-5.8909,-5.8944,-5.8806,-5.8631,-5.8207,-5.7297,-5.7181,-5.6838,-5.5996,-5.6219,-5.6372,-5.6161,-5.6159,-5.5881,-5.5221,-5.477,-5.4367,-5.4143,-5.2468,-5.1397,-5.1023,-4.9307,-4.8329,-4.822,-4.822,-4.822,-4.822,-4.822,-4.8256,-4.925,-4.8564,-4.8695,-5.0193,-5.1562,-5.3171,-5.5622,-5.7192,-5.8518,-5.9826,-5.931,-5.8533,-5.8335,-5.8702,-5.988,0.0,-6.352,0.0,0.0,0.0,0.0,0.0,0.0,0.0,0.0,0.0,0.0,0.0,0.0,0.0,0.0,0.0,0.0,0.0,-6.8932,-6.8513,-6.8083,-6.8083,-6.798,-6.7738,-6.798,-6.8083,-6.8083,-6.8083,-6.7566,-6.6635,-6.6635,-6.5911,-6.4703,-6.5014,-6.4979,-6.4841,-6.6117,-6.6945,-6.7325,-6.6842,-6.6635,-6.6497,-6.5428,-6.491,-6.46,-6.4117,-6.3772,-6.36,-6.36,-6.36,-6.36,-6.36,-6.36,-6.36,-6.36,-6.322,-6.2841,-6.2841,-6.2255,-6.153,-6.1047,-6.0737,-6.0392,-5.984,-5.9737,-5.9737,-5.9737,-5.953,-5.9392,-5.9392,-5.8873,-5.8207,-5.7297,-5.7256,-5.7126,-5.6701,-5.7157,-5.7391,-5.7185,-5.715,-5.6702,-5.5667,-5.515,-5.464,-5.4207,-5.2936,-5.2068,-5.1697,-5.0243,-4.939,-4.9209,-4.9066,-4.8994,-4.8994,-4.8994,-4.8994,-4.9214,-4.8176,-4.7907,-4.8674,-4.9917,-5.2032,-5.6101,-5.8901,-6.0877,-6.1855,-6.1382,-6.1154,-6.2141,-6.1022,-6.0701,-6.302,-6.3413,0.0,0.0,0.0,0.0,0.0,0.0,0.0,0.0,0.0,0.0,0.0,0.0,0.0,0.0,0.0,0.0,0.0,-6.8932,-6.8513,-6.8083,-6.8083,-6.7704,-6.7014,-6.7738,-6.8083,-6.8083,-6.8083,-6.729,-6.5876,-6.5876,-6.5428,-6.4634,-6.391,-6.4048,-6.4772,-6.5566,-6.5876,-6.5876,-6.5876,-6.5876,-6.5876,-6.5876,-6.5359,-6.4703,-6.4703,-6.4186,-6.36,-6.36,-6.36,-6.36,-6.36,-6.36,-6.36,-6.36,-6.36,-6.36,-6.36,-6.3048,-6.2496,-6.2496,-6.1875,-6.1323,-6.1289,-6.1289,-6.1289,-6.1289,-6.0703,-6.022,-6.0185,-5.9216,-5.8171,-5.7297,-5.7256,-5.7439,-5.7845,-5.8562,-5.8702,-5.7978,-5.7909,-5.7253,-5.5736,-5.5632,-5.5191,-5.4242,-5.3196,-5.2464,-5.2101,-5.0656,-4.9809,-4.9599,-4.9209,-4.903,-4.903,-4.903,-4.903,-5.0102,-4.9951,-5.0636,-5.1974,-5.4209,-5.6768,-5.9381,-6.0765,-6.2303,-6.5024,-6.4367,-6.3429,-6.3857,-6.3056,-6.277,-6.4055,-6.4733,0.0,0.0,0.0,0.0,0.0,0.0,0.0,0.0,0.0,0.0,0.0,0.0,0.0,0.0,0.0,0.0,0.0,-6.8615,-6.8513,-6.8083,-6.7566,-6.7221,-6.698,-6.6669,-6.6807,-6.7325,-6.7842,-6.729,-6.5911,-6.6428,-6.5911,-6.4669,-6.4462,-6.4496,-6.4703,-6.4945,-6.5393,-6.5807,-6.5255,-6.5048,-6.4979,-6.4462,-6.4117,-6.391,-6.391,-6.3772,-6.36,-6.36,-6.36,-6.36,-6.36,-6.36,-6.36,-6.36,-6.36,-6.36,-6.36,-6.3427,-6.3117,-6.2599,-6.2289,-6.1979,-6.1392,-6.1289,-6.1289,-6.1289,-6.1116,-6.0806,-6.0289,-5.9662,-5.8785,-5.7435,-5.7256,-5.7406,-5.7845,-5.8562,-5.8909,-5.8702,-5.8668,-5.8254,-5.7288,-5.6736,-5.5841,-5.4468,-5.3871,-5.3476,-5.3245,-5.23,-5.1713,-5.1501,-5.1143,-5.0994,-5.0994,-5.0994,-5.0994,-5.1157,-5.1881,-5.3237,-5.4871,-5.7629,-6.0707,-6.3608,-6.4217,-6.4875,-6.7466,-6.6475,-6.5232,-6.5506,-6.4376,0.0,-6.4912,0.0,0.0,0.0,0.0,0.0,0.0,0.0,0.0,0.0,0.0,0.0,0.0,0.0,0.0,0.0,0.0,0.0,0.0,-6.865,-6.8513,-6.8083,-6.7359,-6.6842,-6.6531,-6.6083,-6.5945,-6.6117,-6.7187,-6.7187,-6.6359,-6.6807,-6.6117,-6.4703,-6.5048,-6.4807,-6.4255,-6.4255,-6.4565,-6.4945,-6.4772,-6.4496,-6.422,-6.4083,-6.3841,-6.36,-6.36,-6.36,-6.36,-6.36,-6.36,-6.36,-6.36,-6.36,-6.36,-6.36,-6.36,-6.36,-6.36,-6.36,-6.3462,-6.2903,-6.2908,-6.2772,-6.2215,-6.2148,-6.222,-6.222,-6.1979,-6.1598,-6.1079,-5.9884,-5.8541,-5.7239,-5.7143,-5.7372,-5.7845,-5.8562,-5.9012,-5.9012,-5.9012,-5.8702,-5.7943,-5.7495,-5.6564,-5.5012,-5.4475,-5.411,-5.3915,-5.3315,-5.2939,-5.2765,-5.2378,-5.22,-5.22,-5.22,-5.22,-5.2205,-5.3659,-5.5466,-5.7249,-6.0252,-6.3924,-6.8294,-6.8531,-6.81,-6.9048,-6.7722,-6.6536,-6.701,-6.5197,-6.4126,0.0,0.0,0.0,0.0,0.0,0.0,0.0,0.0,0.0,0.0,0.0,0.0,0.0,0.0,0.0,0.0,0.0,0.0,-6.9165,-6.8898,-6.8513,-6.8083,-6.729,-6.6531,0.0,-6.5738,-6.5324,-6.4738,-6.6221,-6.6945,-6.698,-6.6911,-6.6083,-6.4876,-6.56,-6.4979,-6.36,-6.36,-6.36,-6.3669,-6.4427,-6.422,-6.3703,-6.4427,-6.422,-6.36,-6.36,-6.36,-6.36,-6.36,-6.36,-6.36,-6.36,-6.36,-6.36,-6.36,-6.36,-6.36,-6.36,-6.3563,-6.3526,-6.3302,-6.3377,-6.3452,-6.3265,-6.3414,-6.3563,-6.36,-6.3048,-6.2456,-6.213,-5.9789,-5.7737,-5.6917,-5.7025,-5.7372,-5.7845,-5.8562,-5.9012,-5.9012,-5.9012,-5.8737,-5.8047,-5.7943,-5.7288,-5.5874,-5.5046,-5.4468,-5.4239,-5.3915,-5.3617,-5.3449,-5.3043,-5.2871,-5.2871,-5.2871,-5.2871,-5.1954,-5.3756,-5.5726,-5.8661,-6.2535,-6.6648,-7.0612,-7.0476,-6.9369,-6.8987,-6.8007,-6.7294,-6.7761,-6.6446,0.0,0.0,0.0,0.0,0.0,0.0,0.0,0.0,0.0,0.0,0.0,0.0,0.0,0.0,0.0,0.0,0.0,0.0,0.0,-6.8392,-6.8581,-6.8513,-6.8083,-6.6773,-6.6048,0.0,-6.4669,-6.4289,-6.4738,-6.5704,-6.6428,-6.6945,-6.6393,-6.5945,-6.5635,-6.5807,-6.4979,-6.36,-6.36,-6.36,-6.3669,-6.4427,-6.422,-6.3703,-6.4427,-6.422,-6.3563,-6.3414,-6.3452,-6.3563,-6.3414,-6.3489,-6.36,-6.36,-6.36,-6.36,-6.36,-6.36,-6.3563,-6.3377,-6.334,-6.3265,-6.2855,-6.2813,-6.2885,-6.2779,-6.2966,-6.3227,-6.3563,-6.3314,-6.2669,-6.1371,-5.9137,-5.7549,-5.7574,-5.7358,-5.7372,-5.7845,-5.8562,-5.9012,-5.9012,-5.9012,-5.8944,-5.8771,-5.8219,-5.7771,-5.7426,-5.6115,-5.5083,-5.4465,-5.411,-5.3915,-5.3882,-5.3483,-5.3281,-5.3281,-5.3281,-5.3281,-5.162,-5.459,-5.7967,-6.3016,-6.6169,-6.8696,-7.1175,-7.1069,-7.0181,-6.9265,-6.8342,-6.7569,-6.7085,0.0,0.0,0.0,0.0,0.0,0.0,0.0,0.0,0.0,0.0,0.0,0.0,0.0,0.0,0.0,0.0,0.0,0.0,-6.8362,-6.861,-6.8527,-6.8648,-6.8166,-6.7049,-6.5876,-6.4945,-6.4255,-6.3048,-6.291,-6.3703,-6.5186,-6.6083,-6.6462,-6.6428,-6.6014,-6.5359,-6.5738,-6.4979,-6.36,-6.36,-6.36,-6.3738,-6.4841,-6.4565,-6.3772,-6.4876,-6.4493,-6.3414,-6.308,-6.3042,-6.3152,-6.3004,-6.3117,-6.3377,-6.3563,-6.36,-6.36,-6.36,-6.3526,-6.3377,-6.3042,-6.2966,-6.2817,-6.243,-6.2313,-6.2386,-6.2469,-6.2774,-6.3152,-6.3526,-6.3265,-6.2498,-6.0948,-5.9458,-5.8378,-5.8016,-5.7842,-5.7909,-5.8386,-5.8767,-5.9012,-5.9012,-5.9012,-5.9012,-5.9012,-5.8633,-5.8288,-5.7909,-5.715,-5.6184,-5.5046,-5.451,-5.4239,-5.4239,-5.4011,-5.3913,-5.3913,-5.3913,-5.3913,-5.1098,-5.5542,-6.0744,-6.7284,-6.9273,-6.99,-7.0938,-7.0937,-7.0384,-6.9332,-6.8551,-6.7659,0.0,0.0,0.0,0.0,0.0,0.0,0.0,0.0,0.0,0.0,0.0,0.0,0.0,0.0,0.0,0.0,0.0,0.0,-6.7657,-6.8152,-6.8569,-6.8935,-6.8604,-6.7607,-6.5949,-6.4979,-6.3841,-6.2496,-6.1806,-6.1841,-6.2565,-6.4565,-6.5566,-6.5704,-6.6462,-6.6083,-6.4945,-6.56,-6.5048,-6.3772,-6.3634,-6.3669,-6.3945,-6.5359,-6.4979,-6.3979,-6.5393,-6.4763,-6.3265,-6.2779,-6.2736,-6.2847,-6.2663,-6.2817,-6.3189,-6.3452,-6.3563,-6.3526,-6.3526,-6.3302,-6.3004,-6.2625,-6.2397,-6.2161,-6.1877,-6.1797,-6.1917,-6.2156,-6.2697,-6.3189,-6.3489,-6.3076,-6.2261,-6.1037,-6.0189,-5.9391,-5.8601,-5.8488,-5.8643,-5.9126,-5.9212,-5.9219,-5.9219,-5.9081,-5.9012,-5.9012,-5.9012,-5.8737,-5.8116,-5.7978,-5.7322,-5.6046,-5.515,-5.4632,-5.4494,-5.4494,-5.4494,-5.4494,-5.4494,-5.4494,-4.989,-5.5956,-6.2353,-6.7378,-6.8786,-6.9286,-7.0718,-7.0246,-6.9297,0.0,-6.8159,0.0,0.0,0.0,0.0,0.0,0.0,0.0,0.0,0.0,0.0,0.0,0.0,0.0,0.0,0.0,0.0,0.0,0.0,0.0,-6.8044,-6.8039,-6.8239,-6.8708,-6.7926,-6.7007,-6.5876,-6.4462,-6.3324,-6.2496,-6.2393,-6.2393,-6.253,-6.3462,-6.4255,-6.491,-6.5704,-6.5911,-6.5738,-6.5842,-6.5359,-6.4496,-6.3841,-6.3979,-6.4669,-6.5566,-6.5324,-6.4669,-6.5566,-6.4876,-6.3452,-6.2885,-6.3038,-6.3377,-6.2851,-6.308,-6.3489,-6.3377,-6.334,-6.3302,-6.3114,-6.2774,-6.2352,-6.2156,-6.1513,-6.0936,-6.0886,-6.1086,-6.1334,-6.1716,-6.2702,-6.3489,-6.334,-6.2966,-6.2402,-6.1902,-6.0569,-5.9647,-5.9737,-5.9452,-5.942,-5.9907,-5.9999,-6.0047,-6.0047,-5.9392,-5.9012,-5.9012,-5.9012,-5.8978,-5.8875,-5.8254,-5.7805,-5.7598,-5.6184,-5.515,-5.4494,-5.4494,-5.4494,-5.4494,-5.4494,-5.4494,-5.1496,-5.7178,-6.2324,-6.6917,-6.8011,-6.8247,-6.917,-6.9006,-6.8516,-6.8159,0.0,0.0,0.0,0.0,0.0,0.0,0.0,0.0,0.0,0.0,0.0,0.0,0.0,0.0,0.0,0.0,0.0,0.0,0.0,-6.5789,-6.6524,-6.6905,-6.7178,-6.7301,-6.6462,-6.5377,-6.3979,-6.2875,-6.1703,-6.053,-6.0978,-6.122,-6.122,-6.1979,-6.2944,-6.4152,-6.5359,-6.5635,-6.529,-6.6152,-6.6048,-6.5324,-6.5014,-6.5083,-6.5462,-6.6221,-6.5738,-6.4807,-6.56,-6.48,-6.334,-6.2813,-6.2851,-6.3038,-6.2774,-6.2851,-6.3076,-6.2966,-6.2851,-6.2659,-6.2352,-6.2037,-6.1642,-6.135,-6.0894,-6.0463,-6.0206,-6.0453,-6.0969,-6.1877,-6.2855,-6.3563,-6.3489,-6.3004,-6.2542,-6.2234,-6.1165,-6.0589,-6.0917,-6.0571,-6.0459,-6.0989,-6.0932,-6.0806,-6.0806,-6.0116,-5.9668,-5.9668,-5.9254,-5.9012,-5.9012,-5.8702,-5.8323,-5.7909,-5.6391,-5.546,-5.515,-5.4701,-5.4494,-5.4494,-5.4494,-5.4494,-5.1697,-5.6249,-6.0086,-6.4635,-6.5909,-6.6339,0.0,0.0,-6.7552,0.0,0.0,0.0,0.0,0.0,0.0,0.0,0.0,0.0,0.0,0.0,0.0,0.0,0.0,0.0,0.0,0.0,0.0,0.0,0.0,-6.4975,-6.5148,-6.553,-6.5771,-6.583,-6.4858,-6.3679,-6.2186,-6.122,-6.0151,-5.9012,-5.9806,-6.0185,-6.022,-6.0978,-6.1944,-6.3117,-6.4841,-6.5359,-6.5117,-6.6428,-6.6669,-6.6152,-6.5945,-6.5979,-6.6221,-6.6773,-6.6255,-6.5324,-6.5738,-6.4938,-6.3542,-6.2847,-6.2736,-6.2808,-6.2586,-6.2581,-6.2615,-6.2469,-6.2409,-6.2226,-6.1862,-6.1708,-6.1475,-6.1014,-6.0715,-6.0391,-5.9968,-6.0335,-6.102,-6.2116,-6.3004,-6.36,-6.3526,-6.3076,-6.2581,-6.2386,-6.1709,-6.1375,-6.175,-6.1526,-6.154,-6.2036,-6.1794,-6.1599,-6.1599,-6.0909,-6.0461,-6.0461,-5.9737,-5.9323,-5.9323,-5.9116,-5.8737,-5.8185,-5.6874,-5.6115,-5.5908,-5.515,-5.4805,-5.4805,-5.4598,-5.4598,-4.8212,-5.1388,-5.4752,-5.9564,-6.168,-6.3158,0.0,0.0,0.0,0.0,0.0,0.0,0.0,0.0,0.0,0.0,0.0,0.0,0.0,0.0,0.0,0.0,0.0,0.0,0.0,0.0,0.0,0.0,0.0,-6.3982,-6.4706,-6.412,-6.4085,-6.4738,-6.3395,-6.2186,-6.1358,-5.9875,-5.9081,-5.9012,-5.9806,-6.0185,-6.022,-6.0978,-6.1358,-6.153,-6.3807,-6.5152,-6.5876,-6.6669,-6.698,-6.6876,-6.6152,-6.6324,-6.6945,-6.698,-6.6945,-6.6773,-6.6117,-6.5324,-6.4418,-6.3124,-6.2962,-6.3152,-6.2576,-6.2347,-6.2274,-6.2076,-6.2219,-6.2341,-6.2122,-6.2233,-6.2256,-6.1524,-6.1043,-6.0704,-6.0412,-6.102,-6.1756,-6.2195,-6.3004,-6.3526,-6.334,-6.2928,-6.2547,-6.242,-6.1991,-6.1756,-6.1957,-6.2285,-6.2634,-6.2931,-6.2655,-6.2427,-6.2427,-6.1703,-6.1254,-6.1254,-6.0565,-6.0151,-6.0151,-5.9426,-5.8978,-5.8944,-5.8185,-5.746,-5.6736,-5.5943,-5.5563,-5.5529,-5.4839,-5.4874,-4.5401,-4.8383,-5.1607,-5.5365,-5.7787,-5.9737,-6.1593,-6.3163,0.0,0.0,0.0,0.0,0.0,0.0,0.0,0.0,0.0,0.0,0.0,0.0,0.0,0.0,0.0,0.0,0.0,0.0,0.0,0.0,0.0,0.0,-6.3289,-6.3013,-6.2772,-6.253,-6.153,-6.0634,-5.984,-5.9288,-5.9012,-5.9012,-5.9288,-5.9426,-5.9461,-5.9702,-6.0116,-6.0703,-6.2496,-6.3703,-6.4496,-6.5773,-6.6566,-6.6945,-6.6704,-6.7049,-6.7704,-6.7704,-6.7394,-6.6945,-6.6704,-6.5696,-6.4404,-6.367,-6.3067,-6.2649,-6.2609,-6.2501,-6.2397,-6.249,-6.2524,-6.2377,-6.1982,-6.1955,-6.1995,-6.169,-6.1568,-6.1458,-6.1543,-6.1513,-6.1554,-6.1837,-6.262,-6.3189,-6.3114,-6.2736,-6.2542,-6.277,-6.2308,-6.2116,-6.2736,-6.2851,-6.3004,-6.3377,-6.3285,-6.3186,-6.3186,-6.2496,-6.2048,-6.2048,-6.0875,-6.0185,-6.0185,-5.9426,-5.9012,-5.9012,-5.8737,-5.8254,-5.7495,-5.6219,-5.5598,-5.5598,-5.4839,-5.4908,-4.2516,-4.512,-4.7973,-5.0577,-5.3242,-5.5669,-5.7525,0.0,0.0,0.0,0.0,0.0,0.0,0.0,0.0,0.0,0.0,0.0,0.0,0.0,0.0,0.0,0.0,0.0,0.0,0.0,0.0,0.0,0.0,0.0,-6.253,-6.2013,-6.1358,-6.0565,-6.0047,-5.953,-5.9012,-5.9012,-5.9012,-5.9012,-5.9012,-5.9012,-5.9012,-5.9288,-5.9702,-6.0289,-6.1806,-6.291,-6.3703,-6.5255,-6.6324,-6.698,-6.698,-6.7428,-6.8083,-6.8083,-6.7773,-6.7325,-6.7005,-6.6053,-6.4811,-6.4143,-6.3383,-6.2717,-6.2816,-6.2689,-6.2491,-6.2651,-6.2671,-6.2554,-6.2269,-6.2178,-6.2178,-6.2178,-6.1983,-6.1867,-6.2003,-6.1928,-6.1874,-6.2158,-6.2771,-6.3221,-6.2983,-6.268,-6.2533,-6.2654,-6.2391,-6.243,-6.3114,-6.3189,-6.3302,-6.3563,-6.36,-6.36,-6.36,-6.3151,-6.2841,-6.2841,-6.1668,-6.084,-6.0565,-5.984,-5.9288,-5.9012,-5.9012,-5.8771,-5.8288,-5.7012,-5.6391,-5.6357,-5.5632,-5.5667,0.0,0.0,0.0,-4.5285,0.0,0.0,-5.3252,0.0,0.0,0.0,0.0,0.0,0.0,0.0,0.0,0.0,0.0,0.0,0.0,0.0,0.0,0.0,0.0,0.0,0.0,0.0,0.0,0.0,0.0,-6.2461,-6.2461,-6.0978,-5.9806,-5.9047,-5.9012,-5.9012,-5.9012,-5.9012,-5.9012,-5.9012,-5.9012,-5.9012,-5.9081,-5.984,-6.022,-6.0323,-6.1841,-6.291,-6.3669,-6.5221,-6.629,-6.6945,-6.698,-6.7428,-6.8083,-6.8083,-6.8083,-6.794,-6.7054,-6.6382,-6.5766,-6.457,-6.3877,-6.342,-6.3272,-6.2881,-6.2495,-6.2528,-6.2737,-6.2923,-6.2923,-6.2923,-6.2923,-6.2923,-6.2404,-6.1854,-6.1854,-6.2395,-6.2892,-6.3109,-6.3506,-6.3568,-6.294,-6.2773,-6.2554,-6.2091,-6.2352,-6.2702,-6.2966,-6.3377,-6.36,-6.36,-6.36,-6.36,-6.36,-6.36,-6.36,-6.36,-6.291,-6.2117,-6.1323,-6.0599,-5.9806,-5.9047,-5.9012,-5.9012,-5.9012,-5.8254,-5.7909,-5.7874,-5.7185,-5.7219,-3.9075,0.0,0.0,0.0,0.0,0.0,0.0,0.0,0.0,0.0,0.0,0.0,0.0,0.0,0.0,0.0,0.0,0.0,0.0,0.0,0.0,0.0,0.0,0.0,0.0,0.0,0.0,0.0,-6.291,-6.2255,-6.1668,-6.0185,-5.9254,-5.9012,-5.9012,-5.9012,-5.9012,-5.9012,-5.9012,-5.9012,-5.9012,-5.9323,-5.9875,-6.0082,-6.0496,-6.1047,-6.2048,-6.2599,-6.291,-6.4427,-6.5497,-6.6255,-6.6773,-6.7428,-6.8083,-6.8083,-6.8004,-6.7805,-6.7196,-6.6343,-6.5337,-6.4338,-6.3429,-6.2826,-6.2938,-6.2887,-6.288,-6.3432,-6.3631,-6.37,-6.37,-6.37,-6.37,-6.37,-6.3538,-6.3408,-6.3408,-6.3548,-6.3499,-6.2825,-6.3066,-6.3302,-6.3102,-6.2773,-6.2557,-6.2757,-6.2606,-6.262,-6.3152,-6.3302,-6.3452,-6.36,-6.36,-6.36,-6.36,-6.36,-6.36,-6.36,-6.291,-6.2117,-6.1323,-6.0599,-5.9806,-5.9047,-5.9012,-5.9012,-5.9012,-5.8254,-5.7909,-5.7909,-5.7702,-5.7702,-3.9235,-3.9825,-4.0431,-4.0574,0.0,0.0,0.0,-4.8532,0.0,0.0,0.0,0.0,0.0,0.0,0.0,0.0,0.0,0.0,0.0,0.0,0.0,0.0,0.0,0.0,0.0,0.0,0.0,-6.36,-6.2599,-6.1496,-6.0392,-5.9495,-5.9012,-5.9012,-5.9012,-5.9012,-5.9012,-5.9012,-5.9012,-5.9012,-5.9357,-5.9737,-6.022,-6.0875,-6.1392,-6.1841,-6.2599,-6.2944,-6.3082,-6.4565,-6.5462,-6.5945,-6.6704,-6.7428,-6.8083,-6.8083,-6.7965,-6.7719,-6.7154,-6.6306,-6.534,-6.4508,-6.3707,-6.316,-6.3307,-6.3344,-6.3441,-6.3894,-6.4024,-6.4024,-6.4024,-6.4024,-6.4024,-6.4024,-6.4024,-6.4024,-6.4024,-6.4024,-6.3858,-6.3258,-6.3367,-6.3448,-6.3286,-6.3089,-6.2937,-6.2716,-6.2609,-6.2566,-6.2731,-6.2889,-6.308,-6.334,-6.3526,-6.36,-6.36,-6.36,-6.36,-6.36,-6.3186,-6.2461,-6.1358,-6.0875,-6.0151,-5.9047,-5.9323,-5.9495,-5.9495,-5.8737,-5.8323,-5.829,-5.829,-5.8221,-4.0305,-4.0753,-4.1074,-4.036,-4.1645,0.0,-4.3087,-4.5262,0.0,0.0,0.0,0.0,0.0,0.0,0.0,0.0,0.0,0.0,0.0,0.0,0.0,0.0,0.0,0.0,0.0,-6.3324,-6.3324,-6.3324,-6.2013,-6.053,-5.9081,-5.9012,-5.9012,-5.9012,-5.9081,-5.915,-5.915,-5.9219,-5.9254,-5.9288,-5.9978,-6.0358,-6.0496,-6.1875,-6.253,-6.2634,-6.3324,-6.36,-6.3703,-6.5152,-6.5738,-6.5842,-6.6669,-6.7394,-6.798,-6.798,-6.789,-6.7678,-6.6988,-6.6235,-6.5537,-6.4852,-6.4365,-6.4024,-6.4024,-6.4024,-6.4024,-6.4024,-6.4024,-6.4024,-6.4024,-6.4024,-6.4024,-6.4024,-6.4024,-6.4024,-6.4024,-6.4024,-6.4024,-6.4024,-6.4024,-6.3844,-6.3427,-6.3641,-6.3485,-6.2349,-6.2441,-6.252,-6.2098,-6.2391,-6.274,-6.3004,-6.3414,-6.36,-6.36,-6.36,-6.36,-6.36,-6.3531,-6.2806,-6.1358,-6.122,-6.0496,-5.9047,-5.9702,-6.0082,-6.0047,-5.9392,-5.8978,-5.8701,-5.8701,-5.8561,-4.2802,-4.243,-4.2037,-4.1859,-4.1217,0.0,-4.059,-4.2448,0.0,0.0,0.0,0.0,0.0,0.0,0.0,0.0,0.0,0.0,0.0,0.0,0.0,0.0,0.0,0.0,0.0,-6.1737,-6.1737,-6.1737,-6.0909,-6.0013,-5.9047,-5.9012,-5.9012,-5.9012,-5.9633,-5.9978,-5.9978,-6.0565,-6.084,-6.084,-6.1013,-6.1427,-6.2048,-6.2358,-6.2806,-6.3393,-6.3531,-6.36,-6.3669,-6.4565,-6.4945,-6.5083,-6.6462,-6.7083,-6.7187,-6.7187,-6.7364,-6.7435,-6.6525,-6.5878,-6.5303,-6.4412,-6.4038,-6.4024,-6.4024,-6.4024,-6.4024,-6.4024,-6.4024,-6.4024,-6.4024,-6.4024,-6.4024,-6.4024,-6.4024,-6.4024,-6.4024,-6.4024,-6.4024,-6.4024,-6.4024,-6.3959,-6.3876,-6.3773,-6.3371,-6.2574,-6.2435,-6.2397,-6.2257,-6.2503,-6.2885,-6.3452,-6.3563,-6.36,-6.36,-6.36,-6.36,-6.36,-6.3048,-6.2289,-6.1358,-6.0737,-5.9978,-5.9047,-5.915,-5.9185,-5.9081,-5.9528,-5.9214,-5.8244,-5.8135,-5.7848,-4.5223,-4.4525,-4.3685,-4.2988,0.0,0.0,0.0,-4.1768,-4.343,0.0,0.0,0.0,0.0,0.0,0.0,0.0,0.0,0.0,0.0,0.0,0.0,0.0,0.0,0.0,0.0,-6.1289,-6.1151,-6.0771,-6.0392,-5.984,-5.9047,-5.9012,-5.9012,-5.9012,-5.9771,-6.0185,-6.0185,-6.0944,-6.1289,-6.1289,-6.1703,-6.2117,-6.2496,-6.2875,-6.3255,-6.36,-6.36,-6.36,-6.3669,-6.4393,-6.4462,-6.4324,-6.6255,-6.698,-6.7049,-6.7276,-6.7295,-6.7029,-6.6225,-6.5526,-6.493,-6.4226,-6.4024,-6.4024,-6.4024,-6.4024,-6.4024,-6.4024,-6.4024,-6.4024,-6.4024,-6.4024,-6.4024,-6.4024,-6.4024,-6.4024,-6.4024,-6.4024,-6.4024,-6.4024,-6.4024,-6.4024,-6.4024,-6.3887,-6.3453,-6.2481,-6.2486,-6.2414,-6.1924,-6.2347,-6.2813,-6.3265,-6.3489,-6.36,-6.36,-6.36,-6.3427,-6.3048,-6.2703,-6.1979,-6.0806,-6.0392,-6.0013,-5.9599,-5.9495,-5.932,-5.9037,-5.9232,-5.8812,-5.7848,-5.7588,-5.7289,-4.8032,-4.6885,-4.5563,0.0,0.0,-4.2475,0.0,0.0,0.0,-4.3228,0.0,0.0,0.0,0.0,0.0,0.0,0.0,0.0,0.0,0.0,0.0,0.0,0.0,0.0,0.0,-6.0427,-6.0185,-5.9599,-5.953,-5.9323,-5.884,-5.8944,-5.9012,-5.9012,-5.9909,-6.0427,-6.0427,-6.1289,-6.1737,-6.1737,-6.2393,-6.2703,-6.2703,-6.3324,-6.36,-6.36,-6.36,-6.36,-6.3634,-6.422,-6.4117,-6.3807,-6.5945,-6.6773,-6.6764,-6.7244,-6.7141,-6.6576,-6.5845,-6.5213,-6.461,-6.4132,-6.4024,-6.4024,-6.4024,-6.4024,-6.4024,-6.4024,-6.4024,-6.4024,-6.4024,-6.4024,-6.4024,-6.4024,-6.4024,-6.4024,-6.4024,-6.4024,-6.4024,-6.4024,-6.4024,-6.4024,-6.4024,-6.4024,-6.3617,-6.2516,-6.2605,-6.2494,-6.175,-6.2217,-6.274,-6.3114,-6.3414,-6.36,-6.36,-6.36,-6.3289,-6.253,-6.2322,-6.1598,-6.0254,-6.0047,-5.9978,-5.9943,-5.9663,-5.9447,-5.9149,-5.8702,-5.8068,-5.7331,-5.6987,-5.668,0.0,0.0,0.0,0.0,-4.4079,0.0,0.0,0.0,-4.0705,-4.081,0.0,0.0,0.0,0.0,0.0,0.0,0.0,0.0,0.0,0.0,0.0,0.0,0.0,0.0,0.0,0.0,-5.7288,-5.7185,-5.7185,-5.7426,-5.8012,-5.8668,-5.9012,-5.9012,-6.0427,-6.1185,-6.1185,-6.2599,-6.3324,-6.3324,-6.3427,-6.3462,-6.3462,-6.3565,-6.36,-6.36,-6.36,-6.36,-6.36,-6.3669,-6.3669,-6.3738,-6.5393,-6.5864,-6.5701,-6.6057,-6.6287,-6.632,-6.5404,-6.4943,-6.461,-6.4132,-6.4024,-6.4024,-6.4024,-6.4024,-6.4024,-6.4024,-6.4024,-6.4024,-6.4024,-6.4024,-6.4024,-6.4024,-6.4024,-6.4024,-6.4024,-6.4024,-6.4024,-6.4024,-6.4024,-6.4024,-6.4024,-6.4024,-6.3732,-6.2936,-6.2844,-6.2703,-6.2582,-6.2634,-6.2923,-6.3489,-6.3563,-6.36,-6.36,-6.36,-6.3289,-6.253,-6.1662,-6.0869,-6.022,-5.953,-5.9082,-5.8943,-5.8523,-5.8434,-5.8669,-5.7903,-5.7146,-5.642,-5.629,-5.5966,0.0,0.0,0.0,0.0,0.0,0.0,-4.1193,0.0,-4.1555,0.0,0.0,0.0,0.0,0.0,0.0,0.0,0.0,0.0,0.0,0.0,0.0,0.0,0.0,0.0,0.0,0.0,0.0,0.0,0.0,-5.5529,-5.7185,-5.7978,-5.8564,-5.9012,-6.0496,-6.1289,-6.1289,-6.2841,-6.36,-6.36,-6.36,-6.36,-6.36,-6.36,-6.36,-6.36,-6.36,-6.36,-6.36,-6.36,-6.36,-6.3738,-6.529,-6.5838,-6.5822,-6.6432,-6.6466,-6.6105,-6.5348,-6.4748,-6.4272,-6.4038,-6.4085,-6.4179,-6.4071,-6.4024,-6.4024,-6.4024,-6.4024,-6.4024,-6.4024,-6.4024,-6.4024,-6.4024,-6.4024,-6.4024,-6.4024,-6.4024,-6.4024,-6.4024,-6.4024,-6.4024,-6.4024,-6.4024,-6.3811,-6.3205,-6.2921,-6.2736,-6.2557,-6.2594,-6.2813,-6.3227,-6.3452,-6.36,-6.36,-6.36,-6.3046,-6.1731,-6.0206,-5.9276,-5.9005,-5.8697,-5.8491,-5.8421,-5.7993,-5.785,-5.7903,-5.7463,-5.7167,-5.7053,-5.7004,-5.688,-5.5815,0.0,0.0,0.0,0.0,0.0,0.0,0.0,0.0,0.0,0.0,0.0,0.0,0.0,0.0,0.0,0.0,0.0,0.0,0.0,0.0,0.0,0.0,0.0,0.0,0.0,0.0,0.0,0.0,0.0,-5.6357,-5.7391,-5.8254,-5.8978,-6.0496,-6.1289,-6.1289,-6.2841,-6.36,-6.36,-6.36,-6.36,-6.36,-6.36,-6.36,-6.36,-6.36,-6.36,-6.36,-6.36,-6.36,-6.3738,-6.5048,-6.5704,-6.5972,-6.6814,-6.6736,-6.6095,-6.5348,-6.4748,-6.4272,-6.4319,-6.4379,-6.4439,-6.4272,-6.4085,-6.4024,-6.4024,-6.4024,-6.4024,-6.4024,-6.4024,-6.4024,-6.4024,-6.4024,-6.4024,-6.4024,-6.4024,-6.4024,-6.4024,-6.4024,-6.4024,-6.4024,-6.4024,-6.3876,-6.3543,-6.3129,-6.2835,-6.2815,-6.2689,-6.274,-6.3152,-6.3245,-6.3289,-6.3289,-6.3082,-6.2284,-6.0654,-5.9209,-5.835,-5.8137,-5.8278,-5.8243,-5.8065,-5.7628,-5.7396,-5.7303,-5.7061,-5.7264,-5.7871,-5.7676,-5.7621,0.0,0.0,0.0,-4.8297,0.0,0.0,0.0,0.0,-4.224,0.0,0.0,0.0,0.0,0.0,-4.4069,-4.331,0.0,0.0,0.0,0.0,0.0,0.0,0.0,0.0,0.0,0.0,0.0,0.0,0.0,0.0,-5.5529,-5.7081,-5.8254,-5.8978,-6.0496,-6.1289,-6.1289,-6.2841,-6.36,-6.36,-6.36,-6.36,-6.36,-6.36,-6.36,-6.36,-6.36,-6.36,-6.36,-6.36,-6.36,-6.3669,-6.4427,-6.5221,-6.5972,-6.6814,-6.6787,-6.6278,-6.5359,-6.5,-6.4955,-6.5066,-6.5033,-6.4955,-6.4715,-6.4365,-6.4024,-6.4024,-6.4024,-6.4024,-6.4024,-6.4024,-6.4024,-6.4024,-6.4024,-6.4024,-6.4024,-6.4024,-6.4024,-6.4024,-6.4024,-6.4024,-6.4024,-6.4024,-6.3991,-6.3991,-6.3355,-6.3109,-6.3684,-6.314,-6.2923,-6.3526,-6.2944,-6.253,-6.253,-6.1806,-6.0834,-5.9434,-5.9113,-5.8736,-5.8207,-5.8561,-5.8525,-5.7918,-5.7327,-5.7083,-5.7102,-5.6726,-5.7223,-5.854,-5.7903,-5.7621,0.0,0.0,-5.4477,-5.1828,0.0,0.0,0.0,0.0,0.0,0.0,0.0,0.0,0.0,0.0,-4.732,-4.5044,-4.4251,0.0,0.0,0.0,0.0,0.0,0.0,0.0,0.0,0.0,0.0,0.0,0.0,0.0,0.0,-5.6081,-5.7529,-5.8254,-6.0254,-6.1289,-6.1289,-6.2841,-6.36,-6.36,-6.36,-6.36,-6.36,-6.36,-6.36,-6.36,-6.36,-6.36,-6.36,-6.36,-6.36,-6.3669,-6.4393,-6.4876,-6.5252,-6.6183,-6.667,-6.6745,-6.5975,-6.5625,-6.5492,-6.5702,-6.5658,-6.5404,-6.5,-6.4577,-6.4146,-6.4071,-6.4024,-6.4024,-6.4024,-6.4024,-6.4024,-6.4024,-6.4024,-6.4024,-6.4024,-6.4024,-6.4024,-6.4024,-6.4024,-6.4024,-6.4024,-6.4024,-6.4038,-6.4146,-6.385,-6.3562,-6.3581,-6.3505,-6.3188,-6.2467,-6.2454,-6.2255,-6.1737,-6.0906,-6.0073,-5.9329,-5.8759,-5.8385,-5.8137,-5.8171,-5.7954,-5.748,-5.6992,-5.6771,-5.6685,-5.6561,-5.7223,-5.8572,-5.8389,-5.8518,-6.2524,-6.0254,0.0,-5.5129,-5.2265,0.0,-4.6892,0.0,0.0,0.0,0.0,0.0,0.0,0.0,-5.0287,-4.7465,-4.5734,-4.3975,0.0,0.0,0.0,0.0,0.0,0.0,0.0,0.0,-4.8913,-4.9183,0.0,0.0,0.0,0.0,-5.646,-5.7495,-5.9978,-6.1289,-6.1289,-6.2841,-6.36,-6.36,-6.36,-6.36,-6.36,-6.36,-6.36,-6.36,-6.36,-6.36,-6.36,-6.36,-6.36,-6.3634,-6.4117,-6.4462,-6.4838,-6.6083,-6.6792,-6.7029,-6.661,-6.6354,-6.6235,-6.6397,-6.6354,-6.6105,-6.5669,-6.5045,-6.4485,-6.4319,-6.4132,-6.4024,-6.4024,-6.4024,-6.4024,-6.4024,-6.4024,-6.4024,-6.4024,-6.4024,-6.4024,-6.4024,-6.4024,-6.4024,-6.4024,-6.4024,-6.4085,-6.4286,-6.4183,-6.4057,-6.4109,-6.3998,-6.364,-6.2915,-6.2385,-6.1634,-6.0565,-5.9942,-5.9387,-5.903,-5.8694,-5.8421,-5.8244,-5.8207,-5.7954,-5.7335,-5.703,-5.6717,-5.6368,-5.6368,-5.7084,-5.844,-5.8355,-5.8907]},{"header":{"parameterUnit":"m.s-1","parameterCategory":1,"la1":30.6,"la2":29.2853,"lo1":-89.7004,"lo2":-87.6739,"dy":0.0162,"dx":0.0183,"nx":112,"ny":82,"refTime":"2026-04-27T12:00:00:Z","depth":0,"parameterNumber":3,"parameterNumberName":"V-component_of_WINDS"},"data":[0.0,0.0,0.0,0.0,0.0,0.0,0.0,0.0,0.0,0.0,0.0,0.0,0.0,0.0,0.0,0.0,0.0,0.0,0.0,0.0,0.0,0.0,0.0,0.0,0.0,0.0,0.0,0.0,0.0,0.0,0.0,0.0,0.0,0.0,0.0,0.0,0.0,0.0,0.0,0.0,0.0,0.0,0.0,0.0,0.0,0.0,0.0,0.0,0.0,0.0,0.0,0.0,0.0,0.0,0.0,0.0,0.0,0.0,0.0,0.0,0.0,0.0,0.0,0.0,0.0,0.0,0.0,0.0,0.0,0.0,0.0,0.0,0.0,0.0,0.0,0.0,0.0,0.0,0.0,0.0,0.0,0.0,0.0,0.0,0.0,0.0,0.0,0.0,0.0,0.0,2.7337,2.9965,3.3523,3.523,3.4142,3.2248,2.9848,2.7044,0.0,0.0,0.0,0.0,0.0,0.0,0.0,0.0,0.0,0.0,0.0,0.0,0.0,0.0,0.0,0.0,0.0,0.0,0.0,0.0,0.0,0.0,0.0,0.0,0.0,0.0,0.0,0.0,0.0,0.0,0.0,0.0,0.0,0.0,0.0,0.0,0.0,0.0,0.0,0.0,0.0,0.0,0.0,0.0,0.0,0.0,0.0,0.0,0.0,0.0,0.0,0.0,0.0,0.0,0.0,0.0,0.0,0.0,0.0,0.0,0.0,0.0,0.0,0.0,0.0,0.0,0.0,0.0,0.0,0.0,0.0,0.0,0.0,0.0,0.0,0.0,0.0,0.0,0.0,0.0,0.0,0.0,0.0,0.0,0.0,0.0,0.0,0.0,0.0,0.0,0.0,0.0,0.0,0.0,0.0,0.0,0.0,0.0,0.0,0.0,0.0,0.0,0.0,0.0,2.8645,3.2735,3.4935,3.5797,3.4937,3.3623,3.1512,2.8355,0.0,0.0,0.0,0.0,0.0,0.0,0.0,0.0,0.0,0.0,0.0,0.0,0.0,0.0,0.0,0.0,0.0,0.0,0.0,0.0,0.0,0.0,0.0,0.0,0.0,0.0,0.0,0.0,0.0,0.0,0.0,0.0,0.0,0.0,0.0,0.0,0.0,0.0,0.0,0.0,0.0,0.0,0.0,0.0,0.0,0.0,0.0,0.0,0.0,0.0,0.0,0.0,0.0,0.0,0.0,0.0,0.0,0.0,0.0,0.0,0.0,0.0,0.0,0.0,0.0,0.0,0.0,0.0,0.0,0.0,0.0,0.0,0.0,0.0,0.0,0.0,0.0,0.0,0.0,0.0,0.0,0.0,0.0,0.0,0.0,0.0,0.0,0.0,0.0,0.0,0.0,0.0,0.0,0.0,0.0,0.0,0.0,0.0,0.0,0.0,0.0,0.0,0.0,2.7728,3.0497,3.3211,3.4733,3.5155,3.4147,3.2735,3.0717,2.7911,2.363,0.0,0.0,0.0,0.0,0.0,0.0,0.0,0.0,0.0,0.0,0.0,0.0,0.0,0.0,0.0,0.0,0.0,0.0,0.0,0.0,0.0,0.0,0.0,0.0,0.0,0.0,0.0,0.0,0.0,0.0,0.0,0.0,0.0,0.0,0.0,0.0,0.0,0.0,0.0,0.0,0.0,0.0,0.0,0.0,0.0,0.0,0.0,0.0,0.0,0.0,0.0,0.0,0.0,0.0,0.0,0.0,0.0,0.0,0.0,0.0,0.0,0.0,0.0,0.0,0.0,0.0,0.0,0.0,0.0,0.0,0.0,0.0,0.0,0.0,0.0,0.0,0.0,0.0,0.0,0.0,0.0,0.0,0.0,0.0,0.0,0.0,0.0,0.0,0.0,0.0,0.0,0.0,0.0,0.0,0.0,0.0,0.0,0.0,0.0,0.0,0.0,0.0,2.9965,3.2001,3.323,3.4367,3.4495,3.3193,3.1579,2.958,2.7105,2.3547,0.0,0.0,0.0,0.0,0.0,0.0,0.0,0.0,0.0,0.0,0.0,0.0,0.0,0.0,0.0,0.0,0.0,0.0,0.0,0.0,0.0,0.0,0.0,0.0,0.0,0.0,0.0,0.0,0.0,0.0,0.0,0.0,0.0,0.0,0.0,0.0,0.0,0.0,0.0,0.0,0.0,0.0,0.0,0.0,0.0,0.0,0.0,0.0,0.0,0.0,0.0,0.0,0.0,0.0,0.0,0.0,0.0,0.0,0.0,0.0,0.0,0.0,0.0,0.0,0.0,0.0,0.0,0.0,0.0,0.0,0.0,0.0,0.0,0.0,0.0,0.0,0.0,0.0,0.0,0.0,0.0,0.0,0.0,0.0,0.0,0.0,0.0,0.0,0.0,0.0,0.0,0.0,0.0,0.0,0.0,0.0,0.0,0.0,0.0,0.0,0.0,0.0,3.0222,3.2423,3.3651,3.4532,3.4385,3.2771,3.1157,2.9048,2.6278,2.296,0.0,0.0,0.0,0.0,0.0,0.0,0.0,0.0,0.0,0.0,0.0,0.0,0.0,0.0,0.0,0.0,0.0,0.0,0.0,0.0,0.0,0.0,0.0,0.0,0.0,0.0,0.0,0.0,0.0,0.0,0.0,0.0,0.0,0.0,0.0,0.0,0.0,0.0,0.0,0.0,0.0,0.0,0.0,0.0,0.0,0.0,0.0,0.0,0.0,0.0,0.0,0.0,0.0,0.0,0.0,0.0,0.0,0.0,0.0,0.0,0.0,0.0,0.0,0.0,0.0,0.0,0.0,0.0,0.0,0.0,0.0,0.0,0.0,0.0,0.0,0.0,0.0,0.0,0.0,0.0,0.0,0.0,0.0,0.0,0.0,0.0,0.0,0.0,0.0,0.0,0.0,0.0,0.0,0.0,0.0,0.0,0.0,0.0,0.0,0.0,0.0,0.0,3.0057,3.2198,0.0,3.378,3.3505,3.1634,3.0222,2.8113,2.5084,0.0,0.0,0.0,0.0,0.0,0.0,0.0,0.0,0.0,0.0,0.0,0.0,0.0,0.0,0.0,0.0,0.0,0.0,0.0,0.0,0.0,0.0,0.0,0.0,0.0,0.0,0.0,0.0,0.0,0.0,0.0,0.0,0.0,0.0,0.0,0.0,0.0,0.0,0.0,0.0,0.0,0.0,0.0,0.0,0.0,0.0,0.0,0.0,0.0,0.0,0.0,0.0,0.0,0.0,0.0,0.0,0.0,0.0,0.0,0.0,0.0,0.0,0.0,0.0,0.0,0.0,0.0,0.0,0.0,0.0,0.0,0.0,0.0,0.0,0.0,0.0,0.0,0.0,0.0,0.0,0.0,0.0,0.0,0.0,0.0,0.0,0.0,0.0,0.0,0.0,0.0,0.0,0.0,0.0,0.0,0.0,0.0,0.0,0.0,0.0,0.0,0.0,2.7099,3.0114,3.215,0.0,3.3145,3.2661,3.0754,2.9379,2.727,2.4152,0.0,0.0,0.0,0.0,0.0,0.0,0.0,0.0,0.0,0.0,0.0,0.0,0.0,0.0,0.0,0.0,0.0,0.0,0.0,0.0,0.0,0.0,0.0,0.0,0.0,0.0,0.0,0.0,0.0,0.0,0.0,0.0,0.0,0.0,0.0,0.0,0.0,0.0,0.0,0.0,0.0,0.0,0.0,0.0,0.0,0.0,0.0,0.0,0.0,0.0,0.0,0.0,0.0,0.0,0.0,0.0,0.0,0.0,0.0,0.0,0.0,0.0,0.0,0.0,0.0,0.0,0.0,0.0,0.0,0.0,0.0,0.0,0.0,0.0,0.0,0.0,0.0,0.0,0.0,0.0,0.0,0.0,0.0,0.0,0.0,0.0,0.0,0.0,0.0,0.0,0.0,0.0,0.0,0.0,0.0,0.0,0.0,0.0,0.0,0.0,0.0,0.0,2.7521,3.043,3.2415,3.2933,3.2747,3.1946,3.0332,2.8777,2.6573,0.0,0.0,0.0,0.0,0.0,0.0,0.0,0.0,0.0,0.0,0.0,0.0,0.0,0.0,0.0,0.0,0.0,0.0,0.0,0.0,0.0,0.0,0.0,0.0,0.0,0.0,0.0,0.0,0.0,0.0,0.0,0.0,0.0,0.0,0.0,0.0,0.0,0.0,0.0,0.0,0.0,0.0,0.0,0.0,0.0,0.0,0.0,0.0,0.0,0.0,0.0,0.0,0.0,0.0,0.0,0.0,0.0,0.0,0.0,0.0,0.0,0.0,0.0,0.0,0.0,0.0,0.0,0.0,0.0,0.0,0.0,0.0,0.0,0.0,0.0,0.0,0.0,0.0,0.0,0.0,0.0,0.0,0.0,0.0,0.0,0.0,0.0,0.0,0.0,0.0,0.0,0.0,0.0,0.0,0.0,0.0,0.0,0.0,0.0,0.0,0.0,0.0,0.0,2.7851,3.0644,3.2711,3.3605,3.3472,3.2665,3.1058,2.9889,2.7715,2.4089,0.0,0.0,0.0,0.0,0.0,0.0,0.0,0.0,0.0,0.0,0.0,0.0,0.0,0.0,0.0,0.0,0.0,0.0,0.0,0.0,0.0,0.0,0.0,0.0,0.0,0.0,0.0,0.0,0.0,0.0,0.0,0.0,0.0,0.0,0.0,0.0,0.0,0.0,0.0,0.0,0.0,0.0,0.0,0.0,0.0,0.0,0.0,0.0,0.0,0.0,0.0,0.0,0.0,0.0,0.0,0.0,0.0,0.0,0.0,0.0,0.0,0.0,0.0,0.0,0.0,0.0,0.0,0.0,0.0,0.0,0.0,0.0,0.0,0.0,0.0,0.0,0.0,0.0,0.0,0.0,0.0,0.0,0.0,0.0,0.0,0.0,0.0,0.0,0.0,0.0,0.0,0.0,0.0,0.0,0.0,0.0,0.0,0.0,0.0,0.0,0.0,0.0,2.8273,3.1345,3.3599,3.4432,3.4152,3.3359,3.2044,3.115,2.8981,2.5111,0.0,0.0,0.0,0.0,0.0,0.0,0.0,0.0,0.0,0.0,0.0,0.0,0.0,0.0,0.0,0.0,0.0,0.0,0.0,0.0,0.0,0.0,0.0,0.0,0.0,0.0,0.0,0.0,0.0,0.0,0.0,0.0,0.0,0.0,0.0,0.0,0.0,0.0,0.0,0.0,0.0,0.0,0.0,0.0,0.0,0.0,0.0,0.0,0.0,0.0,0.0,0.0,0.0,0.0,0.0,0.0,0.0,0.0,0.0,0.0,0.0,0.0,0.0,0.0,0.0,0.0,0.0,0.0,0.0,0.0,0.0,0.0,0.0,0.0,0.0,0.0,0.0,0.0,0.0,0.0,0.0,0.0,0.0,0.0,0.0,0.0,0.0,0.0,0.0,0.0,0.0,0.0,0.0,0.0,0.0,0.0,0.0,0.0,0.0,0.0,0.0,0.0,2.8663,3.2246,3.47,3.5375,3.4881,3.4144,3.3256,3.2367,3.0333,2.6652,0.0,0.0,0.0,0.0,0.0,0.0,0.0,0.0,0.0,0.0,0.0,0.0,0.0,0.0,0.0,0.0,0.0,0.0,0.0,0.0,0.0,0.0,0.0,0.0,0.0,0.0,0.0,0.0,0.0,0.0,0.0,0.0,0.0,0.0,0.0,0.0,0.0,0.0,0.0,0.0,0.0,0.0,0.0,0.0,0.0,0.0,0.0,0.0,0.0,0.0,0.0,0.0,0.0,0.0,0.0,0.0,0.0,0.0,0.0,0.0,2.5977,0.0,0.0,0.0,0.0,0.0,0.0,0.0,0.0,0.0,0.0,0.0,0.0,0.0,0.0,0.0,0.0,0.0,0.0,0.0,0.0,0.0,0.0,0.0,0.0,0.0,0.0,0.0,0.0,0.0,0.0,0.0,0.0,0.0,0.0,0.0,0.0,0.0,0.0,0.0,0.0,0.0,2.8486,3.2117,3.4651,3.5523,3.5395,3.4861,3.3955,3.3029,3.1203,2.8134,2.465,0.0,0.0,0.0,0.0,0.0,0.0,0.0,0.0,0.0,0.0,0.0,0.0,0.0,0.0,0.0,0.0,0.0,0.0,0.0,0.0,0.0,0.0,0.0,0.0,0.0,0.0,0.0,0.0,0.0,0.0,0.0,0.0,0.0,0.0,0.0,0.0,0.0,0.0,0.0,0.0,0.0,0.0,0.0,0.0,0.0,0.0,0.0,0.0,0.0,0.0,0.0,0.0,0.0,0.0,0.0,0.0,0.0,0.0,0.0,0.0,2.701,0.0,0.0,0.0,0.0,0.0,0.0,0.0,0.0,0.0,0.0,0.0,0.0,0.0,0.0,0.0,0.0,0.0,0.0,0.0,0.0,0.0,0.0,0.0,0.0,0.0,0.0,0.0,0.0,0.0,0.0,0.0,0.0,0.0,0.0,0.0,0.0,0.0,0.0,0.0,0.0,2.8195,3.2009,3.4762,3.5746,3.5772,3.5384,3.4662,3.3749,3.206,2.9273,2.5993,0.0,0.0,0.0,0.0,0.0,0.0,0.0,0.0,0.0,0.0,0.0,0.0,0.0,0.0,0.0,0.0,0.0,0.0,0.0,0.0,0.0,0.0,0.0,0.0,0.0,0.0,0.0,0.0,0.0,0.0,0.0,0.0,0.0,0.0,0.0,0.0,0.0,0.0,0.0,0.0,0.0,0.0,0.0,0.0,0.0,0.0,0.0,0.0,0.0,0.0,0.0,0.0,0.0,3.1014,3.1045,3.1061,3.1363,3.149,3.1458,3.0648,2.9536,2.8265,2.8201,0.0,0.0,0.0,0.0,0.0,0.0,0.0,0.0,0.0,0.0,0.0,0.0,0.0,0.0,0.0,0.0,0.0,0.0,0.0,0.0,0.0,0.0,0.0,0.0,2.7598,2.7111,0.0,0.0,0.0,0.0,0.0,0.0,0.0,0.0,0.0,0.0,0.0,0.0,2.8046,3.1964,3.4862,3.5736,3.5969,3.5758,3.5255,3.4338,3.2799,3.0355,2.731,2.4638,0.0,0.0,0.0,0.0,0.0,0.0,0.0,0.0,0.0,0.0,0.0,0.0,0.0,0.0,0.0,0.0,0.0,0.0,0.0,0.0,0.0,0.0,0.0,0.0,0.0,0.0,0.0,0.0,0.0,0.0,0.0,0.0,2.9197,2.8202,0.0,0.0,0.0,0.0,0.0,0.0,0.0,0.0,0.0,0.0,0.0,0.0,0.0,3.1172,3.2523,3.319,3.3524,3.3524,3.381,3.3953,3.3953,3.4001,3.4032,3.4032,3.4207,0.0,3.0426,3.0108,0.0,0.0,0.0,0.0,0.0,0.0,0.0,0.0,0.0,0.0,0.0,0.0,0.0,0.0,0.0,0.0,0.0,0.0,0.0,0.0,0.0,0.0,3.076,3.0858,3.0991,3.1196,0.0,2.9818,2.7765,2.6118,2.4888,0.0,0.0,0.0,0.0,0.0,0.0,0.0,2.8514,3.2122,3.4731,3.5255,3.5692,3.5758,3.5255,3.4338,3.3115,3.1491,2.855,2.6013,2.407,2.1466,0.0,0.0,0.0,0.0,0.0,0.0,0.0,0.0,0.0,0.0,0.0,0.0,0.0,0.0,0.0,0.0,0.0,0.0,0.0,0.0,0.0,0.0,0.0,0.0,0.0,0.0,0.0,0.0,0.0,2.9321,2.9288,2.8785,2.8129,2.74,0.0,0.0,0.0,0.0,0.0,0.0,0.0,0.0,0.0,3.203,3.2618,3.3587,3.4986,3.5716,3.6066,3.6066,3.6225,3.6288,3.6288,3.6288,3.6177,3.6002,3.6368,3.5478,3.3683,3.2142,3.0734,2.9367,0.0,0.0,0.0,0.0,2.8129,2.8968,2.9974,3.0545,0.0,3.1002,0.0,0.0,0.0,0.0,0.0,0.0,0.0,0.0,0.0,0.0,3.2146,3.2409,3.2675,3.3041,3.3801,3.3133,3.1858,0.0,2.7997,2.6022,2.4379,0.0,0.0,0.0,0.0,2.6904,2.9357,3.2023,3.3988,3.4753,3.5015,3.4949,3.4447,3.377,3.2821,3.1438,2.9083,2.7117,2.5641,2.3309,2.1044,0.0,0.0,0.0,0.0,0.0,0.0,0.0,0.0,0.0,0.0,0.0,0.0,0.0,0.0,0.0,0.0,0.0,0.0,0.0,0.0,0.0,0.0,0.0,0.0,0.0,0.0,0.0,0.0,2.9492,2.9968,2.9541,2.9201,2.863,0.0,0.0,0.0,0.0,0.0,0.0,3.0187,3.0966,3.2237,3.4096,3.4827,3.5764,3.6988,3.7623,3.7941,3.7925,3.7845,3.7814,3.7798,3.7718,3.7528,3.7274,3.756,3.7131,3.6066,3.3953,3.2506,3.1534,2.9884,2.9722,3.0275,3.0442,3.102,3.1835,3.2669,3.3037,3.3179,3.3454,0.0,3.0846,2.9544,0.0,0.0,0.0,0.0,3.0431,3.1214,3.2401,3.35,3.3931,3.4329,3.4693,3.5244,3.5466,3.5015,0.0,3.069,2.8569,2.7411,0.0,0.0,0.0,0.0,2.7989,3.0177,3.191,3.3268,3.4229,3.4338,3.4185,3.3835,3.3355,3.2538,3.1214,2.9353,2.783,2.6756,2.4666,2.2574,2.0569,0.0,0.0,0.0,0.0,0.0,0.0,0.0,0.0,0.0,0.0,0.0,0.0,0.0,0.0,0.0,0.0,0.0,0.0,0.0,0.0,0.0,0.0,0.0,0.0,0.0,0.0,0.0,0.0,0.0,3.0381,3.0825,0.0,0.0,0.0,0.0,3.006,3.1093,3.2015,3.273,3.373,3.4811,3.5939,3.6638,3.7353,3.8116,3.8465,3.864,3.864,3.8322,3.8179,3.8163,3.783,3.7655,3.7639,3.7655,3.7258,3.6479,3.5367,3.433,3.3385,3.2396,3.2288,3.2664,3.3055,3.3893,3.4939,3.5321,3.5632,3.6036,3.6017,3.4183,3.1653,3.0039,2.8645,0.0,0.0,3.0249,3.1479,3.3027,3.4286,3.5278,3.598,3.6639,3.696,3.6406,3.6458,3.6042,0.0,3.2481,3.0996,2.9576,0.0,2.731,2.7759,2.8373,2.9295,3.0706,3.1782,3.2787,3.3726,3.3835,3.3814,3.3792,3.3355,3.2459,3.1018,2.933,2.7988,2.7013,2.518,2.3515,2.2193,2.0425,0.0,0.0,0.0,0.0,0.0,0.0,0.0,0.0,0.0,0.0,0.0,0.0,0.0,0.0,0.0,0.0,0.0,0.0,0.0,0.0,0.0,0.0,0.0,0.0,0.0,0.0,0.0,0.0,3.2026,3.2842,0.0,3.2253,3.1856,3.1935,3.2634,3.3683,3.4668,3.5589,3.6431,3.7258,3.8084,3.8354,3.8703,3.9196,3.9323,3.9387,3.9371,3.8799,3.8513,3.8497,3.7925,3.7671,3.7671,3.7671,3.7385,3.6892,3.6288,3.551,3.4653,3.383,3.3805,3.4296,3.4996,3.5494,3.5933,3.6545,3.6714,3.6476,3.5705,3.4587,3.3303,3.1928,3.1047,3.0615,3.1288,3.2276,3.3301,3.4384,3.5517,3.6428,3.7106,3.7466,3.7614,3.7493,3.7301,3.685,3.5845,3.3988,3.2394,3.187,3.0874,3.0252,3.0728,3.1026,3.1541,3.2634,3.2787,3.3071,3.3726,3.3508,3.3202,3.2918,3.2416,3.1731,3.0701,2.921,2.8052,2.7391,2.6438,2.5159,2.3486,2.253,2.056,0.0,0.0,0.0,0.0,0.0,0.0,0.0,0.0,0.0,0.0,0.0,0.0,0.0,0.0,0.0,0.0,0.0,0.0,0.0,0.0,0.0,0.0,0.0,0.0,0.0,3.068,3.2666,3.3238,3.4334,3.4859,3.4414,3.4048,3.4175,3.5002,3.5828,3.6638,3.7448,3.8163,3.8751,3.9212,3.9339,3.9514,3.9768,3.9768,3.9704,3.9577,3.8974,3.864,3.8513,3.7925,3.7671,3.7655,3.7544,3.7381,3.7105,3.6843,3.6389,3.5875,3.5416,3.556,3.6078,3.6808,3.7081,3.7158,3.7499,3.7448,3.7044,3.5815,3.5229,3.4807,3.3743,3.323,3.3059,3.3468,3.4393,3.5448,3.6088,3.7109,3.8166,3.853,3.8658,3.8614,3.8364,3.8095,3.768,3.7046,3.5233,3.3748,3.3573,3.2896,3.2416,3.259,3.2612,3.2787,3.3268,3.3027,3.2962,3.3289,3.3027,3.2774,3.2416,3.1913,3.1179,3.0225,2.894,2.7978,2.7505,2.6901,2.5904,2.4619,2.2972,2.063,1.7528,0.0,0.0,0.0,0.0,0.0,0.0,0.0,0.0,0.0,0.0,0.0,0.0,0.0,0.0,0.0,0.0,0.0,0.0,0.0,0.0,0.0,0.0,0.0,2.9266,3.1776,3.3667,3.4048,3.5319,3.6177,3.6193,3.5875,3.6098,3.7115,3.7528,3.7877,3.8227,3.8878,3.9244,3.9244,3.9577,3.9768,3.9768,3.9768,3.9577,3.9212,3.8862,3.8513,3.8195,3.783,3.7671,3.7655,3.7289,3.7195,3.729,3.6934,3.6991,3.7166,3.7096,3.7466,3.7979,3.8468,3.856,3.8505,3.8163,3.8016,3.7814,3.6622,3.6237,3.6091,3.5302,3.5064,3.5097,3.536,3.6483,3.767,3.8032,3.9188,4.0279,4.0279,4.0257,3.9995,3.9034,3.8753,3.8532,3.7571,3.6216,3.5081,3.4644,3.4141,3.3661,3.318,3.3146,0.0,3.2481,3.2394,3.2394,3.2394,3.235,3.2328,3.2328,3.1848,3.0952,2.9554,2.8541,2.7739,2.726,2.6323,2.5744,2.5549,2.1703,1.8562,1.6268,0.0,0.0,0.0,0.0,0.0,0.0,0.0,0.0,0.0,0.0,0.0,0.0,0.0,0.0,0.0,0.0,0.0,0.0,0.0,0.0,0.0,2.8376,2.9997,3.0712,3.3,3.4922,3.578,3.6924,3.7718,3.7957,3.7893,3.8052,3.8608,3.8735,3.8958,3.9307,3.9514,3.9609,3.9609,3.9704,3.9768,3.9768,3.9768,3.9577,3.9212,3.8862,3.8513,3.8195,3.783,3.7671,3.7655,3.7289,3.7195,3.729,3.7287,3.7558,3.7947,3.7701,3.7713,3.7979,3.8468,3.856,3.8505,3.8163,3.8016,3.7906,3.7301,3.6897,3.6567,3.6054,3.5687,3.5374,3.5172,3.6136,3.7328,3.763,3.8793,3.9953,4.0214,4.0082,3.958,3.8969,3.8554,3.8117,3.7505,3.65,3.5714,3.5583,3.4884,3.4272,3.4141,3.3814,0.0,3.342,3.2809,3.2394,3.2394,3.1738,3.1302,3.1302,3.0209,2.9427,2.9033,2.7715,2.6758,2.6321,2.602,2.5253,2.3907,2.1268,1.9172,0.0,0.0,0.0,0.0,0.0,0.0,0.0,0.0,0.0,0.0,0.0,0.0,0.0,0.0,0.0,0.0,0.0,0.0,0.0,0.0,0.0,0.0,2.987,3.1713,3.2571,3.4175,3.5542,3.6304,3.7464,3.8322,3.8656,3.8831,3.9069,3.9418,3.945,3.9546,3.9752,3.9768,3.9768,3.9768,3.9609,3.9546,3.9546,3.9387,3.9132,3.8783,3.8576,3.8306,3.7973,3.7766,3.7591,0.0,3.7067,3.7061,3.7418,3.733,3.7688,0.0,0.0,0.0,0.0,0.0,3.856,3.8603,3.8365,3.8273,3.8218,3.7796,3.7411,3.7007,3.6604,3.6182,3.5779,3.5327,3.6055,3.6946,3.7064,3.8196,3.9341,3.9757,3.9714,3.9427,3.8947,3.8444,3.7964,3.7461,3.661,0.0,3.6034,3.5168,3.4534,3.4534,3.4098,3.3726,3.3508,3.2853,3.2306,3.2088,3.1542,3.1192,3.1192,3.0078,0.0,0.0,0.0,2.6605,2.5928,2.5717,0.0,0.0,0.0,0.0,0.0,0.0,0.0,0.0,1.5643,1.6156,0.0,0.0,0.0,0.0,0.0,0.0,0.0,0.0,0.0,0.0,0.0,0.0,0.0,0.0,0.0,0.0,3.1284,3.3397,3.4477,3.524,3.5844,3.6241,3.7417,3.8354,3.8719,3.9037,3.9371,3.9736,3.9736,3.9704,3.9704,0.0,0.0,0.0,0.0,3.9164,3.9164,3.8846,3.8529,3.8195,3.8195,3.7988,3.7607,3.7607,3.7417,3.7051,3.6654,3.6837,3.7375,3.7162,3.7605,3.8614,3.8931,3.908,3.906,3.8755,3.8524,3.8487,3.8487,0.0,0.0,3.8071,3.7686,3.7301,3.6952,3.6512,3.6054,3.568,3.6043,3.6572,3.6533,3.7595,3.8814,3.921,3.9412,3.934,3.8925,3.8401,3.7898,3.7461,3.661,3.6034,3.6034,3.5168,3.4534,3.4534,3.4054,3.3551,3.3168,3.2612,3.2132,3.1673,0.0,0.0,3.1542,3.0624,2.9685,2.8858,2.7807,2.6867,2.6016,2.5486,2.464,2.3382,2.25,2.1214,1.9494,1.9146,1.8981,1.8944,1.7734,1.7807,0.0,0.0,0.0,0.0,0.0,0.0,0.0,0.0,0.0,0.0,0.0,0.0,0.0,0.0,0.0,3.0489,3.2285,3.3842,3.5176,3.5971,3.6638,3.7289,3.7861,3.8433,3.9053,3.918,3.9371,3.9736,3.9498,3.9323,3.9323,3.9053,3.8894,3.8894,3.8831,3.8799,3.8799,3.8719,3.8529,3.8195,0.0,0.0,3.7226,3.7226,3.7035,3.667,3.605,3.6257,3.7012,3.7099,3.8128,3.9513,3.896,3.868,3.87,3.8615,3.842,3.8126,3.8126,3.7924,3.7649,3.7558,3.7264,3.6934,3.6785,3.6311,0.0,3.5246,3.5642,3.6294,3.6793,3.7796,3.8946,3.9888,3.9474,3.8947,3.8797,3.8139,3.7483,3.7396,3.661,3.6034,3.6034,3.5168,3.4534,3.4534,3.377,3.3234,3.3124,3.2306,3.1738,3.1578,3.128,3.104,3.104,2.9816,2.8989,2.8814,2.7501,2.6628,2.6453,2.5658,2.489,2.4247,2.3367,2.2145,2.0759,2.0686,2.0649,2.0613,1.9402,1.9311,0.0,0.0,0.0,0.0,0.0,0.0,0.0,0.0,0.0,0.0,0.0,2.5008,2.6406,0.0,2.987,3.1617,3.3079,3.4366,3.543,3.6018,3.6606,3.7321,3.7877,3.8338,3.8672,3.8862,3.9037,3.9212,3.9053,3.8958,3.8958,3.8783,3.8688,3.8688,3.8529,3.8449,3.8449,3.8274,3.81,3.7925,3.775,3.7572,3.7403,3.7302,3.7118,3.7015,3.6496,3.6518,3.706,3.7394,3.8192,3.9226,3.8784,3.8711,3.8915,3.8634,3.8383,3.8016,3.8016,3.7759,3.7429,3.7429,3.7154,3.6787,3.6586,3.6091,3.5485,3.5113,3.5487,3.6197,3.6638,3.7729,3.8816,3.9303,3.9107,3.8772,3.8532,3.7898,3.7309,3.709,3.6457,3.5889,3.5627,3.4993,3.4534,3.4534,3.3901,3.3355,3.3146,3.2437,3.1913,3.1651,3.1411,3.1258,3.1258,2.9947,2.8967,2.8418,2.7501,2.6977,2.6977,2.6259,2.556,2.4831,2.4092,2.3178,2.198,2.198,2.198,2.198,2.1357,2.1193,0.0,0.0,0.0,0.0,0.0,0.0,0.0,2.3451,2.3657,2.4928,2.6025,2.7235,2.8487,3.0013,3.1427,3.2539,3.373,3.4779,3.5573,3.5923,3.6336,3.6956,3.7591,3.8052,3.8195,3.8433,3.8624,3.8688,3.864,3.8592,3.8592,3.8529,3.8497,3.8497,3.8243,3.81,3.81,3.775,3.756,3.756,3.7194,3.7169,3.7646,3.7363,3.727,3.7434,3.7089,3.703,3.7231,3.7684,3.8212,3.856,3.8469,3.8713,3.8951,3.864,3.8255,3.7888,3.7814,3.7521,3.7191,3.7191,3.6916,3.6531,3.6201,3.576,3.5319,3.4941,3.5401,3.6012,3.6414,3.7528,3.8576,3.8614,3.8657,3.8581,3.8204,3.7724,3.7243,3.6784,3.6304,3.5801,3.5299,3.4818,3.4534,3.4534,3.4098,3.3617,3.319,3.2656,3.2197,3.1673,3.1629,3.1542,3.1316,3.0209,2.9117,2.8198,2.7807,2.7588,2.7588,2.714,2.6417,2.537,2.4881,2.4115,2.3023,2.3023,2.2986,2.2913,2.2986,2.2803,2.1735,2.2434,2.3954,2.496,2.523,2.5326,0.0,2.6073,2.6422,2.7216,2.8217,2.9282,3.0362,3.1236,3.2237,3.3619,3.4207,3.4859,3.5907,3.6082,3.6241,3.6622,3.7003,3.7496,3.8131,3.8227,3.837,3.8672,3.8417,3.8259,3.8259,3.7957,3.7782,3.7782,3.775,3.7734,3.7734,3.7369,3.7194,3.7178,3.6829,3.6763,3.6885,3.6894,3.6966,3.708,3.7124,3.7247,3.7382,3.7775,3.8199,3.8524,3.8236,3.8108,3.8144,3.8089,3.7833,3.7448,3.7081,3.6696,3.6347,3.6347,3.6072,3.5742,3.5705,3.5155,3.4513,3.4492,3.4984,3.5664,3.6336,3.7348,3.8399,3.883,3.8679,3.8309,3.8142,3.7724,3.7243,3.6784,3.6304,3.5801,3.5299,3.4818,3.4534,3.4534,3.4098,3.3617,3.319,3.2656,3.2197,3.1673,3.1629,3.128,3.045,2.9816,2.9248,2.8749,2.8661,2.8639,2.8639,2.8129,2.7359,2.6343,2.5836,2.4842,2.3425,2.3425,2.3242,2.2913,2.3261,2.3224,2.3715,2.4563,2.5786,2.6644,2.7312,2.7868,2.8201,2.8408,2.8757,2.9679,3.0521,3.1315,3.1967,3.2491,3.3158,3.4144,3.4414,3.4811,3.5685,3.5796,3.5923,3.6273,3.6257,3.6574,3.7496,3.7575,3.7718,3.8068,3.7973,3.7893,3.7893,3.7544,3.7353,3.7353,3.7162,3.7051,3.7051,3.6892,3.6813,3.6813,3.6479,3.6483,3.6829,3.6728,3.6828,3.7173,3.7257,3.7354,3.7424,3.7582,3.7771,3.7924,3.7741,3.7668,3.7668,3.7668,3.7429,3.7062,3.6897,3.6567,3.6164,3.5944,3.576,3.5522,3.5045,3.4678,3.4419,3.4408,3.4727,3.522,3.574,3.6363,3.6848,3.7019,3.715,3.7252,3.7114,3.7284,3.7156,3.6413,3.6107,3.5714,3.4949,3.4644,3.4534,3.4534,3.436,3.3945,3.3212,3.2949,3.2481,3.1717,3.1367,3.093,3.0275,2.9773,2.927,2.8836,2.8792,2.8792,2.8792,2.8279,2.7505,2.6504,2.5974,2.512,2.3895,2.3895,2.3804,2.3657,2.3822,2.3804,2.5265,2.6168,2.7185,2.809,2.9028,2.979,3.006,3.0187,3.0473,3.1236,3.1856,3.238,3.2745,3.3095,3.354,3.4128,3.4382,3.4716,3.5335,3.551,3.5669,3.5923,3.5653,3.5796,3.6749,3.6845,3.6988,3.7353,3.7464,3.748,3.7385,3.7226,3.7083,3.6988,3.6733,3.659,3.659,3.6511,3.6463,3.6463,3.6018,3.6105,3.6539,3.6489,3.6758,3.7287,3.7344,3.7392,3.7565,3.7457,3.7395,3.7411,3.7301,3.7264,3.7246,3.7136,3.6989,3.6749,3.6696,3.6384,3.5999,3.5705,3.5467,3.5174,3.4587,3.433,3.4253,3.4237,3.4463,3.4729,3.5017,3.5284,3.5481,3.5486,3.5954,3.6457,3.6385,3.6911,3.709,3.6209,3.6034,3.5648,3.4687,3.4534,3.4534,3.4534,3.4403,3.401,3.3234,3.2831,3.2394,3.1695,3.1061,3.0581,3.0231,2.9642,2.9186,2.8814,2.8792,2.8792,2.8792,2.8279,2.7505,2.6504,2.5974,2.5216,2.4202,2.4202,2.4202,2.4202,2.4202,2.4202,2.5897,2.6883,2.8027,2.9409,3.0299,3.0823,3.0823,3.1093,3.1347,3.1379,3.1681,3.203,3.2364,3.273,3.3095,3.346,3.4064,3.4636,3.5002,3.5351,3.5589,3.5589,3.5272,3.5335,3.6066,3.6145,3.6273,3.6606,3.6956,3.6988,3.6654,3.694,3.6972,3.6622,3.6606,3.659,3.659,3.6288,3.6114,3.6114,3.5399,3.5323,3.5804,3.6341,3.6864,3.7428,3.7388,3.7584,3.7979,3.7517,3.7429,3.7393,3.7007,3.6861,3.6806,3.6402,3.6494,3.6694,3.6366,3.5962,3.5632,3.5632,3.5082,3.444,3.4403,3.4128,3.3835,3.3817,3.4053,3.4326,3.4326,3.4575,3.4871,3.508,3.5595,3.6185,3.6345,3.6911,3.709,3.6209,3.6034,3.5648,3.4687,3.4534,3.4534,3.4534,3.4119,3.3639,3.319,3.2241,3.16,3.1629,3.0799,3.0231,3.0209,2.9336,2.8814,2.8792,2.8792,2.8792,2.8792,2.8279,2.7505,2.6504,2.5974,2.5216,2.4202,2.4202,2.4202,2.4202,2.4202,2.4202,2.7057,2.8138,2.9107,3.0521,3.1554,3.2189,3.1951,3.2173,3.2301,3.184,3.1649,3.1601,3.1713,3.184,3.2189,3.3,3.373,3.4382,3.4954,3.5351,3.5573,3.5573,3.4859,0.0,3.5002,3.5478,0.0,3.6559,3.6702,3.6733,3.6606,3.6511,3.64,3.6273,3.605,3.5923,3.5923,3.5573,3.5399,3.5383,3.4938,3.487,3.5022,3.5591,3.6046,3.6561,3.6833,3.712,3.7228,3.7081,3.6879,3.6604,3.6476,3.6421,3.6402,3.6256,3.6127,3.6017,3.587,3.5724,3.5522,3.499,3.4623,3.4348,3.4092,3.3927,3.3817,3.3817,3.3526,3.3192,3.3192,3.2889,3.2652,3.3162,3.412,3.5085,3.5644,3.6585,3.7199,3.6566,3.6195,3.5758,3.5081,3.4731,3.4403,3.4076,3.3617,3.3136,3.2678,3.2044,3.1629,3.1629,3.104,3.0537,3.0231,2.962,2.9142,2.8814,2.8792,2.8792,2.8792,2.8488,2.7809,2.6812,2.6235,2.546,2.4399,2.4251,2.4202,2.4202,2.4202,2.4202,2.791,2.9123,3.014,3.1284,3.2173,3.2698,3.2459,3.2396,3.2205,3.149,3.0966,3.0648,3.0648,3.0743,3.1172,3.2221,3.3206,3.4064,3.4747,3.516,3.543,3.5558,3.4652,3.4239,3.4827,3.5065,0.0,3.5812,3.6209,3.6368,3.6241,3.6145,3.605,3.5923,3.5701,3.551,3.5383,3.5145,3.4906,3.4668,3.4474,3.4368,3.4306,3.475,3.5337,3.5877,3.6244,3.6551,3.6824,3.6677,3.6457,3.6201,3.6201,3.6201,3.6182,3.6054,3.5834,3.5614,3.5614,3.543,3.51,3.4568,3.4312,3.4147,3.389,3.3817,3.3817,3.3817,3.323,3.2588,3.2588,3.1983,3.1506,3.2102,3.3228,3.4403,3.5108,3.6279,3.7079,3.6566,3.6231,3.5758,3.5081,3.4731,3.4294,3.3639,3.3268,3.2949,3.2437,3.1935,3.1629,3.1629,3.1192,3.0712,3.0253,2.9773,2.927,2.8836,2.8792,2.8792,2.8792,2.8535,2.8019,2.7173,2.6668,2.5849,2.4775,2.4529,2.435,2.4202,2.4202,2.4202,2.8585,2.9949,3.1157,3.1856,3.2253,3.2444,3.2396,3.1856,3.1157,3.0394,2.9663,2.9171,2.9186,2.9457,3.0044,3.1141,3.2507,3.3667,3.435,3.4779,3.5145,3.551,3.4636,3.4414,3.543,3.4906,0.0,3.4509,0.0,3.5939,3.5589,3.5891,3.5923,3.5589,3.5558,3.5383,3.5033,3.5002,3.4652,3.3985,3.3985,3.381,3.3558,3.3984,3.4685,3.5508,3.5561,3.6066,3.6769,3.6366,3.6201,3.6201,3.6201,3.6201,3.6127,3.576,3.5595,3.5559,3.5559,3.5045,3.4403,3.4385,3.411,3.3817,3.3817,3.3817,3.3817,3.3817,3.323,3.2588,3.2588,3.1983,3.1506,3.1846,3.2912,3.4047,3.4673,3.5911,3.6669,3.6056,3.5954,3.5627,3.4687,3.4513,3.4163,3.3256,3.3103,3.2874,3.2394,3.1913,3.1629,3.1629,3.1214,3.0756,3.0297,2.9794,2.9361,2.888,2.8814,2.8792,2.8792,2.8581,2.8186,2.7626,2.7173,2.6408,2.5343,2.5069,2.4695,2.4251,2.4202,2.4202,2.9715,3.1465,3.292,3.3365,3.3349,3.3,3.2221,3.1506,3.0648,2.9409,2.8186,2.7423,2.7693,2.782,2.8392,2.9965,3.1601,0.0,3.3635,3.4255,3.4763,3.5129,3.4477,3.4207,3.4731,3.4604,3.4509,0.0,3.5256,3.5669,3.5589,3.5669,3.5669,3.5589,3.5319,3.5129,3.5033,3.4525,3.4048,3.3619,3.3948,3.4064,3.3952,3.4484,3.5044,3.5539,3.5592,3.5905,3.6366,3.6256,3.6201,3.6201,3.6201,3.6036,3.576,3.565,3.5229,3.4715,3.4715,3.4568,3.4348,3.4055,3.389,3.3817,3.3817,3.3817,3.3817,3.3817,3.323,3.2588,3.2588,3.1983,3.1506,3.1846,3.253,3.3335,3.4047,3.4903,3.5646,3.5772,3.554,3.5212,3.4622,3.4229,3.377,3.3212,3.2818,3.2372,3.187,3.1695,3.1629,3.1629,3.152,3.1236,3.0756,3.0297,2.9816,2.9336,2.8989,2.8792,2.8792,2.8699,2.8466,2.7882,2.76,2.6935,2.5897,2.5654,2.5216,2.4745,2.4529,2.443,3.0871,3.2471,3.3492,3.354,3.3397,3.2936,3.1729,3.0664,2.9608,2.8138,2.6613,2.5628,2.5993,2.6057,2.6724,2.8789,3.0458,3.1903,3.3079,3.3715,3.4239,3.4747,3.4334,3.4207,3.4684,3.4731,3.4795,0.0,3.5351,3.5573,3.5573,3.5573,3.551,3.5335,3.5145,3.489,3.4588,3.4048,3.3683,3.3492,3.3886,3.4213,3.4441,3.4718,3.5217,3.5772,0.0,3.5822,3.6201,3.6201,3.6201,3.6182,3.6017,3.5815,3.5577,3.521,3.4788,3.4367,3.4202,3.4147,3.411,3.389,3.3817,3.3817,3.3817,3.3817,3.3817,3.3817,3.323,3.2588,3.2588,3.1983,3.1442,3.1653,3.2211,3.2829,3.3335,3.4123,3.4852,3.5226,3.5085,3.4818,3.4578,3.4294,3.3879,3.3234,3.2906,3.2437,3.1717,3.1629,3.1629,3.1629,3.1629,3.1433,3.093,3.0668,3.0209,2.9532,2.9274,2.9033,2.8814,2.8792,2.8762,2.8675,2.8391,2.7867,2.7049,2.6806,2.6318,2.5606,2.5314,2.5069,3.1825,3.3061,3.3651,3.3158,3.2984,3.265,3.1061,2.9568,2.809,2.6692,2.496,2.3891,2.4229,2.4341,2.5151,2.7566,2.925,3.0823,3.2523,3.3143,3.3699,3.4302,3.4159,3.4287,3.497,3.5033,3.5176,3.5558,3.5573,3.5573,3.5573,3.5526,3.5319,3.4906,3.489,3.4588,3.3953,3.3635,3.3492,3.3492,3.3968,3.4458,3.4848,3.4993,3.5418,3.6201,0.0,0.0,3.6201,3.6201,3.6201,3.6182,3.5834,3.5669,3.5522,3.477,3.4458,3.4348,3.3945,3.3817,3.3817,3.3817,3.3817,3.3817,3.3817,3.3817,3.3817,3.3817,3.323,3.2588,3.2588,3.1983,3.1377,3.1377,3.1827,3.2339,3.2702,3.3381,3.4122,3.4496,3.4458,3.4423,3.4479,3.4469,3.4141,3.3343,3.3103,3.2678,3.1826,3.1673,3.1629,3.1629,3.1629,3.1455,3.1018,3.093,3.0537,2.9729,2.9554,2.9339,2.8924,2.8902,2.9052,2.9441,2.9315,2.8951,2.8376,2.8272,2.7682,2.6701,2.6412,2.6005,3.2079,3.3719,3.4922,3.3699,3.3174,3.2444,3.0458,2.8471,2.6644,2.523,2.3324,2.21,2.2736,2.3085,2.3991,2.6216,2.8424,3.0219,3.1093,3.2523,3.3524,3.3651,3.3873,3.4287,3.497,3.5033,0.0,0.0,3.5573,3.5573,3.5573,3.5287,3.4843,3.4207,3.4191,3.3985,3.3587,3.3508,3.3492,3.3492,3.4294,3.4865,3.5335,3.5388,3.5902,3.6682,3.5872,0.0,3.6201,3.6201,3.6201,3.6201,3.6127,3.5907,3.5559,3.51,3.4697,3.4348,3.3945,3.3817,3.3817,3.3817,3.3817,3.3817,3.3817,3.3817,3.3817,3.3817,3.323,3.2588,3.2588,3.1983,3.1377,3.1377,3.1506,3.1635,3.1974,3.2502,3.3014,3.332,3.36,3.3896,3.4423,3.4185,3.3857,3.3704,3.3005,3.2437,3.2263,3.1891,3.1629,3.1629,3.1629,3.1586,3.1498,3.1127,3.0821,3.0668,2.9925,2.9445,2.9358,2.9358,2.9306,2.9154,2.9737,2.9639,2.888,2.9077,2.867,2.7723,2.748,2.6818,3.2763,3.386,3.4476,3.3508,3.2936,3.203,2.9552,2.7359,2.5405,2.3816,2.1957,2.0782,2.1306,2.1687,2.2545,2.4484,2.6549,2.8344,2.96,3.1443,3.2809,3.3158,3.4001,3.4668,3.5002,3.5208,3.5303,3.5303,3.5303,3.5303,3.5303,3.4795,3.435,3.4016,3.3826,3.3651,3.3492,3.3492,3.3492,3.3492,3.4376,3.5109,3.5804,3.5861,3.6368,3.7067,3.6249,0.0,3.6201,3.6201,3.6201,3.6182,3.5981,3.5779,3.5577,3.5174,3.4899,3.466,3.4257,3.411,3.4092,3.3872,3.3817,3.3817,3.3817,3.3817,3.3817,3.3817,3.323,3.2588,3.2588,3.1983,3.1377,3.1377,3.1377,3.1451,3.1757,3.2042,3.2475,3.3103,3.3422,3.3784,3.4423,3.4338,3.4076,3.3835,3.342,3.294,3.2437,3.2175,3.1913,3.1651,3.1629,3.1629,3.1629,3.1411,3.1171,3.0908,3.0472,3.0122,2.9882,2.9715,2.9602,2.9444,2.9757,2.9764,2.9363,2.9613,2.9551,2.9132,2.8866,2.8223,3.3006,3.352,3.3382,3.2707,3.2237,3.1363,2.863,2.6263,2.4213,2.2593,2.0861,1.9749,2.0114,2.0464,2.1242,2.2927,2.4674,2.6455,2.8074,3.0203,3.184,3.2539,3.3858,3.4731,3.4811,3.5145,0.0,3.4938,0.0,0.0,3.4811,3.4302,3.3985,3.3905,3.3635,3.3492,3.3492,3.3574,3.364,3.364,3.4539,3.5433,3.627,3.6175,3.6677,3.7374,3.6567,0.0,0.0,3.6201,3.6201,3.6182,3.587,3.5742,3.5705,3.5302,3.51,3.4972,3.455,3.4348,3.422,3.3908,3.3817,3.3817,3.3817,3.3817,3.3817,3.3817,3.323,3.2588,3.2588,3.1983,3.1377,3.1377,3.1377,3.1396,3.1495,3.1703,3.2053,3.2924,3.3283,3.3614,3.4345,3.4534,3.4382,3.401,3.3857,3.353,3.2787,3.2503,3.2241,3.1826,3.1695,3.1629,3.1629,3.1629,3.1455,3.1083,3.0952,3.0734,3.0384,3.0166,2.9942,2.9677,2.9986,3.0049,2.9845,3.0202,3.0371,3.0362,3.0144,2.9492,3.1677,3.2143,3.2318,3.1136,3.0949,3.0346,2.7868,0.0,2.2895,2.1729,2.0097,1.9034,1.9399,1.9781,2.0482,2.1932,2.3636,2.523,2.666,2.8948,3.0728,3.1443,3.2777,0.0,3.408,3.4414,3.4588,3.4557,0.0,0.0,3.4112,3.4048,3.3873,3.354,3.3508,3.3492,3.3492,3.3886,3.4049,3.4049,3.4946,3.5821,3.6592,3.6332,3.6677,3.7374,3.6567,0.0,0.0,3.6201,3.6201,3.6201,3.6164,3.6146,3.6109,3.5705,3.5339,3.4972,3.455,3.4165,3.3853,3.3817,3.3817,3.3817,3.3817,3.3817,3.3817,3.3817,3.323,3.2588,3.2588,3.1983,3.1377,3.1377,3.1377,3.1267,3.0946,3.104,3.1405,3.2334,3.2649,3.314,3.4289,3.4534,3.4513,3.4469,3.4076,3.377,3.3683,3.2918,3.2372,3.2328,3.1891,3.1629,3.1629,3.1629,3.1607,3.1564,3.1149,3.0865,3.0843,3.0843,3.0443,2.9698,3.0815,3.1051,3.0328,3.1103,3.1251,3.0843,3.0821,3.0283,3.0373,3.1062,3.1458,3.0405,3.0361,2.9813,2.715,2.4563,2.2339,2.1068,1.9701,1.8829,1.9018,1.9336,1.9941,2.0861,2.2132,2.362,2.5183,2.7343,2.9107,3.0029,3.1554,3.2682,0.0,0.0,3.3985,0.0,0.0,0.0,3.3699,3.3699,3.3635,3.3492,3.3492,3.3492,3.3492,3.3886,3.4213,3.4539,3.5433,3.6322,3.709,3.6706,3.6891,3.7374,3.6567,0.0,0.0,3.6201,3.6201,3.6201,3.6201,3.6201,3.6164,3.576,3.5522,3.5284,3.4623,3.4293,3.4128,3.389,3.3817,3.3817,3.3817,3.3817,3.3817,3.3817,3.323,3.2588,3.2588,3.1983,3.1377,3.1377,3.1377,3.1341,3.1176,3.1351,3.1807,3.2615,3.2921,3.3341,3.4332,3.4534,3.4534,3.4534,3.436,3.4119,3.3835,3.3464,3.3027,3.2437,3.1935,3.1629,3.1629,3.1629,3.1629,3.1629,3.1433,3.1323,3.1323,3.1193,3.0785,3.0118,3.0596,3.0703,3.0391,3.0888,3.1214,3.1323,3.1323,3.0983,2.8747,2.9448,2.9691,2.8928,2.891,2.8465,2.6096,2.381,2.1846,2.0639,1.9558,1.8781,1.8781,1.9034,1.9399,1.9987,2.0877,2.2091,2.3594,2.5532,2.7185,2.8233,0.0,3.1157,0.0,3.2571,3.3349,0.0,0.0,0.0,3.3492,3.3492,3.3492,3.3492,3.3492,3.3492,3.3492,3.4049,3.4539,3.4946,3.5838,3.6672,3.7409,3.6965,3.6972,3.7209,0.0,0.0,0.0,3.6201,3.6201,3.6201,3.6201,3.6201,3.6164,3.576,3.554,3.5339,3.4642,3.433,3.4183,3.3908,3.3817,3.3817,3.3817,3.3725,3.3633,3.3633,3.3046,3.2386,3.2276,3.1799,3.1377,3.1377,3.1377,3.1377,3.1377,3.1593,3.2095,3.3033,3.3289,3.3592,3.4549,3.4622,3.4534,3.4534,3.4534,3.4403,3.4054,3.3879,3.3551,3.2874,3.235,3.1935,3.1651,3.1629,3.1629,3.1629,3.1629,3.1629,3.1629,3.1424,3.1064,3.0547,3.0703,3.0703,3.0547,3.0836,3.1197,3.1476,3.1476,3.1229,2.6867,2.7041,2.6843,2.6252,2.6239,2.6002,2.4384,2.27,2.1206,2.0543,1.9558,1.8781,1.8781,1.8781,1.8955,1.932,1.9955,2.0782,2.1884,2.3556,2.5008,0.0,0.0,2.9075,2.9774,3.1411,0.0,0.0,0.0,0.0,3.3492,3.3492,3.3492,3.3492,3.3492,3.3492,3.3492,3.4376,3.5027,3.5433,3.6258,3.6931,3.7409,3.6994,3.6827,0.0,0.0,0.0,0.0,3.6201,3.6201,3.6201,3.6201,3.6201,3.6164,3.576,3.5375,3.4972,3.455,3.4147,3.3817,3.3817,3.3817,3.3817,3.3817,3.3541,3.323,3.323,3.2643,3.1909,3.1506,3.1377,3.1377,3.1377,3.1377,3.1377,3.1377,3.1593,3.2171,3.3452,3.3493,3.3696,3.4962,3.4818,3.4534,3.4534,3.4534,3.4534,3.4513,3.4098,3.3792,3.3792,3.3333,3.2656,3.1695,3.1629,3.1629,3.1629,3.1629,3.1629,3.1629,3.1629,3.1351,3.0785,3.1322,3.1322,3.0785,3.1322,3.1476,3.1167,3.1167,3.1086,2.5248,2.5832,2.6199,2.5871,2.594,2.5719,2.4362,2.2695,2.1127,2.0226,1.9383,1.8781,1.8781,1.8781,1.8939,1.932,1.9797,2.053,2.1836,2.3317,0.0,2.5675,2.7772,2.96,0.0,0.0,0.0,0.0,0.0,0.0,0.0,3.3492,3.3492,3.3492,3.3492,3.3492,3.3492,3.4376,3.519,3.5901,3.6463,3.7141,3.7764,3.7089,0.0,0.0,0.0,0.0,0.0,3.6201,3.6201,3.6201,3.6201,3.6201,3.6127,3.5467,3.5137,3.4935,3.4238,3.3927,3.3817,3.3817,3.3817,3.3817,3.3817,3.3725,3.3505,3.2955,3.2606,3.2239,3.1561,3.1377,3.1377,3.1377,3.1377,3.1377,3.1377,3.167,3.2137,3.3142,3.3457,3.3897,3.4886,3.4863,3.4696,3.4696,3.4584,3.4534,3.4534,3.4382,3.4163,3.3835,3.3661,3.318,3.2219,3.2154,3.2001,3.1651,3.1629,3.1629,3.1629,3.1629,3.1527,3.1373,3.1527,3.1527,3.1373,3.1322,3.1013,3.037,2.9953,2.9723,2.3694,2.4503,2.5106,2.4652,2.4622,2.4411,2.3169,2.1899,2.0782,1.986,1.9225,1.8781,1.8781,1.8781,1.8907,1.9129,1.9558,2.0307,2.1401,2.2895,0.0,2.6215,0.0,0.0,0.0,0.0,0.0,0.0,0.0,0.0,0.0,3.3158,3.3079,3.3079,3.3497,3.3658,3.353,3.4423,3.5227,3.5856,3.6359,3.6947,3.7558,3.7062,0.0,0.0,0.0,0.0,0.0,3.6201,3.6201,3.6201,3.6201,3.6201,3.6109,3.532,3.5027,3.4917,3.4092,3.3817,3.3817,3.3817,3.3817,3.3817,3.3817,3.3707,3.3413,3.2606,3.2368,3.2221,3.1543,3.1377,3.1377,3.1377,3.1377,3.1377,3.1377,3.1653,3.2155,3.2922,3.3181,3.3597,3.4341,3.4421,3.4355,3.4395,3.4425,3.445,3.45,3.4534,3.4403,3.4098,3.4076,3.377,3.2984,3.2743,3.2363,3.1758,3.184,3.1774,3.1476,3.1578,3.1629,3.1629,3.1629,3.1629,3.1629,3.1116,3.0599,3.0005,2.925,2.888,0.0,2.3142,2.3515,2.2877,2.2663,2.2334,2.1209,2.0649,0.0,1.9511,1.9082,1.8781,1.8781,1.8797,1.8829,1.8829,1.9479,2.0194,2.0893,2.2593,2.4725,0.0,2.8789,0.0,3.1331,0.0,0.0,0.0,0.0,0.0,0.0,3.2602,3.2412,3.2412,3.3468,3.3888,3.3628,3.4429,3.5117,3.5539,3.5987,3.6426,3.6842,3.6806,0.0,0.0,0.0,0.0,0.0,3.6201,3.6201,3.6201,3.6201,3.6201,3.6109,3.532,3.5027,3.4917,3.4092,3.3817,3.3817,3.3817,3.3817,3.3817,3.3817,3.356,3.3101,3.2313,3.2074,3.1946,3.1524,3.1396,3.1377,3.1377,3.1377,3.1377,3.1377,3.1653,3.2038,3.2702,3.2753,3.2874,3.3615,3.3599,3.3571,3.3726,3.4049,3.434,3.4532,3.45,3.4534,3.4534,3.4534,3.4338,3.3879,3.3399,3.2736,3.1921,3.2206,3.1989,3.1202,3.1416,3.16,3.1629,3.1629,3.1578,3.1578,3.0806,3.0235,2.9953,2.9059,2.8475,2.043,0.0,2.274,2.2867,2.2527,2.196,0.0,2.0648,1.9925,1.9511,1.9082,1.8781,1.8781,1.905,1.9241,1.9241,2.0051,2.0925,2.1624,2.415,2.6787,2.9059,3.0013,3.0934,3.2062,0.0,0.0,0.0,0.0,3.2539,0.0,3.2459,3.2412,3.2412,3.3303,3.375,3.3588,3.4458,3.527,3.5927,3.6106,3.6385,3.6824,3.6494,0.0,0.0,0.0,0.0,3.6201,3.6201,3.6201,3.6201,3.6201,3.6201,3.6109,3.532,3.5027,3.4917,3.4092,3.3817,3.3817,3.3817,3.3817,3.3817,3.3817,3.3743,3.3578,3.3083,3.2716,3.2368,3.1964,3.1616,3.1377,3.1377,3.1377,3.1377,3.1377,3.1442,3.1699,3.2403,3.2454,3.2758,3.3701,3.3757,3.3862,3.4364,3.4374,3.441,3.4704,3.4584,3.4534,3.4534,3.4534,3.4469,3.436,3.3681,3.2802,3.1792,3.1824,3.1613,3.1074,3.1285,3.1481,3.1578,3.1629,3.1476,3.127,3.0703,3.013,2.9586,2.8509,2.7887,1.9841,2.1204,2.2203,2.2266,2.1951,2.1519,2.0854,2.0162,1.959,1.9193,1.897,1.8875,1.905,1.9368,1.9702,1.9812,2.0718,2.1973,0.0,0.0,2.836,3.0315,3.1014,3.1697,0.0,0.0,0.0,0.0,0.0,0.0,0.0,3.203,3.1935,3.1935,3.2732,3.3359,3.3664,3.4538,3.5285,3.5856,3.5887,3.6174,3.6531,3.6311,3.6201,0.0,0.0,0.0,3.6201,3.6201,3.6201,3.6201,3.6201,3.6201,3.6127,3.5522,3.5192,3.4935,3.4293,3.3963,3.3817,3.3817,3.3817,3.3817,3.3817,3.3817,3.3725,3.334,3.2918,3.2496,3.2111,3.1689,3.1377,3.1377,3.1377,3.1377,3.1377,3.1377,3.1506,3.1891,3.2102,3.2422,3.3272,3.3536,3.3733,3.4146,3.4261,3.4278,3.4301,3.439,3.4437,3.45,3.4534,3.4534,3.4534,3.3828,3.2963,3.1892,3.185,3.1532,3.0913,3.1345,3.1668,3.1979,3.1738,3.1527,3.1373,3.0858,3.0318,2.99,2.8741,2.7994,1.9711,2.0894,2.167,2.1549,2.1402,2.1102,2.0158,1.9636,1.9273,1.8956,1.8846,1.8971,1.9383,1.9813,2.0146,2.0496,2.1576,0.0,2.5993,2.7793,2.9393,3.1109,3.1665,0.0,0.0,0.0,0.0,0.0,0.0,0.0,0.0,3.1631,3.1456,3.1456,3.2299,3.3042,3.3821,3.4606,3.5192,3.568,3.568,3.5903,3.6201,3.6201,3.6201,0.0,0.0,0.0,3.6201,3.6201,3.6201,3.6201,3.6201,3.6201,3.6164,3.576,3.5412,3.5045,3.4568,3.4147,3.3817,3.3817,3.3817,3.3817,3.3817,3.3817,3.3743,3.3413,3.301,3.2606,3.2203,3.1781,3.1451,3.1396,3.1377,3.1377,3.1377,3.1377,3.1377,3.1377,3.1653,3.2038,3.2765,3.3019,3.3301,3.3673,3.3922,3.4023,3.3872,3.4154,3.4425,3.4519,3.4566,3.4488,3.4367,3.3727,3.2937,3.1958,3.1881,3.1564,3.0817,3.1278,3.1805,3.2236,3.184,3.1629,3.1629,3.1146,3.0785,3.0495,2.9428,2.8635,1.9112,1.9852,2.0506,2.1635,2.1503,2.0941,2.022,1.9576,1.9197,1.9346,1.9129,1.9082,1.9717,2.0321,2.0877,2.1174,2.2911,2.4849,0.0,0.0,2.9314,3.0759,0.0,0.0,0.0,0.0,0.0,0.0,0.0,0.0,0.0,3.1718,3.1916,3.1916,3.2681,3.3458,3.4267,3.4795,3.536,3.6126,3.6126,3.6126,3.6201,3.6201,3.6201,0.0,0.0,3.6201,3.6201,3.6201,3.6201,3.6201,3.6201,3.6201,3.6164,3.576,3.5577,3.543,3.466,3.4147,3.3817,3.3817,3.3817,3.3817,3.3817,3.3817,3.3798,3.3743,3.3431,3.3028,3.2606,3.2203,3.1818,3.1469,3.1377,3.1377,3.1377,3.1377,3.1377,3.1377,3.1442,3.1763,3.2721,3.2485,3.253,3.3697,3.3567,3.3638,3.4407,3.4732,3.4837,3.4769,3.4761,3.4496,3.377,3.2913,3.2129,3.1474,3.1436,3.1199,3.0628,3.0936,3.1253,3.1561,3.156,3.1629,3.1629,3.1527,3.1322,3.1064,3.0443,2.9796,1.8409,1.9099,1.9671,2.0419,2.0552,2.0395,1.9877,1.9286,1.8927,1.917,1.9074,1.9227,2.005,2.1081,2.2259,2.3753,2.496,2.6263,2.7836,2.8789,2.979,0.0,0.0,0.0,0.0,0.0,0.0,0.0,0.0,0.0,0.0,0.0,3.2069,3.2299,3.312,3.3878,3.4707,3.5157,3.5605,3.6201,3.6201,3.6201,3.6201,3.6201,3.6201,3.6201,0.0,3.6091,3.5907,3.6127,3.6091,3.5907,3.6127,3.6201,3.6164,3.576,3.5614,3.5504,3.4678,3.4275,3.4092,3.389,3.3817,3.3817,3.3817,3.3817,3.3817,3.3817,3.3523,3.3175,3.2991,3.2478,3.1964,3.1763,3.1543,3.1377,3.1377,3.1377,3.1377,3.1377,3.157,3.1955,3.2765,3.2657,3.2657,3.3272,3.3305,3.3525,3.4085,3.4427,3.4512,3.4322,3.4122,3.3644,3.2727,3.2055,3.1363,3.0606,3.0567,3.0587,3.072,3.0988,3.1333,3.1838,3.1689,3.1629,3.1629,3.1629,3.1527,3.1373,3.0858,3.037,1.7782,1.825,1.8668,1.9014,1.9521,1.9869,1.9508,1.9153,1.8933,1.9192,1.9362,1.9754,2.0673,2.1993,2.3705,2.5977,2.6565,2.7264,2.8583,2.9377,0.0,0.0,0.0,0.0,0.0,0.0,0.0,0.0,0.0,0.0,0.0,0.0,3.2299,3.2757,3.35,3.4331,3.5157,3.5456,3.5829,3.6201,3.6201,3.6201,3.6201,3.6201,3.6164,3.6072,3.6072,3.5852,3.5504,3.5797,3.5797,3.565,3.5944,3.6127,3.6164,3.587,3.5705,3.5522,3.4899,3.4568,3.4348,3.4055,3.389,3.3817,3.3817,3.3817,3.3817,3.3817,3.3596,3.334,3.3248,3.2753,3.2276,3.2166,3.1836,3.1524,3.1524,3.1451,3.1377,3.1377,3.1589,3.1974,3.2638,3.2657,3.2594,3.2765,3.2975,3.3364,3.3817,3.4146,3.4287,3.4135,3.3817,3.3041,3.16,3.1269,3.0703,2.9745,2.9686,2.9981,3.0548,3.0846,3.1319,3.1993,3.1745,3.1629,3.1629,3.1629,3.1629,3.1578,3.1197,3.0836,1.7147,1.7043,1.7003,1.7893,1.8975,1.9751,1.939,1.9452,1.9642,1.9943,2.0473,2.1084,2.1752,2.3271,2.4913,2.639,2.693,2.7534,2.8614,0.0,0.0,0.0,0.0,0.0,0.0,0.0,0.0,0.0,0.0,0.0,0.0,0.0,0.0,3.312,3.3971,3.4724,3.553,3.5605,3.5829,3.6201,3.6201,3.6201,3.6201,3.6201,3.6017,3.5669,3.5669,3.543,3.5082,3.51,3.532,3.5632,3.565,3.5889,3.6201,3.6182,3.5925,3.5614,3.5559,3.5027,3.4403,3.4367,3.411,3.3817,3.3817,3.3817,3.3817,3.3817,3.3798,3.3688,3.3321,3.3175,3.3046,3.2643,3.2239,3.1964,3.1964,3.1653,3.1377,3.1377,3.1442,3.1635,3.2358,3.1891,3.1699,3.2358,3.2485,3.2892,3.4218,3.4674,3.4821,3.4693,3.4328,3.3195,3.0787,3.055,3.014,2.9131,2.9035,2.9331,2.9922,3.0226,3.066,3.134,3.1536,3.1629,3.1629,3.1629,3.1629,3.1629,3.1578,3.1424,1.6587,1.6501,1.6736,1.7091,1.8236,1.9336,1.9529,1.9666,2.0011,2.0827,2.1299,2.2072,2.3652,2.4869,2.5945,2.7137,2.7804,2.8471,0.0,0.0,0.0,0.0,0.0,0.0,0.0,0.0,0.0,0.0,0.0,0.0,0.0,0.0,0.0,3.3575,3.4331,3.5174,3.5978,3.5978,3.6052,3.6201,3.6201,3.6201,3.6201,3.6201,3.5999,3.5614,3.5614,3.5247,3.466,3.4917,3.4972,3.4917,3.543,3.5852,3.6182,3.5925,3.5742,3.554,3.5045,3.466,3.4367,3.411,3.3927,3.3817,3.3817,3.3817,3.3817,3.3817,3.3817,3.378,3.3633,3.3413,3.3175,3.3028,3.268,3.2313,3.2056,3.1873,3.1689,3.1433,3.1377,3.1506,3.1699,3.157,3.1506,3.1763,3.2166,3.2848,3.4258,3.4528,3.449,3.4146,3.2704,3.1328,3.0413,3.0334,3.0026,2.9439,2.9122,2.9213,2.9627,3.0216,3.0806,3.142,3.1944,3.2292,3.2525,3.2525,3.2525,3.2525,3.2525,3.2472,1.6539,1.6249,1.6352,1.6551,1.7628,1.8829,1.9629,2.0112,2.0579,2.1332,2.2175,2.3426,2.5516,2.6136,2.666,0.0,2.8281,0.0,0.0,0.0,0.0,0.0,0.0,0.0,0.0,0.0,0.0,0.0,0.0,0.0,0.0,0.0,0.0,0.0,3.4556,3.5381,3.6201,3.6201,3.6146,3.6017,3.6146,3.6201,3.6201,3.6201,3.5925,3.543,3.543,3.5045,3.4403,3.4568,3.455,3.4477,3.5155,3.5595,3.5797,3.554,3.543,3.5357,3.4788,3.4513,3.4348,3.4092,3.3908,3.3817,3.3817,3.3817,3.3817,3.3817,3.3817,3.3817,3.3817,3.3615,3.3413,3.3413,3.3101,3.2716,3.2459,3.2294,3.2111,3.1818,3.1763,3.1763,3.1763,3.1653,3.1579,3.1579,3.2049,3.2848,3.4258,3.4403,3.424,3.3733,3.1846,3.0516,3.0406,3.0387,3.0149,2.9599,2.9324,2.9282,2.9509,3.0026,3.0594,3.1216,3.1931,3.2459,3.2803,3.3017,3.3124,3.3124,3.3124,3.3124,1.7126,1.6178,1.5624,1.6168,1.7127,1.8298,1.9798,2.0786,2.1408,2.1449,2.3103,2.5175,2.7343,2.7169,2.7026,2.8058,2.8233,0.0,0.0,0.0,0.0,0.0,0.0,0.0,0.0,0.0,0.0,0.0,0.0,0.0,0.0,0.0,0.0,0.0,3.4556,3.5381,3.6201,3.6201,3.5999,3.5632,3.6017,3.6201,3.6201,3.6201,3.5779,3.5027,3.5027,3.4788,3.4367,3.3982,3.4055,3.444,3.4862,3.5027,3.5027,3.5027,3.5027,3.5027,3.5027,3.4752,3.4403,3.4403,3.4128,3.3817,3.3817,3.3817,3.3817,3.3817,3.3817,3.3817,3.3817,3.3817,3.3817,3.3817,3.3523,3.323,3.323,3.29,3.2606,3.2588,3.2588,3.2588,3.2588,3.2276,3.2019,3.2001,3.2235,3.2912,3.4258,3.4403,3.4173,3.3481,3.2211,3.1212,3.0827,3.0791,3.0442,2.9635,2.958,2.9578,2.9527,2.9563,2.991,3.0613,3.1347,3.1885,3.221,3.2803,3.3071,3.3071,3.3071,3.3071,1.6825,1.6411,1.6453,1.7013,1.8336,1.9547,1.9869,2.0775,2.2062,2.4069,2.5031,2.6111,2.8098,2.8074,2.7947,2.8519,2.8821,0.0,0.0,0.0,0.0,0.0,0.0,0.0,0.0,0.0,0.0,0.0,0.0,0.0,0.0,0.0,0.0,0.0,3.4491,3.5381,3.6201,3.5925,3.5742,3.5614,3.5449,3.5522,3.5797,3.6072,3.5779,3.5045,3.532,3.5045,3.4385,3.4275,3.4293,3.4403,3.4532,3.477,3.499,3.4697,3.4587,3.455,3.4275,3.4092,3.3982,3.3982,3.3908,3.3817,3.3817,3.3817,3.3817,3.3817,3.3817,3.3817,3.3817,3.3817,3.3817,3.3817,3.3725,3.356,3.3285,3.312,3.2955,3.2643,3.2588,3.2588,3.2588,3.2496,3.2331,3.2056,3.2478,3.3174,3.4255,3.4403,3.4153,3.3481,3.2211,3.1322,3.1212,3.1194,3.0974,3.0461,3.0167,2.977,2.919,2.9554,3.0025,3.0432,3.1502,3.2235,3.2573,3.3133,3.3433,3.3433,3.3433,3.3433,1.7241,1.7045,1.7298,1.7829,1.9073,2.046,2.1515,2.2269,2.3453,2.5898,2.6605,2.727,2.8909,2.8662,0.0,2.89,0.0,0.0,0.0,0.0,0.0,0.0,0.0,0.0,0.0,0.0,0.0,0.0,0.0,0.0,0.0,0.0,0.0,0.0,3.4509,3.5381,3.6201,3.5815,3.554,3.5375,3.5137,3.5064,3.5155,3.5724,3.5724,3.5284,3.5522,3.5155,3.4403,3.4587,3.4458,3.4165,3.4165,3.433,3.4532,3.444,3.4293,3.4147,3.4073,3.3945,3.3817,3.3817,3.3817,3.3817,3.3817,3.3817,3.3817,3.3817,3.3817,3.3817,3.3817,3.3817,3.3817,3.3817,3.3817,3.3743,3.3711,3.3537,3.3376,3.3342,3.3219,3.3083,3.3083,3.2955,3.2838,3.2733,3.3451,3.4226,3.4733,3.459,3.4133,3.3481,3.2211,3.1377,3.1377,3.1377,3.1212,3.0809,3.0571,3.0075,2.925,2.9424,2.9686,3.0039,3.1014,3.1652,3.194,3.2571,3.2856,3.2856,3.2856,3.2856,1.8039,1.7889,1.8022,1.8601,1.9723,2.1311,2.41,2.4943,2.5546,2.7112,2.7792,2.85,2.966,2.9028,2.8551,0.0,0.0,0.0,0.0,0.0,0.0,0.0,0.0,0.0,0.0,0.0,0.0,0.0,0.0,0.0,0.0,0.0,0.0,3.3734,3.4539,3.5381,3.6201,3.5779,3.5375,0.0,3.4954,3.4733,3.4422,3.521,3.5595,3.5614,3.5577,3.5137,3.4495,3.488,3.455,3.3817,3.3817,3.3817,3.3853,3.4257,3.4147,3.3872,3.4257,3.4147,3.3817,3.3817,3.3817,3.3817,3.3817,3.3817,3.3817,3.3817,3.3817,3.3817,3.3817,3.3817,3.3817,3.3817,3.3886,3.3955,3.437,3.4232,3.4094,3.4439,3.4163,3.3886,3.3817,3.3523,3.3471,3.3909,3.4955,3.5641,3.548,3.4859,3.4133,3.3481,3.2211,3.1377,3.1377,3.1377,3.1231,3.0864,3.0809,3.0461,2.9709,2.9269,2.919,2.945,3.0039,3.049,3.0704,3.1401,3.169,3.169,3.169,3.169,1.7321,1.7596,1.8106,1.906,2.1152,2.3601,2.5963,2.7318,2.8203,2.8311,2.8431,2.8912,2.9992,2.9584,0.0,0.0,0.0,0.0,0.0,0.0,0.0,0.0,0.0,0.0,0.0,0.0,0.0,0.0,0.0,0.0,0.0,0.0,0.0,3.3357,3.4474,3.5381,3.6201,3.5504,3.5119,0.0,3.4385,3.4183,3.4422,3.4935,3.532,3.5595,3.5302,3.5064,3.4899,3.499,3.455,3.3817,3.3817,3.3817,3.3853,3.4257,3.4147,3.3872,3.4257,3.4147,3.3886,3.4163,3.4094,3.3886,3.4163,3.4024,3.3817,3.3817,3.3817,3.3817,3.3817,3.3817,3.3886,3.4232,3.4301,3.4439,3.5021,3.5177,3.5127,3.5158,3.4902,3.4508,3.3886,3.402,3.447,3.5343,3.5973,3.6311,3.5976,3.5063,3.4133,3.3481,3.2211,3.1377,3.1377,3.1377,3.1341,3.1249,3.0956,3.0717,3.0534,2.9837,2.9365,2.9112,2.9686,3.0039,3.0098,3.0723,3.0995,3.0995,3.0995,3.0995,1.7335,1.7935,1.9045,2.1314,2.3432,2.5514,2.7678,2.8894,2.961,2.9669,2.9539,2.9555,2.9781,0.0,0.0,0.0,0.0,0.0,0.0,0.0,0.0,0.0,0.0,0.0,0.0,0.0,0.0,0.0,0.0,0.0,0.0,3.1878,3.2817,3.3794,3.4601,3.5202,3.565,3.5027,3.4532,3.4165,3.3523,3.345,3.3872,3.466,3.5137,3.5339,3.532,3.51,3.4752,3.4954,3.455,3.3817,3.3817,3.3817,3.389,3.4477,3.433,3.3908,3.4495,3.4382,3.4163,3.4696,3.4765,3.4646,3.4834,3.4627,3.4232,3.3886,3.3817,3.3817,3.3817,3.3955,3.4232,3.4765,3.4902,3.5089,3.5772,3.5976,3.5928,3.5704,3.5245,3.4646,3.3955,3.4439,3.518,3.5991,3.6794,3.7191,3.696,3.5619,3.4452,3.3794,3.2324,3.1377,3.1377,3.1377,3.1377,3.1377,3.1176,3.0992,3.0791,3.0387,2.9874,2.9269,2.9443,2.945,2.945,2.9785,2.9962,2.9962,2.9962,2.9962,1.7657,1.8786,2.0472,2.3909,2.5642,2.7183,2.9112,2.9928,3.033,3.0688,3.0521,3.0124,0.0,0.0,0.0,0.0,0.0,0.0,0.0,0.0,0.0,0.0,0.0,0.0,0.0,0.0,0.0,0.0,0.0,0.0,3.1819,3.2507,3.3351,3.4464,3.4861,3.5007,3.4973,3.455,3.3945,3.323,3.2863,3.2881,3.3266,3.433,3.4862,3.4935,3.5339,3.5137,3.4532,3.488,3.4587,3.3908,3.3835,3.3853,3.4,3.4752,3.455,3.4018,3.477,3.4707,3.4439,3.5158,3.5314,3.5196,3.5363,3.5089,3.4577,3.4094,3.3886,3.3955,3.3955,3.437,3.4834,3.5431,3.5753,3.6161,3.6722,3.6856,3.6654,3.6248,3.5382,3.4577,3.4024,3.4784,3.5675,3.6223,3.7246,3.7928,3.7784,3.6282,3.4976,3.4309,3.2569,3.1488,3.1488,3.1414,3.1377,3.1377,3.1377,3.1231,3.0901,3.0827,3.0479,2.98,2.9324,2.9048,2.8975,2.8975,2.8975,2.8975,2.8975,2.8975,1.7912,2.009,2.2617,2.5024,2.6922,2.8611,2.9745,3.0453,3.0672,0.0,3.0346,0.0,0.0,0.0,0.0,0.0,0.0,0.0,0.0,0.0,0.0,0.0,0.0,0.0,0.0,0.0,0.0,0.0,0.0,0.0,3.2912,3.3369,3.4023,3.4914,3.4984,3.4975,3.5027,3.4275,3.367,3.323,3.3175,3.3175,3.3248,3.3743,3.4165,3.4513,3.4935,3.5045,3.4954,3.5009,3.4752,3.4293,3.3945,3.4018,3.4385,3.4862,3.4733,3.4385,3.4862,3.4495,3.4094,3.5127,3.4853,3.4232,3.5108,3.4696,3.4024,3.4232,3.4301,3.437,3.4715,3.5245,3.5908,3.6248,3.7327,3.8262,3.8416,3.8171,3.777,3.6991,3.5295,3.4024,3.4301,3.4902,3.5665,3.6372,3.7299,3.7817,3.76,3.6432,3.5351,3.4675,3.3002,3.1928,3.1928,3.1579,3.1377,3.1377,3.1377,3.1359,3.1304,3.0974,3.0736,3.0626,2.9874,2.9324,2.8975,2.8975,2.8975,2.8975,2.8975,2.8975,1.9318,2.152,2.3924,2.6444,2.7911,2.8969,2.9986,3.0363,3.0505,3.0346,0.0,0.0,0.0,0.0,0.0,0.0,0.0,0.0,0.0,0.0,0.0,0.0,0.0,0.0,0.0,0.0,0.0,0.0,0.0,3.307,3.3258,3.3632,3.4045,3.4662,3.4414,3.4215,3.4018,3.3431,3.2808,3.2184,3.2423,3.2551,3.2551,3.2955,3.3468,3.411,3.4752,3.4899,3.4715,3.5174,3.5119,3.4733,3.4568,3.4605,3.4807,3.521,3.4954,3.4458,3.488,3.4637,3.4301,3.5177,3.5108,3.4853,3.5245,3.5108,3.4784,3.4902,3.5108,3.5451,3.5908,3.6451,3.7038,3.7595,3.8329,3.9078,3.9473,3.9165,3.8283,3.6722,3.5021,3.3886,3.4024,3.4834,3.5655,3.6112,3.7299,3.786,3.733,3.6395,3.5435,3.4594,3.3169,3.2331,3.2331,3.1964,3.1726,3.1726,3.1506,3.1377,3.1377,3.1212,3.1011,3.0791,2.9984,2.9489,2.9324,2.9085,2.8975,2.8975,2.8975,2.8975,2.0104,2.2086,2.4276,2.6773,2.7977,2.8759,0.0,0.0,3.0076,0.0,0.0,0.0,0.0,0.0,0.0,0.0,0.0,0.0,0.0,0.0,0.0,0.0,0.0,0.0,0.0,0.0,0.0,0.0,0.0,3.3464,3.3553,3.375,3.3965,3.436,3.3943,3.3415,3.3065,3.2551,3.1983,3.1377,3.1799,3.2001,3.2019,3.2423,3.2936,3.356,3.4477,3.4752,3.4623,3.532,3.5449,3.5174,3.5064,3.5082,3.521,3.5504,3.5229,3.4733,3.4954,3.471,3.4501,3.5196,3.5314,3.5264,3.55,3.5587,3.5606,3.5704,3.6123,3.6745,3.7355,3.7908,3.8507,3.887,3.9335,3.9689,3.9975,3.9276,3.8129,3.6316,3.4834,3.3817,3.3955,3.4784,3.5587,3.5928,3.7079,3.7703,3.7011,3.6241,3.5441,3.4564,3.3464,3.2753,3.2753,3.2386,3.2148,3.2148,3.1763,3.1543,3.1543,3.1433,3.1231,3.0937,3.0241,2.9837,2.9727,2.9324,2.914,2.914,2.903,2.903,1.9357,2.1089,2.317,2.513,2.6739,2.8037,0.0,0.0,0.0,0.0,0.0,0.0,0.0,0.0,0.0,0.0,0.0,0.0,0.0,0.0,0.0,0.0,0.0,0.0,0.0,0.0,0.0,0.0,0.0,3.393,3.4314,3.4003,3.3985,3.4422,3.3619,3.3065,3.2625,3.1836,3.1414,3.1377,3.1799,3.2001,3.2019,3.2423,3.2625,3.2716,3.3927,3.4642,3.5027,3.5449,3.5614,3.5559,3.5174,3.5265,3.5595,3.5614,3.5595,3.5504,3.5155,3.4733,3.4523,3.5261,3.499,3.4646,3.5675,3.5996,3.6044,3.6384,3.7292,3.8296,3.8724,3.9647,4.0333,3.9954,4.0403,4.0561,3.9514,3.8129,3.6924,3.618,3.4834,3.3955,3.4301,3.4971,3.5568,3.5947,3.6606,3.6924,3.6586,3.5869,3.5256,3.4883,3.3842,3.3193,3.3193,3.2808,3.257,3.257,3.2203,3.1983,3.1983,3.1598,3.1359,3.1341,3.0937,3.0552,3.0167,2.9745,2.9544,2.9525,2.9159,2.9177,1.9506,2.0975,2.2573,2.4217,2.5502,2.6597,2.7423,2.8122,0.0,0.0,0.0,0.0,0.0,0.0,0.0,0.0,0.0,0.0,0.0,0.0,0.0,0.0,0.0,0.0,0.0,0.0,0.0,0.0,0.0,0.0,3.3651,3.3505,3.3376,3.3248,3.2716,3.2239,3.1818,3.1524,3.1377,3.1377,3.1524,3.1598,3.1616,3.1744,3.1964,3.2276,3.323,3.3872,3.4293,3.4972,3.5394,3.5595,3.5467,3.565,3.5999,3.5999,3.5834,3.5595,3.5467,3.5115,3.4878,3.5565,3.5681,3.5626,3.6788,3.7277,3.7678,3.8576,3.9259,3.993,4.054,4.1007,4.1229,4.1123,4.1236,4.1259,4.0638,3.8812,3.726,3.6789,3.5519,3.4577,3.4715,3.5314,3.5655,3.5333,3.6064,3.6316,3.5314,3.5108,3.4834,3.4232,3.3826,3.3596,3.3596,3.323,3.2991,3.2991,3.2368,3.2001,3.2001,3.1598,3.1377,3.1377,3.1231,3.0974,3.0571,2.9892,2.9562,2.9562,2.9159,2.9195,1.8985,2.0148,2.1422,2.2585,2.3705,2.4785,2.5612,0.0,0.0,0.0,0.0,0.0,0.0,0.0,0.0,0.0,0.0,0.0,0.0,0.0,0.0,0.0,0.0,0.0,0.0,0.0,0.0,0.0,0.0,0.0,3.3248,3.2973,3.2625,3.2203,3.1928,3.1653,3.1377,3.1377,3.1377,3.1377,3.1377,3.1377,3.1377,3.1524,3.1744,3.2056,3.2863,3.345,3.3872,3.4697,3.5265,3.5614,3.5614,3.5852,3.6201,3.6201,3.6036,3.5797,3.5815,3.5771,3.5925,3.6475,3.6779,3.722,3.8118,3.8699,3.9239,4.0009,4.0699,4.1305,4.1804,4.1939,4.1939,4.1939,4.1808,4.1632,4.1429,3.9833,3.8382,3.7997,3.6975,3.6042,3.5907,3.6279,3.6377,3.5538,3.584,3.5772,3.4715,3.4577,3.437,3.3886,3.3817,3.3817,3.3817,3.3578,3.3413,3.3413,3.279,3.2349,3.2203,3.1818,3.1524,3.1377,3.1377,3.1249,3.0992,3.0314,2.9984,2.9965,2.958,2.9599,0.0,0.0,0.0,2.0162,0.0,0.0,2.3779,0.0,0.0,0.0,0.0,0.0,0.0,0.0,0.0,0.0,0.0,0.0,0.0,0.0,0.0,0.0,0.0,0.0,0.0,0.0,0.0,0.0,0.0,3.3211,3.3211,3.2423,3.1799,3.1396,3.1377,3.1377,3.1377,3.1377,3.1377,3.1377,3.1377,3.1377,3.1414,3.1818,3.2019,3.2074,3.2881,3.345,3.3853,3.4678,3.5247,3.5595,3.5614,3.5852,3.6201,3.6201,3.6201,3.622,3.6218,3.6796,3.7493,3.7845,3.8476,3.915,3.9537,4.0156,4.0682,4.0703,4.1525,4.2442,4.2442,4.2442,4.2442,4.2442,4.2092,4.1721,4.1721,4.0908,4.0067,3.9723,3.9012,3.8384,3.7912,3.7811,3.7493,3.6666,3.5908,3.5295,3.4902,3.4232,3.3817,3.3817,3.3817,3.3817,3.3817,3.3817,3.3817,3.3817,3.345,3.3028,3.2606,3.2221,3.1799,3.1396,3.1377,3.1377,3.1377,3.0974,3.0791,3.0772,3.0406,3.0424,1.7397,0.0,0.0,0.0,0.0,0.0,0.0,0.0,0.0,0.0,0.0,0.0,0.0,0.0,0.0,0.0,0.0,0.0,0.0,0.0,0.0,0.0,0.0,0.0,0.0,0.0,0.0,0.0,3.345,3.3101,3.279,3.2001,3.1506,3.1377,3.1377,3.1377,3.1377,3.1377,3.1377,3.1377,3.1377,3.1543,3.1836,3.1946,3.2166,3.2459,3.2991,3.3285,3.345,3.4257,3.4825,3.5229,3.5504,3.5852,3.6201,3.6201,3.6349,3.6719,3.7343,3.7822,3.8391,3.9523,4.0021,4.0314,4.1362,4.1723,4.2015,4.2384,4.2718,4.2966,4.2966,4.2966,4.2966,4.2966,4.2857,4.2769,4.2769,4.2562,4.193,4.0604,3.9792,3.9268,3.9144,3.8562,3.7867,3.7152,3.6328,3.5519,3.4646,3.437,3.4094,3.3817,3.3817,3.3817,3.3817,3.3817,3.3817,3.3817,3.345,3.3028,3.2606,3.2221,3.1799,3.1396,3.1377,3.1377,3.1377,3.0974,3.0791,3.0791,3.0681,3.0681,1.752,1.7731,1.8001,1.8065,0.0,0.0,0.0,2.1989,0.0,0.0,0.0,0.0,0.0,0.0,0.0,0.0,0.0,0.0,0.0,0.0,0.0,0.0,0.0,0.0,0.0,0.0,0.0,3.3817,3.3285,3.2698,3.2111,3.1634,3.1377,3.1377,3.1377,3.1377,3.1377,3.1377,3.1377,3.1377,3.1561,3.1763,3.2019,3.2368,3.2643,3.2881,3.3285,3.3468,3.3541,3.433,3.4807,3.5064,3.5467,3.5852,3.6201,3.6201,3.6423,3.696,3.7897,3.8668,3.9454,4.08,4.147,4.1805,4.25,4.2726,4.2791,4.3097,4.3184,4.3184,4.3184,4.3184,4.3184,4.3184,4.3184,4.3184,4.3184,4.3184,4.287,4.1869,4.1348,4.1007,4.061,3.9902,3.9041,3.8057,3.7248,3.6396,3.5401,3.504,3.4696,3.4301,3.3955,3.3817,3.3817,3.3817,3.3817,3.3817,3.3596,3.3211,3.2625,3.2368,3.1983,3.1396,3.1543,3.1634,3.1634,3.1231,3.1093,3.1238,3.1238,3.1365,1.7998,1.8144,1.8287,1.7969,1.8541,0.0,1.924,2.0687,0.0,0.0,0.0,0.0,0.0,0.0,0.0,0.0,0.0,0.0,0.0,0.0,0.0,0.0,0.0,0.0,0.0,3.367,3.367,3.367,3.2973,3.2184,3.1414,3.1377,3.1377,3.1377,3.1414,3.1451,3.1451,3.1488,3.1506,3.1524,3.1891,3.2093,3.2166,3.29,3.3248,3.3303,3.367,3.3817,3.3872,3.4642,3.4954,3.5009,3.5449,3.5834,3.6146,3.6146,3.6479,3.7034,3.819,3.9405,4.0555,4.1714,4.2603,4.3184,4.3184,4.3184,4.3184,4.3184,4.3184,4.3184,4.3184,4.3184,4.3184,4.3184,4.3184,4.3184,4.3184,4.3184,4.3184,4.3184,4.3184,4.2962,4.218,4.1428,4.0444,3.9244,3.8357,3.7473,3.6578,3.584,3.5226,3.4834,3.4163,3.3817,3.3817,3.3817,3.3817,3.3817,3.378,3.3395,3.2625,3.2551,3.2166,3.1396,3.1744,3.1946,3.2012,3.1662,3.169,3.2038,3.2038,3.2294,1.9112,1.8891,1.8716,1.8637,1.8351,0.0,1.8125,1.9233,0.0,0.0,0.0,0.0,0.0,0.0,0.0,0.0,0.0,0.0,0.0,0.0,0.0,0.0,0.0,0.0,0.0,3.2826,3.2826,3.2826,3.2386,3.1909,3.1396,3.1377,3.1377,3.1377,3.1708,3.1891,3.1891,3.2203,3.2349,3.2349,3.2441,3.2661,3.2991,3.3156,3.3395,3.3707,3.378,3.3817,3.3853,3.433,3.4532,3.4605,3.5339,3.5669,3.5724,3.5724,3.6386,3.7476,3.8991,4.0074,4.1004,4.2532,4.3093,4.3184,4.3184,4.3184,4.3184,4.3184,4.3184,4.3184,4.3184,4.3184,4.3184,4.3184,4.3184,4.3184,4.3184,4.3184,4.3184,4.3184,4.3184,4.3141,4.2984,4.2011,4.1055,4.0345,3.9108,3.7678,3.6307,3.5724,3.5127,3.4094,3.3886,3.3817,3.3817,3.3817,3.3817,3.3817,3.3523,3.312,3.2625,3.2294,3.1891,3.1396,3.1451,3.1635,3.1912,3.2153,3.2402,3.2702,3.2975,3.3398,2.049,2.0232,1.9908,1.9365,0.0,0.0,0.0,1.931,2.0367,0.0,0.0,0.0,0.0,0.0,0.0,0.0,0.0,0.0,0.0,0.0,0.0,0.0,0.0,0.0,0.0,3.2588,3.2514,3.2313,3.2111,3.1818,3.1396,3.1377,3.1377,3.1377,3.1781,3.2001,3.2001,3.2404,3.2588,3.2588,3.2808,3.3028,3.323,3.3431,3.3633,3.3817,3.3817,3.3817,3.3853,3.4238,3.4275,3.4202,3.5229,3.5614,3.565,3.6054,3.692,3.8117,3.9498,4.0647,4.1664,4.2813,4.3184,4.3184,4.3184,4.3184,4.3184,4.3184,4.3184,4.3184,4.3184,4.3184,4.3184,4.3184,4.3184,4.3184,4.3184,4.3184,4.3184,4.3184,4.3184,4.3184,4.3184,4.2688,4.1999,4.1062,3.9904,3.8623,3.7024,3.5996,3.5177,3.4439,3.4024,3.3817,3.3817,3.3817,3.3725,3.3523,3.334,3.2955,3.2331,3.2111,3.1909,3.1689,3.1884,3.2208,3.2725,3.3256,3.3444,3.3398,3.3922,3.4423,2.2143,2.1738,2.1246,0.0,0.0,1.9919,0.0,0.0,0.0,2.0793,0.0,0.0,0.0,0.0,0.0,0.0,0.0,0.0,0.0,0.0,0.0,0.0,0.0,0.0,0.0,3.2129,3.2001,3.1689,3.1653,3.1543,3.1286,3.1341,3.1377,3.1377,3.1854,3.2129,3.2129,3.2588,3.2826,3.2826,3.3175,3.334,3.334,3.367,3.3817,3.3817,3.3817,3.3817,3.3835,3.4147,3.4092,3.3927,3.5064,3.5504,3.5686,3.6606,3.7601,3.8826,4.0054,4.1147,4.2159,4.2953,4.3184,4.3184,4.3184,4.3184,4.3184,4.3184,4.3184,4.3184,4.3184,4.3184,4.3184,4.3184,4.3184,4.3184,4.3184,4.3184,4.3184,4.3184,4.3184,4.3184,4.3184,4.3184,4.2809,4.1575,4.0656,3.9526,3.784,3.6375,3.5226,3.4715,3.4163,3.3817,3.3817,3.3817,3.3651,3.3248,3.3224,3.2838,3.2038,3.1928,3.1891,3.1956,3.2395,3.2952,3.3721,3.4492,3.4719,3.4278,3.4922,3.5418,0.0,0.0,0.0,0.0,2.073,0.0,0.0,0.0,1.9908,1.996,0.0,0.0,0.0,0.0,0.0,0.0,0.0,0.0,0.0,0.0,0.0,0.0,0.0,0.0,0.0,0.0,3.0461,3.0406,3.0406,3.0534,3.0846,3.1194,3.1377,3.1377,3.2129,3.2533,3.2533,3.3285,3.367,3.367,3.3725,3.3743,3.3743,3.3798,3.3817,3.3817,3.3817,3.3817,3.3817,3.3853,3.3853,3.389,3.477,3.5298,3.5765,3.6899,3.8078,3.9261,4.077,4.1573,4.2159,4.2953,4.3184,4.3184,4.3184,4.3184,4.3184,4.3184,4.3184,4.3184,4.3184,4.3184,4.3184,4.3184,4.3184,4.3184,4.3184,4.3184,4.3184,4.3184,4.3184,4.3184,4.3184,4.3184,4.2988,4.2351,4.1006,3.9562,3.7976,3.6436,3.5059,3.4024,3.3886,3.3817,3.3817,3.3817,3.3651,3.3248,3.3132,3.2792,3.2019,3.1653,3.158,3.192,3.2523,3.3398,3.4472,3.5744,3.6144,3.5684,3.6034,3.6606,0.0,0.0,0.0,0.0,0.0,0.0,2.0594,0.0,2.0832,0.0,0.0,0.0,0.0,0.0,0.0,0.0,0.0,0.0,0.0,0.0,0.0,0.0,0.0,0.0,0.0,0.0,0.0,0.0,0.0,2.9525,3.0406,3.0827,3.1139,3.1377,3.2166,3.2588,3.2588,3.3413,3.3817,3.3817,3.3817,3.3817,3.3817,3.3817,3.3817,3.3817,3.3817,3.3817,3.3817,3.3817,3.3817,3.389,3.4715,3.5099,3.546,3.7108,3.8471,3.9622,4.0933,4.1947,4.2743,4.3093,4.3023,4.2883,4.3115,4.3184,4.3184,4.3184,4.3184,4.3184,4.3184,4.3184,4.3184,4.3184,4.3184,4.3184,4.3184,4.3184,4.3184,4.3184,4.3184,4.3184,4.3184,4.3184,4.294,4.2232,4.0959,3.9583,3.8241,3.6504,3.5177,3.4508,3.4094,3.3817,3.3817,3.3817,3.361,3.3169,3.303,3.2857,3.2539,3.2369,3.2339,3.2466,3.3146,3.4246,3.5744,3.652,3.7125,3.7584,3.773,3.7916,2.625,0.0,0.0,0.0,0.0,0.0,0.0,0.0,0.0,0.0,0.0,0.0,0.0,0.0,0.0,0.0,0.0,0.0,0.0,0.0,0.0,0.0,0.0,0.0,0.0,0.0,0.0,0.0,0.0,0.0,2.9965,3.0516,3.0974,3.1359,3.2166,3.2588,3.2588,3.3413,3.3817,3.3817,3.3817,3.3817,3.3817,3.3817,3.3817,3.3817,3.3817,3.3817,3.3817,3.3817,3.3817,3.389,3.4587,3.4935,3.5263,3.7226,3.8627,3.9714,4.0933,4.1947,4.2743,4.2673,4.2511,4.2349,4.2743,4.3023,4.3184,4.3184,4.3184,4.3184,4.3184,4.3184,4.3184,4.3184,4.3184,4.3184,4.3184,4.3184,4.3184,4.3184,4.3184,4.3184,4.3184,4.3184,4.2984,4.2358,4.0997,3.9646,3.8493,3.6651,3.5226,3.4646,3.3983,3.3651,3.3651,3.3541,3.3379,3.319,3.2736,3.2594,3.2892,3.2721,3.2785,3.3019,3.3776,3.5001,3.677,3.7144,3.7902,3.9034,3.8903,3.8775,0.0,0.0,0.0,2.3231,0.0,0.0,0.0,0.0,2.24,0.0,0.0,0.0,0.0,0.0,2.337,2.2968,0.0,0.0,0.0,0.0,0.0,0.0,0.0,0.0,0.0,0.0,0.0,0.0,0.0,0.0,2.9525,3.0351,3.0974,3.1359,3.2166,3.2588,3.2588,3.3413,3.3817,3.3817,3.3817,3.3817,3.3817,3.3817,3.3817,3.3817,3.3817,3.3817,3.3817,3.3817,3.3817,3.3853,3.4257,3.4678,3.5263,3.7226,3.8462,3.9333,4.0841,4.141,4.1481,4.1452,4.1431,4.1481,4.1926,4.2603,4.3184,4.3184,4.3184,4.3184,4.3184,4.3184,4.3184,4.3184,4.3184,4.3184,4.3184,4.3184,4.3184,4.3184,4.3184,4.3184,4.3184,4.3184,4.3163,4.3163,4.1438,3.9723,3.8644,3.673,3.5059,3.3955,3.3468,3.3248,3.3248,3.2863,3.2858,3.3455,3.2179,3.1891,3.2848,3.2294,3.2358,3.3355,3.436,3.5583,3.7082,3.7724,3.8597,3.9579,3.9056,3.8775,0.0,0.0,2.6423,2.5348,0.0,0.0,0.0,0.0,0.0,0.0,0.0,0.0,0.0,0.0,2.5161,2.395,2.3529,0.0,0.0,0.0,0.0,0.0,0.0,0.0,0.0,0.0,0.0,0.0,0.0,0.0,0.0,2.9819,3.0589,3.0974,3.2038,3.2588,3.2588,3.3413,3.3817,3.3817,3.3817,3.3817,3.3817,3.3817,3.3817,3.3817,3.3817,3.3817,3.3817,3.3817,3.3817,3.3853,3.4238,3.4495,3.4786,3.6591,3.772,3.8535,3.9838,4.0412,4.0627,4.0361,4.0433,4.077,4.141,4.2138,4.2861,4.3115,4.3184,4.3184,4.3184,4.3184,4.3184,4.3184,4.3184,4.3184,4.3184,4.3184,4.3184,4.3184,4.3184,4.3184,4.3184,4.3184,4.3093,4.2861,4.1465,4.0104,3.8963,3.7035,3.5387,3.427,3.3558,3.3101,3.2826,3.2641,3.2787,3.3482,3.2822,3.253,3.2892,3.2912,3.3292,3.4027,3.4839,3.608,3.7786,3.7972,3.8597,3.9601,3.9384,3.9471,2.9239,2.874,0.0,2.7486,2.6487,0.0,2.4802,0.0,0.0,0.0,0.0,0.0,0.0,0.0,2.6738,2.5304,2.4317,2.3382,0.0,0.0,0.0,0.0,0.0,0.0,0.0,0.0,2.6076,2.6151,0.0,0.0,0.0,0.0,3.002,3.0571,3.1891,3.2588,3.2588,3.3413,3.3817,3.3817,3.3817,3.3817,3.3817,3.3817,3.3817,3.3817,3.3817,3.3817,3.3817,3.3817,3.3817,3.3835,3.4092,3.4275,3.4566,3.588,3.7023,3.8117,3.8846,3.9281,3.9405,3.9208,3.9281,3.9622,4.0341,4.1339,4.2278,4.2673,4.2953,4.3184,4.3184,4.3184,4.3184,4.3184,4.3184,4.3184,4.3184,4.3184,4.3184,4.3184,4.3184,4.3184,4.3184,4.3184,4.3023,4.2651,4.1383,4.0124,3.8998,3.7042,3.5458,3.4427,3.3521,3.2771,3.2203,3.2124,3.2412,3.3058,3.2618,3.2466,3.2702,3.2848,3.3292,3.4195,3.4777,3.5872,3.7487,3.7487,3.7962,3.8956,3.9084,3.9453]}]]